     2              OBSERVATION DATA    GPS                 RINEX VERSION / TYPE
teqc 1999Jul19 19991123 02:50:08UTC                         PGM / RUN BY / DATE
                                                            COMMENT
Original Marker Name: 0221                                  COMMENT
Campaign Name: HPGN 1991                                    COMMENT
4-Character Station Name: 0221                              COMMENT
6-Character Antenna Code: TRMSST                            COMMENT
Vertical Measurement Point: TGP                             COMMENT
Vertical Offset to Rinex Ref. Point: 0.0629                 COMMENT
Radial Measurement Point: OGP                               COMMENT
Radial Offset to Rinex Ref. Point: 0.2413                   COMMENT
Antenna Height from Field Measurement: 1.8170 m             COMMENT
                                                            COMMENT
Original XYZ: -2646157.8326 -4084653.6237 4109896.8709      COMMENT
New XYZ position is based on association with SCEC monument COMMENT
E1O6F8K0+0011. Position of that monument is believed to be  COMMENT
valid to within 1 m horizontally; vertical accuracy         COMMENT
should be no worse than 3-times this value.                 COMMENT
                                                            COMMENT
Revised Rinex header created by UCSD GPS archive for        COMMENT
GSAC on 10-Mar-2000 (2000:070) 04:42:22 GMT                 COMMENT
For assistance contact dagnew@ucsd.edu or hjohnson@ucsd.edu COMMENT
                                                            COMMENT
HPGN CA 02 21                                               MARKER NAME
0221                                                        MARKER NUMBER
-Unknown- CALIF DEPT TRANSPORTATION                         OBSERVER / AGENCY
282 TRIMBLE 4000 SST NP 4.30 / SP 4.20                      REC # / TYPE / VERS
136 TR 4000SST L1/L2 GEO                                    ANT # / TYPE
 -2646166.5243 -4084658.6461  4109900.5162                  APPROX POSITION XYZ
        1.7380        0.0000        0.0000                  ANTENNA: DELTA H/E/N
     1     1     0                                          WAVELENGTH FACT L1/2
     5    C1    L1    L2    S1    S2                        # / TYPES OF OBSERV
     0                                                      INTERVAL
  1991     7     4     2     1   45.000000                  TIME OF FIRST OBS
  1991     7     4     8     3   60.000000                  TIME OF LAST OBS
                                                            END OF HEADER
 91  7  4  2  1 45.0000000  0  4G 3G16G20G17
  20756634.516          -0.16317        -0.07633        25.250           2.750
  22277383.234          -0.37417        -0.45932        22.000           1.844
  22807307.500          -0.85516        -0.31631        15.500           0.906
  21134963.375          -0.94917        -0.43633        22.500           2.625
 91  7  4  2  2  0.0000000  0  4G 3G16G20G17
  20753207.078      -18016.439 7    -14038.70823        25.500           2.625
  22282594.836       27394.222 7     21345.97222        21.250           1.813
  22816226.289       46855.149 6     36510.81821        15.250           0.875
  21129744.852      -27430.519 7    -21374.10723        23.500           2.625
 91  7  4  2  2 15.0000000  0  4G 3G16G20G17
  20749783.711      -36003.067 7    -28054.25123        25.750           2.563
  22287821.242       54859.684 7     42747.61622        20.500           1.719
  22825147.125       93730.345 6     73036.89021        15.250           0.875
  21124530.750      -54819.740 7    -42716.33623        23.500           2.781
 91  7  4  2  2 30.0000000  0  4G 3G16G20G17
  20746367.641      -53950.994 7    -42039.63723        25.750           2.656
  22293062.242       82404.244 7     64210.89122        21.000           1.875
  22834066.664      140633.189 6    109584.51521        14.500           0.938
  21119328.406      -82159.767 7    -64020.23923        23.250           2.656
 91  7  4  2  2 45.0000000  0  4G 3G16G20G17
  20742959.891      -71855.445 7    -55991.14523        25.000           2.719
  22298318.586      110032.084 7     85739.06922        21.000           1.844
  22843001.578      187567.950 6    146157.01521        15.000           0.813
  21114136.109     -109445.933 7    -85282.16723        23.750           2.781
 91  7  4  2  3  0.0000000  0  4G 3G16G20G17
  20739562.555      -89711.511 7    -69904.94223        25.500           2.813
  22303594.641      137747.932 7    107335.81722        20.750           1.938
  22851941.586      234538.883 6    182757.69721        15.500           0.906
  21108955.945     -136673.493 7   -106498.42923        23.000           2.813
 91  7  4  2  3 15.0000000  0  4G 3G16G20G17
  20736173.891     -107518.011 7    -83780.12223        25.750           2.750
  22308884.664      165552.114 6    129001.39522        19.750           1.719
  22860887.211      281546.716 6    219387.12421        15.500           0.938
  21103786.109     -163841.621 7   -127668.38723        23.000           2.781
 91  7  4  2  3 30.0000000  0  4G 3G16G20G17
  20732794.742     -125275.759 7    -97617.31523        25.500           2.969
  22314192.945      193443.502 7    150734.92022        20.000           1.688
  22869834.992      328590.016 6    256044.19921        15.250           0.906
  21098628.523     -190951.052 7   -148792.60123        23.250           2.875
 91  7  4  2  3 45.0000000  0  4G 3G16G20G17
  20729425.609     -142980.953 7   -111413.56223        25.000           2.906
  22319515.117      221425.310 6    172538.92022        19.750           1.781
  22878795.734      375671.926 6    292731.35521        15.250           0.969
  21093479.695     -217998.432 7   -169868.45923        23.250           2.844
 91  7  4  2  4  0.0000000  0  4G 3G16G20G17
  20726066.680     -160629.885 7   -125165.96423        25.500           2.938
  22324858.297      249500.914 6    194415.99422        19.500           1.781
  22887765.469      422795.470 6    329450.95121        15.500           0.875
  21088346.266     -244980.183 7   -190893.17823        22.750           2.875
 91  7  4  2  4 15.0000000  0  4G 3G16G20G17
  20722717.313     -178227.053 7   -138878.03723        24.750           3.000
  22330219.008      277665.120 7    216362.11422        20.500           1.813
  22896736.906      469955.850 6    366199.25221        15.500           0.844
  21083225.125     -271900.944 7   -211870.37423        23.000           2.813
 91  7  4  2  4 30.0000000  0  4G 3G16G20G17
  20719379.555     -195769.780 7   -152547.68523        25.250           3.063
  22335595.289      305920.466 7    238379.24922        20.000           1.938
  22905721.320      517155.160 6    402977.89021        15.750           0.906
  21078113.734     -298758.201 7   -232798.09223        22.750           2.938
 91  7  4  2  4 45.0000000  0  4G 3G16G20G17
  20716052.859     -213254.172 7   -166171.87723        25.250           3.000
  22340991.102      334270.417 7    260470.09822        20.750           1.781
  22914710.258      564396.835 6    439789.53521        15.750           0.906
  21073015.000     -325548.070 7   -253673.29923        22.500           2.813
 91  7  4  2  5  0.0000000  0  4G 3G16G20G17
  20712736.781     -230683.248 7   -179752.97723        25.250           2.906
  22346401.477      362710.820 7    282631.44722        20.250           1.656
  22923708.531      611677.127 6    476631.27221        15.500           0.938
  21067929.344     -352274.260 7   -274498.87723        22.750           2.844
 91  7  4  2  5 15.0000000  0  4G 3G16G20G17
  20709430.258     -248055.777 7   -193290.01223        25.250           2.844
  22351830.258      391243.069 6    304864.34922        19.750           1.719
  22932711.875      658997.030 6    513503.87621        15.000           0.844
  21062854.664     -378935.237 7   -295273.65223        22.750           2.844
 91  7  4  2  5 30.0000000  0  4G 3G16G20G17
  20706135.461     -265371.877 7   -206783.07623        25.500           2.813
  22357279.563      419866.057 7    327167.95522        20.000           1.781
  22941724.328      706355.527 6    550406.55621        14.000           0.875
  21057795.766     -405531.458 7   -315997.96823        23.750           2.875
 91  7  4  2  5 45.0000000  0  4G 3G16G20G17
  20702852.586     -282627.979 7   -220229.37923        25.500           2.688
  22362744.953      448583.186 7    349544.92122        20.250           1.781
  22950742.625      753755.736 6    587341.73521        13.500           0.875
  21052745.219     -432059.565 7   -336669.20723        23.250           2.875
 91  7  4  2  6  0.0000000  0  4G 3G16G20G17
  20699579.906     -299822.810 7   -233627.93323        25.250           2.719
  22368225.969      477395.392 7    371995.96022        20.500           1.719
  22959770.203      801198.398 6    624310.00021        13.000           0.813
  21047710.898     -458518.663 7   -357286.67423        23.750           2.844
 91  7  4  2  6 15.0000000  0  4G 3G16G20G17
  20696319.531     -316960.857 7   -246982.25223        25.250           2.656
  22373726.406      506297.721 6    394517.24722        19.750           1.781
  22968804.781      848678.530 6    661307.46621        12.750           0.938
  21042688.000     -484913.271 7   -377853.86923        24.000           2.844
 91  7  4  2  6 30.0000000  0  4G 3G16G20G17
  20693068.570     -334040.889 7   -260291.36823        25.500           2.656
  22379241.398      535290.719 6    417109.17922        18.750           1.781
  22977847.602      896196.581 6    698334.46821        12.750           0.969
  21037677.414     -511242.555 7   -398370.17723        24.000           2.969
 91  7  4  2  6 45.0000000  0  5G 3G16G20G17G23
  20689827.086     -351067.267 7   -273558.67223        24.750           2.656
  22384777.336      564369.351 6    439767.82522        19.000           1.813
  22986896.977      943747.769 6    735387.28821        12.750           0.813
  21032678.750     -537510.827 7   -418838.95323        24.000           2.750
  24348353.914          -0.32215                         8.000
 91  7  4  2  7  0.0000000  0  5G 3G16G20G17G23
  20686601.852     -368032.382 7   -286778.24123        25.750           2.625
  22390326.539      593540.825 6    462498.82522        18.750           1.656
  22995950.422      991339.206 6    772471.47621        12.000           0.969
  21027692.477     -563710.717 7   -439254.43223        24.000           2.875
  24337053.000      -59410.591 5                         7.750
 91  7  4  2  7 15.0000000  0  5G 3G16G20G17G23
  20683381.727     -384939.739 7   -299952.80023        24.500           2.625
  22395895.836      622801.105 6    485299.02222        19.500           1.719
  23005015.445     1038966.672 6    809583.74921        12.500           0.906
  21022719.125     -589846.073 7   -459619.63223        24.000           2.938
  24325741.352     -118812.551 4                         7.000
 91  7  4  2  7 30.0000000  0  5G 3G16G20G17G23
  20680175.617     -401789.435 7   -313082.43923        24.750           2.750
  22401480.328      652149.671 6    508168.02122        19.750           1.688
  23014088.555     1086629.546 6    846723.60621        13.000           0.906
  21017757.742     -615917.076 7   -479934.68523        23.500           2.969
  24314437.063     -178206.273 4                         7.250
 91  7  4  2  7 45.0000000  0  5G 3G16G20G17G23
  20676981.648     -418581.919 7   -326167.49023        26.250           2.719
  22407081.289      681585.734 6    531105.19922        18.750           1.781
  23023162.836     1134326.690 6    883890.14021        12.500           0.844
  21012811.258     -641924.265 7   -500200.01623        23.500           2.938
  24303140.211     -237592.116 4        -0.27231         7.250           0.281
 91  7  4  2  8  0.0000000  0  5G 3G16G20G17G23
  20673797.797     -435311.818 7   -339203.78223        26.500           2.625
  22412700.008      711114.348 6    554114.49322        19.500           1.781
  23032245.992     1182063.136 6    921087.32721        12.250           0.875
  21007874.695     -667862.506 7   -520411.61623        23.000           3.031
  24291848.711     -296964.600 4    -46264.45321         7.250           0.313
 91  7  4  2  8 15.0000000  0  5G 3G16G20G17G23
  20670624.078     -451988.469 7   -352198.57423        26.500           2.750
  22418334.141      740725.369 6    577188.00322        18.500           1.781
  23041337.547     1229828.745 6    958307.24121        12.500           0.719
  21002950.438     -693741.461 7   -540577.02123        23.000           2.969
  24280550.578     -356332.968 4    -92525.40521         6.750           0.313
 91  7  4  2  8 30.0000000  0  5G 3G16G20G17G23
  20667460.914     -468609.819 7   -365150.27323        26.500           2.625
  22423986.281      770420.378 6    600326.95222        18.500           1.813
  23050434.992     1277625.137 6    995551.12921        14.000           0.781
  20998036.891     -719559.367 7   -560694.86123        23.000           2.906
  24269243.586     -415694.929 4   -138781.38121         6.750           0.344
 91  7  4  2  8 45.0000000  0  5G 3G16G20G17G23
  20664310.688     -485169.170 7   -378053.66023        26.500           2.781
  22429655.766      800205.877 6    623536.40822        19.000           1.813
  23059535.086     1325458.456 6   1032823.79721        13.750           0.781
  20993136.781     -745309.689 7   -580760.03423        22.750           2.875
  24257950.672     -475043.891 4   -185027.24321         6.250           0.344
 91  7  4  2  9  0.0000000  0  5G 3G16G20G17G23
  20661170.664     -501665.162 7   -390907.66923        26.000           2.781
  22435340.313      830082.632 6    646816.98622        19.000           1.719
  23068644.680     1373329.718 6   1070126.04421        13.500           0.875
  20988250.664     -770991.153 7   -600771.55323        23.250           2.938
  24246663.000     -534378.345 4   -231261.79221         6.250           0.281
 91  7  4  2  9 15.0000000  0  5G 3G16G20G17G23
  20658043.336     -518099.288 7   -403713.48123        25.750           2.719
  22441044.820      860048.428 6    670166.94122        19.500           1.844
  23077757.836     1421236.570 6   1107456.01421        12.750           0.781
  20983374.203     -796605.368 7   -620730.65823        22.750           2.844
  24235379.516     -593699.744 4   -277486.16321         6.250           0.281
 91  7  4  2  9 30.0000000  0  5G 3G16G20G17G23
  20654929.164     -534469.688 7   -416469.63423        26.250           2.688
  22446763.906      890104.810 6    693587.48822        19.000           1.813
  23086886.953     1469180.481 6   1144814.85721        13.250           0.844
  20978515.484     -822150.540 7   -640635.97823        23.250           2.875
  24224084.344     -653006.103 3   -323698.81821         6.000           0.313
 91  7  4  2  9 45.0000000  0  5G 3G16G20G17G23
  20651824.031     -550779.582 7   -429178.64123        26.250           2.625
  22452500.242      920247.881 6    717075.56822        19.000           1.750
  23096013.766     1517157.664 6   1182199.62521        13.500           0.844
  20973666.672     -847630.235 7   -660490.27423        23.500           3.000
  24212803.797     -712300.541 3   -369902.20321         6.000           0.250
 91  7  4  2 10  0.0000000  0  5G 3G16G20G17G23
  20648732.703     -567030.194 7   -441841.45723        26.500           2.563
  22458253.609      950475.817 6    740629.78922        19.500           1.781
  23105148.234     1565166.082 6   1219608.72521        13.000           0.781
  20968830.148     -873046.160 7   -680294.88123        23.250           2.969
  24201514.422     -771584.538 3   -416097.41921         6.000           0.250
 91  7  4  2 10 15.0000000  0  5G 3G16G20G17G23
  20645652.039     -583220.584 7   -454457.34523        26.500           2.594
  22464021.680      980789.537 6    764250.85822        18.750           1.844
  23114292.563     1613206.612 6   1257042.86421        13.000           0.750
  20964005.703     -898397.344 7   -700049.04023        22.750           2.875
  24190242.164     -830856.522 4   -462283.32121         6.250           0.188
 91  7  4  2 10 30.0000000  0  5G 3G16G20G17G23
  20642581.203     -599351.106 7   -467026.57723        25.750           2.594
  22469805.336     1011187.731 6    787937.75322        18.500           1.750
  23123438.219     1661277.770 6   1294500.85321        13.500           0.813
  20959192.141     -923684.527 7   -719753.31423        22.500           2.969
  24178970.102     -890117.241 4   -508460.39721         6.750           0.250
 91  7  4  2 10 45.0000000  0  5G 3G16G20G17G23
  20639524.422     -615418.587 7   -479546.68423        25.750           2.500
  22475603.984     1041673.446 6    811692.83522        18.000           1.688
  23132597.211     1709382.605 6   1331985.09221        13.750           0.750
  20954393.477     -948904.441 7   -739405.17723        23.250           3.063
  24167693.523     -949363.133 4   -554625.91421         6.750           0.219
 91  7  4  2 11  0.0000000  0  5G 3G16G20G17G23
  20636479.102     -631425.545 7   -492019.62823        26.000           2.531
  22481424.180     1072243.585 6    835513.69322        18.250           1.656
  23141753.977     1757517.934 6   1369493.08721        13.250           0.719
  20949608.336     -974060.173 7   -759007.02223        23.500           3.094
  24156421.445    -1008596.689 4   -600781.86721         6.750           0.281
 91  7  4  2 11 15.0000000  0  5G 3G16G20G17G23
  20633446.570     -647368.586 7   -504442.76723        26.750           2.563
  22487256.477     1102900.900 6    859402.49122        18.500           1.656
  23150916.711     1805686.446 6   1407026.93621        12.750           0.656
  20944831.727     -999148.305 7   -778556.20623        22.750           3.000
  24145150.328    -1067814.454 4   -646925.51121         7.250           0.188
 91  7  4  2 11 30.0000000  0  5G 3G16G20G17G23
  20630422.930     -663249.014 7   -516817.13423        25.750           2.500
  22493105.867     1133643.427 6    883357.70922        17.750           1.719
  23160087.242     1853886.222 6   1444585.15321        12.500           0.719
  20940070.875    -1024170.414 7   -798053.94023        23.500           3.000
  24133890.922    -1127017.778 5   -693057.88121         7.750           0.250
 91  7  4  2 11 45.0000000  0  5G 3G16G20G17G23
  20627410.969     -679070.509 7   -529145.56223        25.000           2.625
  22498971.813     1164467.185 6    907376.19622        17.750           1.719
  23169269.766     1902113.231 6   1482164.58921        13.000           0.750
  20935321.633    -1049130.216 7   -817503.11723        23.500           3.000
  24122626.867    -1186210.234 5   -739181.74921         7.500           0.281
 91  7  4  2 12  0.0000000  0  5G 3G16G20G17G23
  20624413.156     -694830.281 7   -541425.89123        25.500           2.594
  22504854.008     1195374.418 6    931459.73222        18.000           1.531
  23178453.266     1950369.573 6   1519766.87621        13.250           0.563
  20930583.859    -1074025.177 7   -836901.78023        23.000           3.000
  24111362.344    -1245388.806 5   -785294.84221         7.500           0.313
 91  7  4  2 12 15.0000000  0  5G 3G16G20G17G23
  20621426.945     -710527.979 7   -553657.85823        26.000           2.594
  22510750.563     1226364.878 6    955608.12022        17.750           1.656
  23187640.867     1998655.009 6   1557391.83921        13.250           0.625
  20925858.914    -1098855.351 7   -856249.95223        23.250           2.969
  24100104.320    -1304553.250 5   -831396.92521         7.500           0.313
 91  7  4  2 12 30.0000000  0  5G 3G16G20G17G23
  20618451.875     -726164.088 7   -565841.83823        26.000           2.656
  22516663.414     1257437.793 6    979820.76122        17.500           1.531
  23196833.227     2046968.536 6   1595038.68521        13.250           0.563
  20921146.000    -1123621.459 7   -875548.19723        22.750           2.969
  24088854.953    -1363703.838 5   -877488.18921         8.000           0.281
 91  7  4  2 12 45.0000000  0  5G 3G16G20G17G23
  20615486.742     -741737.339 7   -577976.83423        25.500           2.625
  22522591.727     1288593.865 6   1004098.20822        17.500           1.625
  23206031.805     2095310.900 6   1632708.01921        13.500           0.625
  20916445.156    -1148322.164 7   -894795.47023        22.750           3.000
  24077599.039    -1422839.108 5   -923567.52921         7.750           0.344
 91  7  4  2 13  0.0000000  0  5G 3G16G20G17G23
  20612535.875     -757247.445 7   -590062.62523        25.250           2.719
  22528536.586     1319832.806 6   1028440.21322        18.000           1.719
  23215237.078     2143681.724 6   1670399.51521        13.750           0.656
  20911758.688    -1172957.487 7   -913991.80423        23.000           3.000
  24066340.734    -1481959.028 5   -969634.90821         7.500           0.313
 91  7  4  2 13 15.0000000  0  5G 3G16G20G17G23
  20609595.570     -772692.729 7   -602097.90523        25.000           2.594
  22534498.570     1351156.227 6   1052848.05222        18.750           1.719
  23224451.477     2192082.147 6   1708114.08121        14.000           0.688
  20907081.813    -1197526.058 7   -933136.13823        22.500           3.000
  24055094.406    -1541061.505 5  -1015688.70721         7.500           0.281
 91  7  4  2 13 30.0000000  0  5G 3G16G20G17G23
  20606668.188     -788078.112 7   -614086.50723        25.000           2.594
  22540474.633     1382558.265 6   1077317.15422        19.000           1.750
  23233661.398     2240506.815 6   1745847.52421        13.500           0.656
  20902420.305    -1222032.868 7   -952232.33923        22.750           3.000
  24043858.180    -1600151.516 5  -1061732.78121         8.000           0.313
 91  7  4  2 13 45.0000000  0  5G 3G16G20G17G23
  20603751.555     -803400.274 7   -626025.84723        24.500           2.688
  22546467.344     1414042.029 6   1101849.94222        18.750           1.719
  23242887.938     2288958.599 6   1783602.10821        14.000           0.625
  20897769.047    -1246474.838 7   -971278.01123        23.250           3.000
  24032610.000    -1659225.686 5  -1107764.51221         8.000           0.375
 91  7  4  2 14  0.0000000  0  5G 3G16G20G17G23
  20600848.523     -818657.706 7   -637914.74423        25.000           2.594
  22552470.484     1445608.303 6   1126447.03622        17.750           1.500
  23252112.586     2337438.123 6   1821378.29321        13.750           0.656
  20893128.734    -1270850.578 7   -990272.06723        22.750           3.031
  24021372.141    -1718282.427 5  -1153782.66521         8.250           0.375
 91  7  4  2 14 15.0000000  0  5G 3G16G20G17G23
  20597958.742     -833850.995 7   -649753.66423        25.000           2.563
  22558495.133     1477256.051 6   1151107.61522        18.250           1.656
  23261336.664     2385944.282 6   1859175.24721        13.000           0.625
  20888504.938    -1295161.053 7  -1009215.27023        23.250           3.063
  24010138.414    -1777322.320 5  -1199787.68921         8.000           0.375
 91  7  4  2 14 30.0000000  0  5G 3G16G20G17G23
  20595080.492     -848981.698 7   -661543.81623        25.750           2.500
  22564531.508     1508983.229 6   1175830.08022        17.500           1.656
  23270574.758     2434474.995 6   1896991.33821        13.000           0.594
  20883888.930    -1319407.960 7  -1028108.94623        22.750           3.156
  23998902.977    -1836346.587 5  -1245780.53621         8.250           0.344
 91  7  4  2 14 45.0000000  0  5G 3G16G20G17G23
  20592212.078     -864047.459 7   -673283.36823        25.250           2.563
  22570584.109     1540791.444 6   1200615.68422        18.000           1.625
  23279812.711     2483032.060 6   1934827.96221        13.000           0.625
  20879284.227    -1343589.320 7  -1046951.54823        22.750           3.188
  23987677.828    -1895353.036 5  -1291759.51221         8.500           0.313
 91  7  4  2 15  0.0000000  0  5G 3G16G20G17G23
  20589358.906     -879048.662 7   -684972.60123        25.000           2.531
  22576652.383     1572680.090 6   1225463.96222        18.000           1.719
  23289063.078     2531614.457 6   1972684.31221        13.500           0.563
  20874698.359    -1367705.646 7  -1065743.47323        23.500           3.313
  23976453.727    -1954342.092 5  -1337724.90321         8.750           0.375
 91  7  4  2 15 15.0000000  0  5G 3G16G20G17G23
  20586518.180     -893986.173 7   -696612.21123        25.750           2.594
  22582738.539     1604647.920 6   1250373.94622        18.000           1.500
  23298312.070     2580221.023 6   2010559.49921        13.500           0.594
  20870120.219    -1391757.781 7  -1084485.36823        23.000           3.438
  23965230.906    -2013314.327 5  -1383677.22121         8.750           0.406
 91  7  4  2 15 30.0000000  0  5G 3G16G20G17G23
  20583686.078     -908857.946 7   -708200.60123        25.250           2.500
  22588836.281     1636696.069 6   1275346.51221        17.750           1.406
  23307566.836     2628853.119 6   2048454.58221        13.500           0.656
  20865555.148    -1415744.073 7  -1103175.96523        23.250           3.375
  23954016.727    -2072267.622 5  -1429614.76621         9.000           0.406
 91  7  4  2 15 45.0000000  0  5G 3G16G20G17G23
  20580867.758     -923664.285 7   -719738.00123        24.500           2.531
  22594952.750     1668823.911 6   1300381.18021        19.250           1.469
  23316826.164     2677509.771 6   2086368.80021        13.250           0.469
  20861006.461    -1439665.063 7  -1121815.68423        23.500           3.375
  23942800.109    -2131202.307 5  -1475537.81221         9.000           0.375
 91  7  4  2 16  0.0000000  0  5G 3G16G20G17G23
  20578062.344     -938405.966 7   -731225.02122        24.750           2.344
  22601078.141     1701030.216 6   1325476.99321        19.000           1.469
  23326090.430     2726189.658 6   2124301.12221        13.250           0.625
  20856464.586    -1463521.540 7  -1140405.12923        23.000           3.406
  23931579.281    -2190118.900 5  -1521446.74821         8.500           0.375
 91  7  4  2 16 15.0000000  0  5G 3G16G20G17G23
  20575269.844     -953082.644 7   -742661.37722        25.500           2.375
  22607223.938     1733314.711 6   1350633.72522        19.250           1.563
  23335363.742     2774892.763 6   2162251.53321        13.000           0.531
  20851938.797    -1487313.517 7  -1158944.31423        22.500           3.313
  23920366.805    -2249017.168 5  -1567341.43121         8.000           0.406
 91  7  4  2 16 30.0000000  0  5G 3G16G20G17G23
  20572487.805     -967696.387 7   -754048.70322        24.500           2.438
  22613379.250     1765674.989 6   1375849.51222        18.750           1.594
  23344625.703     2823616.340 6   2200217.89721        12.000           0.594
  20847423.938    -1511043.213 7  -1177434.97123        23.250           3.250
  23909168.477    -2307898.848 5  -1613223.17321         8.750           0.406
 91  7  4  2 16 45.0000000  0  5G 3G16G20G17G23
  20569719.852     -982243.007 7   -765383.71622        24.750           2.469
  22619552.078     1798114.702 6   1401127.18622        18.750           1.531
  23353903.711     2872363.928 6   2238202.98321        12.000           0.563
  20842918.625    -1534706.812 7  -1195874.11723        22.500           3.281
  23897974.398    -2366759.866 5  -1659088.82021         9.500           0.375
 91  7  4  2 17  0.0000000  0  5G 3G16G20G17G23
  20566965.695     -996724.804 7   -776668.22922        25.250           2.406
  22625740.891     1830630.848 6   1426464.42421        18.750           1.438
  23363185.438     2921132.643 6   2276204.52821        12.000           0.438
  20838427.867    -1558306.968 7  -1214263.82923        22.750           3.250
  23886775.211    -2425602.491 5  -1704940.13221         9.250           0.438
 91  7  4  2 17 15.0000000  0  5G 3G16G20G17G23
  20564222.578    -1011143.787 7   -787903.79423        25.750           2.500
  22631941.250     1863221.088 6   1451859.39922        18.000           1.531
  23372464.266     2969919.951 6   2314220.55921        12.000           0.625
  20833951.016    -1581845.648 7  -1232605.64523        23.500           3.250
  23875580.867    -2484428.792 5  -1750778.72021         9.500           0.469
 91  7  4  2 17 30.0000000  0  5G 3G16G20G17G23
  20561489.648    -1025497.167 7   -799088.24522        25.500           2.344
  22638157.180     1895887.826 6   1477313.97421        18.250           1.469
  23381755.852     3018728.159 6   2352252.86921        12.000           0.563
  20829482.125    -1605320.061 7  -1250897.37523        23.250           3.188
  23864387.289    -2543235.644 5  -1796602.15321         9.500           0.469
 91  7  4  2 17 45.0000000  0  5G 3G16G20G17G23
  20558771.500    -1039786.241 7   -810222.56822        25.250           2.469
  22644389.680     1928629.249 6   1502826.74121        18.500           1.469
  23391047.523     3067555.602 6   2390300.15921        12.000           0.563
  20825026.984    -1628731.844 7  -1269140.30123        23.250           3.313
  23853206.305    -2602024.226 5  -1842411.34921         9.750           0.438
 91  7  4  2 18  0.0000000  0  5G 3G16G20G17G23
  20556064.391    -1054010.068 7   -821306.05622        25.250           2.438
  22650633.555     1961445.546 6   1528397.86122        18.250           1.500
  23400342.406     3116402.345 6   2428362.50821        12.250           0.531
  20820581.578    -1652080.223 7  -1287333.82123        23.000           3.250
  23842017.609    -2660793.697 5  -1888205.64921         9.500           0.438
 91  7  4  2 18 15.0000000  0  5G 3G16G20G17G23
  20553371.711    -1068167.875 7   -832338.10522        25.750           2.438
  22656891.086     1994336.802 6   1554027.39021        18.250           1.438
  23409642.172     3165268.500 6   2466439.97021        12.000           0.594
  20816151.875    -1675365.005 7  -1305477.78623        23.250           3.156
  23830836.102    -2719543.330 5  -1933984.51021         8.750           0.438
 91  7  4  2 18 30.0000000  0  5G 3G16G20G17G23
  20550689.125    -1082261.640 7   -843320.26322        26.000           2.375
  22663164.156     2027301.003 6   1579713.75821        18.750           1.313
  23418947.188     3214151.788 6   2504530.78221        12.500           0.625
  20811732.734    -1698588.051 7  -1323573.64523        23.250           3.250
  23819663.102    -2778274.641 5  -1979749.09721         9.000           0.594
 91  7  4  2 18 45.0000000  0  5G 3G16G20G17G23
  20548018.523    -1096287.364 7   -854249.38322        25.000           2.344
  22669453.141     2060341.339 6   1605459.45221        19.500           1.438
  23428253.750     3263055.461 6   2542637.48021        12.500           0.594
  20807327.656    -1721745.793 7  -1341618.63123        23.750           3.344
  23808489.734    -2836983.682 5  -2025496.30921         9.500           0.469
 91  7  4  2 19  0.0000000  0  5G 3G16G20G17G23
  20545361.789    -1110251.045 7   -865130.16422        25.500           2.438
  22675753.484     2093451.528 6   1631259.57921        18.750           1.406
  23437558.227     3311972.926 5   2580754.93221        11.750           0.563
  20802932.180    -1744844.308 7  -1359617.45523        24.000           3.375
  23797321.102    -2895676.600 5  -2071230.97221         9.500           0.563
 91  7  4  2 19 15.0000000  0  5G 3G16G20G17G23
  20542717.594    -1124148.299 7   -875959.18222        25.250           2.375
  22682068.844     2126635.299 6   1657117.03722        19.750           1.500
  23446873.781     3360908.188 6   2618886.24021        12.000           0.375
  20798548.461    -1767879.429 7  -1377566.88623        23.500           3.438
  23786154.578    -2954348.797 5  -2116949.49221         9.750           0.469
 91  7  4  2 19 30.0000000  0  5G 3G16G20G17G23
  20540084.883    -1137979.492 7   -886736.72722        25.000           2.375
  22688395.563     2159891.610 6   1683031.03221        18.250           1.469
  23456187.828     3409860.257 6   2657030.64521        12.500           0.500
  20794176.688    -1790851.898 7  -1395467.49423        23.500           3.469
  23774997.672    -3013000.605 5  -2162652.11021        10.250           0.563
 91  7  4  2 19 45.0000000  0  5G 3G16G20G17G23
  20537465.227    -1151743.926 7   -897462.24422        24.500           2.281
  22694741.922     2193220.913 6   1709001.89422        19.250           1.500
  23465507.336     3458829.130 6   2695188.15821        12.000           0.500
  20789818.922    -1813761.151 7  -1413318.84524        23.750           3.500
  23763836.813    -3071631.254 5  -2208338.26221         9.750           0.500
 91  7  4  2 20  0.0000000  0  5G 3G16G20G17G23
  20534859.219    -1165438.565 7   -908133.37822        25.000           2.281
  22701095.570     2226625.707 6   1735031.58921        18.250           1.469
  23474829.898     3507817.549 6   2733360.88621        12.500           0.500
  20785468.773    -1836604.310 7  -1431118.68723        23.500           3.406
  23752679.633    -3130237.540 5  -2254005.41621         9.500           0.500
 91  7  4  2 20 15.0000000  0  5G 3G16G20G17G23
  20532265.977    -1179065.360 7   -918751.64422        25.000           2.313
  22707469.180     2260103.784 6   1761118.37422        17.750           1.531
  23484152.258     3556822.886 6   2771546.80421        12.250           0.594
  20781137.586    -1859383.577 7  -1448868.75223        24.500           3.375
  23741537.305    -3188821.298 5  -2299655.03021         9.750           0.469
 91  7  4  2 20 30.0000000  0  5G 3G16G20G17G23
  20529685.453    -1192626.265 7   -929318.57322        25.250           2.344
  22713849.539     2293652.196 6   1787259.97121        17.250           1.375
  23493482.320     3605842.390 6   2809743.77221        12.750           0.531
  20776813.016    -1882101.245 7  -1466570.81623        24.250           3.250
  23730391.539    -3247384.674 5  -2345288.75021         9.500           0.625
 91  7  4  2 20 45.0000000  0  5G 3G16G20G17G23
  20527116.656    -1206118.708 7   -939832.14822        25.000           2.406
  22720249.266     2327273.352 6   1813458.24821        17.500           1.406
  23502817.195     3654878.585 6   2847953.71621        13.500           0.469
  20772502.492    -1904754.614 7  -1484222.78523        24.000           3.375
  23719255.156    -3305924.873 5  -2390904.41321        10.000           0.594
 91  7  4  2 21  0.0000000  0  5G 3G16G20G17G23
  20524566.039    -1219543.175 7   -950292.76922        25.750           2.313
  22726661.570     2360965.725 6   1839712.03921        17.750           1.406
  23512149.773     3703929.945 6   2886175.49321        13.250           0.594
  20768203.273    -1927344.706 7  -1501825.44223        23.750           3.344
  23708120.883    -3364442.388 5  -2436502.39621        10.000           0.531
 91  7  4  2 21 15.0000000  0  5G 3G16G20G17G23
  20522023.750    -1232897.647 7   -960698.84622        24.750           2.313
  22733088.078     2394731.145 6   1866022.72321        18.250           1.438
  23521485.891     3752998.032 6   2924410.30821        13.000           0.438
  20763917.508    -1949869.490 7  -1519377.19723        24.250           3.469
  23696987.883    -3422934.789 5  -2482080.83221        10.000           0.500
 91  7  4  2 21 30.0000000  0  5G 3G16G20G17G23
  20519495.375    -1246182.034 7   -971050.30222        24.750           2.219
  22739525.422     2428569.525 6   1892390.27121        18.250           1.469
  23530825.898     3802082.554 6   2962657.92821        12.750           0.531
  20759642.953    -1972329.103 7  -1536878.18224        23.750           3.500
  23685861.109    -3481402.047 5  -2527639.65921        10.000           0.594
 91  7  4  2 21 45.0000000  0  5G 3G16G20G17G23
  20516980.250    -1259397.738 7   -981348.24622        25.000           2.313
  22745977.672     2462478.798 6   1918813.06021        17.500           1.281
  23540172.063     3851181.586 6   3000916.85821        12.750           0.469
  20755380.125    -1994725.331 7  -1554329.77823        23.750           3.469
  23674744.953    -3539845.559 5  -2573179.98621        10.250           0.500
 91  7  4  2 22  0.0000000  0  5G 3G16G20G17G23
  20514478.008    -1272547.129 7   -991594.52222        24.750           2.313
  22752443.859     2496456.036 6   1945288.80121        17.500           1.438
  23549511.914     3900291.914 6   3039184.58321        12.500           0.438
  20751129.969    -2017060.686 7  -1571733.93524        23.750           3.563
  23663620.125    -3598267.745 5  -2618703.70021        10.500           0.531
 91  7  4  2 22 15.0000000  0  5G 3G16G20G17G23
  20511989.219    -1285626.662 7  -1001786.35922        25.000           2.250
  22758923.023     2530504.043 6   1971819.69621        17.500           1.469
  23558858.695     3949416.526 6   3077463.45021        12.000           0.500
  20746892.102    -2039331.823 7  -1589088.05024        24.000           3.500
  23652512.414    -3656665.091 5  -2664208.06221        10.500           0.563
 91  7  4  2 22 30.0000000  0  5G 3G16G20G17G23
  20509515.453    -1298637.768 7  -1011924.87122        25.000           2.313
  22765416.594     2564621.026 6   1998404.33921        17.750           1.313
  23568211.336     3998553.595 6   3115752.00621        12.000           0.469
  20742667.320    -2061540.286 7  -1606393.34023        24.500           3.438
  23641398.352    -3715038.754 5  -2709693.95721        10.000           0.469
 91  7  4  2 22 45.0000000  0  5G 3G16G20G17G23
  20507052.164    -1311577.621 7  -1022007.86422        25.000           2.313
  22771918.336     2598809.303 6   2025044.53621        16.500           1.438
  23577565.234     4047705.334 5   3154052.00621        11.500           0.500
  20738452.617    -2083683.593 7  -1623647.85324        24.500           3.563
  23630296.977    -3773385.752 5  -2755159.08421        10.000           0.469
 91  7  4  2 23  0.0000000  0  5G 3G16G20G17G23
  20504600.992    -1324451.398 7  -1032039.37322        24.750           2.375
  22778437.086     2633063.235 6   2051735.88522        17.000           1.500
  23586917.875     4096865.950 5   3192358.91421        11.500           0.500
  20734249.984    -2105767.119 7  -1640855.78624        24.500           3.500
  23619205.578    -3831711.211 5  -2800607.42521        10.750           0.563
 91  7  4  2 23 15.0000000  0  5G 3G16G20G17G23
  20502163.633    -1337256.149 7  -1042017.10722        24.500           2.281
  22784969.422     2667385.119 6   2078480.19721        17.000           1.313
  23596276.258     4146037.921 5   3230674.66621        11.500           0.500
  20730059.922    -2127787.924 7  -1658014.84223        24.500           3.375
  23608110.094    -3890012.135 5  -2846036.63021        10.750           0.469
 91  7  4  2 23 30.0000000  0  5G 3G16G20G17G23
  20499741.453    -1349990.294 7  -1051939.80122        25.000           2.250
  22791513.055     2701776.213 6   2105278.42821        17.250           1.375
  23605641.148     4195222.406 5   3269000.18621        11.750           0.500
  20725881.977    -2149744.826 7  -1675124.10924        24.750           3.531
  23597014.742    -3948286.826 5  -2891445.41121        10.500           0.500
 91  7  4  2 23 45.0000000  0  5G 3G16G20G17G23
  20497332.344    -1362652.906 7  -1061806.76722        24.750           2.344
  22798074.055     2736236.817 6   2132130.83221        17.500           1.406
  23615001.516     4244419.519 5   3307335.52221        11.500           0.563
  20721716.055    -2171637.354 7  -1692183.20924        25.000           3.688
  23585935.656    -4006534.553 5  -2936833.17621        10.750           0.375
 91  7  4  2 24  0.0000000  0  5G 3G16G20G17G23
  20494935.359    -1375244.786 7  -1071618.61922        25.000           2.156
  22804643.352     2770765.472 6   2159036.25021        17.500           1.406
  23624362.195     4293628.203 5   3345679.89221        11.250           0.563
  20717561.328    -2193466.099 7  -1709192.60923        24.500           3.469
  23574856.672    -4064755.816 5  -2982200.31621        11.250           0.500
 91  7  4  2 24 15.0000000  0  5G 3G16G20G17G23
  20492554.563    -1387765.525 7  -1081375.03722        25.750           2.313
  22811225.984     2805362.482 6   2185994.94321        16.500           1.344
  23633726.500     4342848.133 5   3384033.02221        11.250           0.563
  20713419.047    -2215231.143 7  -1726152.37124        24.500           3.500
  23563783.156    -4122950.100 5  -3027546.43221        11.250           0.500
 91  7  4  2 24 30.0000000  0  5G 3G16G20G17G23
  20490185.375    -1400214.306 7  -1091075.38922        25.250           2.344
  22817823.469     2840027.950 6   2213006.97121        16.000           1.250
  23643098.461     4392079.462 5   3422395.04621        11.750           0.469
  20709290.633    -2236931.892 7  -1743062.03423        24.750           3.438
  23552711.008    -4181116.575 5  -3072870.89221        11.500           0.438
 91  7  4  2 24 45.0000000  0  5G 3G16G20G17G23
  20487827.617    -1412593.727 7  -1100721.68122        24.750           2.406
  22824433.789     2874758.707 6   2240069.88021        17.000           1.406
  23652470.344     4441319.026 5   3460763.46821        11.250           0.500
  20705172.383    -2258571.192 7  -1759923.82424        25.250           3.594
  23541647.953    -4239257.677 5  -3118175.58221        11.250           0.438
 91  7  4  2 25  0.0000000  0  5G 3G16G20G17G23
  20485487.242    -1424901.936 7  -1110312.49022        25.750           2.281
  22831050.969     2909555.934 6   2267184.59421        16.000           1.438
  23661833.117     4490568.044 5   3499139.27821        10.000           0.469
  20701065.750    -2280147.306 7  -1776736.36524        24.750           3.531
  23530586.820    -4297371.820 5  -3163459.25721        11.750           0.563
 91  7  4  2 25 15.0000000  0  5G 3G16G20G17G23
  20483157.844    -1437136.126 7  -1119845.61922        25.000           2.313
  22837688.469     2944422.278 6   2294353.13621        17.000           1.406
  23671213.172     4539829.198 5   3537524.53621        10.500           0.469
  20696973.125    -2301657.449 7  -1793497.50824        25.000           3.531
  23519537.016    -4355455.815 6  -3208719.45621        12.250           0.594
 91  7  4  2 25 30.0000000  0  5G 3G16G20G17G23
  20480845.172    -1449297.992 7  -1129322.39422        24.250           2.406
  22844334.055     2979355.475 6   2321573.79021        17.000           1.375
  23680590.969     4589099.944 5   3575917.25621        10.000           0.500
  20692892.859    -2323103.744 7  -1810208.89524        25.250           3.531
  23508487.344    -4413511.271 6  -3253957.39421        12.000           0.469
 91  7  4  2 25 45.0000000  0  5G 3G16G20G17G23
  20478542.594    -1461389.215 7  -1138744.11622        24.500           2.375
  22850998.680     3014353.333 6   2348844.84821        17.250           1.469
  23689966.570     4638378.190 5   3614315.82721         9.750           0.375
  20688822.195    -2344488.135 7  -1826872.03923        24.750           3.469
  23497444.750    -4471539.891 5  -3299174.43621        11.750           0.531
 91  7  4  2 26  0.0000000  0  5G 3G16G20G17G23
  20476254.578    -1473409.264 7  -1148110.39122        24.500           2.375
  22857666.492     3049415.850 6   2376166.26421        16.500           1.344
  23699345.422     4687663.931 5   3652720.24021         9.500           0.531
  20684764.578    -2365810.415 7  -1843486.79023        24.750           3.375
  23486406.406    -4529541.054 6  -3344370.06921        12.250           0.531
 91  7  4  2 26 15.0000000  0  5G 3G16G20G17G23
  20473982.313    -1485356.634 7  -1157420.02322        25.250           2.438
  22864354.953     3084543.799 6   2403538.66121        17.500           1.375
  23708727.086     4736957.745 5   3691130.93921         9.000           0.500
  20680720.344    -2387069.037 7  -1860051.93923        25.000           3.375
  23475371.633    -4587513.360 5  -3389543.22321        11.250           0.500
 91  7  4  2 26 30.0000000  0  5G 3G16G20G17G23
  20471721.805    -1497230.756 7  -1166672.58523        25.500           2.531
  22871049.609     3119737.544 6   2430962.33821        17.500           1.250
  23718109.922     4786259.911 5   3729548.15021         8.750           0.469
  20676686.844    -2408263.541 7  -1876567.13023        24.500           3.469
  23464346.414    -4645455.841 5  -3434693.14521        11.500           0.563
 91  7  4  2 26 45.0000000  0  5G 3G16G20G17G23
  20469475.453    -1509033.744 7  -1175869.71522        26.250           2.406
  22877759.383     3154994.035 6   2458434.92021        16.000           1.313
  23727489.445     4835567.624 5   3767969.66121         8.750           0.469
  20672664.984    -2429396.366 7  -1893034.26723        24.000           3.438
  23453328.469    -4703371.007 5  -3479821.77621        11.750           0.594
 91  7  4  2 27  0.0000000  0  5G 3G16G20G17G23
  20467242.672    -1520763.907 7  -1185010.10322        26.250           2.438
  22884480.328     3190314.659 6   2485957.43521        15.750           1.125
  23736875.359     4884882.001 5   3806396.38321         8.750           0.375
  20668656.930    -2450466.269 7  -1909452.36224        24.750           3.563
  23442311.906    -4761256.937 6  -3524927.62121        12.000           0.625
 91  7  4  2 27 15.0000000  0  5G 3G16G20G17G23
  20465025.500    -1532419.075 7  -1194092.05322        26.250           2.375
  22891214.992     3225700.993 6   2513531.17921        16.750           1.250
  23746262.211     4934204.889 5   3844829.75421         8.750           0.438
  20664658.844    -2471471.308 7  -1925819.91724        24.750           3.563
  23431302.039    -4819111.134 5  -3570008.76021        11.500           0.719
 91  7  4  2 27 30.0000000  0  5G 3G16G20G17G23
  20462820.734    -1544002.596 7  -1203118.16622        26.000           2.313
  22897959.914     3261149.241 6   2541153.16421        15.750           1.156
  23755648.797     4983532.335 5   3883266.65021         9.250           0.469
  20660673.906    -2492414.639 7  -1942139.38524        25.500           3.594
  23420296.711    -4876936.874 5  -3615067.70621        11.500           0.781
 91  7  4  2 27 45.0000000  0  5G 3G16G20G17G23
  20460630.953    -1555511.612 7  -1212086.22122        26.000           2.344
  22904717.523     3296661.760 6   2568825.21321        16.000           1.000
  23765037.359     5032866.463 5   3921708.76421         8.500           0.438
  20656700.086    -2513294.136 7  -1958409.11524        25.750           3.594
  23409299.570    -4934731.548 5  -3660102.44521        11.750           0.719
 91  7  4  2 28  0.0000000  0  5G 3G16G20G17G23
  20458455.391    -1566948.021 7  -1220997.70722        26.000           2.375
  22911488.961     3332236.363 6   2596545.67421        17.750           1.063
  23774423.164     5082205.157 5   3960154.43421         8.500           0.375
  20652739.383    -2534111.600 7  -1974630.50923        25.250           3.406
  23398310.398    -4992496.685 6  -3705114.17021        12.000           0.781
 91  7  4  2 28 15.0000000  0  5G 3G16G20G17G23
  20456293.195    -1578314.551 7  -1229854.73522        26.000           2.281
  22918267.164     3367869.474 6   2624311.74521        16.250           1.125
  23783815.984     5131544.755 5   3998600.80421         9.000           0.344
  20648788.305    -2554870.207 7  -1990806.03923        25.500           3.438
  23387318.766    -5050235.278 5  -3750105.20321        11.750           0.813
 91  7  4  2 28 30.0000000  0  5G 3G16G20G17G23
  20454145.625    -1589604.419 7  -1238652.02922        25.750           2.250
  22925061.188     3403567.884 6   2652128.66521        16.500           1.188
  23793191.539     5180891.970 5   4037053.11121         7.750           0.406
  20644851.445    -2575563.010 7  -2006930.29423        25.750           3.375
  23376336.836    -5107939.835 5  -3795069.72621        11.500           0.688
 91  7  4  2 28 45.0000000  0  5G 3G16G20G17G23
  20452009.930    -1600821.602 7  -1247392.69222        25.250           2.250
  22931864.961     3439326.832 6   2679992.74121        17.000           1.250
  23802584.531     5230241.983 5   4075507.62521         8.500           0.406
  20640922.344    -2596194.578 7  -2023006.83223        25.250           3.438
  23365365.188    -5165614.722 6  -3840011.14121        12.250           0.719
 91  7  4  2 29  0.0000000  0  5G 3G16G20G17G23
  20449889.234    -1611963.249 7  -1256074.48422        25.000           2.313
  22938681.289     3475148.649 6   2707905.82521        16.500           1.250
  23811982.172     5279596.988 5   4113966.03021         8.000           0.406
  20637010.891    -2616762.161 7  -2039033.51224        25.500           3.563
  23354393.445    -5223257.143 6  -3884927.24421        12.250           0.656
 91  7  4  2 29 15.0000000  0  5G 3G16G20G17G23
  20447782.281    -1623033.600 7  -1264700.73422        25.000           2.375
  22945511.547     3511028.647 6   2735864.22921        17.250           1.219
  23821380.289     5328952.340 5   4152424.67721         8.750           0.313
  20633109.133    -2637270.096 7  -2055013.71623        25.000           3.469
  23343429.570    -5280870.842 5  -3929820.97421        11.750           0.781
 91  7  4  2 29 30.0000000  0  5G 3G16G20G17G23
  20445687.852    -1634030.768 7  -1273269.95622        24.750           2.375
  22952348.625     3546967.952 6   2763868.87021        17.000           1.156
  23830768.367     5378309.257 5   4190884.55921         8.750           0.406
  20629218.766    -2657716.752 7  -2070946.17423        25.750           3.469
  23332474.422    -5338453.981 5  -3974690.88521        11.750           0.719
 91  7  4  2 29 45.0000000  0  5G 3G16G20G17G23
  20443611.664    -1644951.765 7  -1281779.81822        25.000           2.469
  22959198.844     3582969.231 6   2791921.77821        16.750           1.125
  23840164.070     5427670.343 5   4229347.66821         7.750           0.375
  20625340.961    -2678099.376 7  -2086828.72523        26.000           3.406
  23321519.758    -5396003.629 5  -4019534.69421        11.500           0.688
 91  7  4  2 30  0.0000000  0  5G 3G16G20G17G23
  20441547.430    -1655798.078 7  -1290231.48922        24.750           2.469
  22966060.930     3619030.322 6   2820021.29621        16.000           1.094
  23849559.141     5477033.418 5   4267812.34221         8.500           0.531
  20621473.258    -2698419.843 7  -2102662.84823        26.250           3.469
  23310575.820    -5453521.221 6  -4064353.53321        12.250           0.781
 91  7  4  2 30 15.0000000  0  5G 3G16G20G17G23
  20439498.688    -1666569.146 7  -1298624.52922        25.500           2.469
  22972935.398     3655151.421 6   2848167.59321        15.750           1.125
  23858953.156     5526398.463 5   4306278.53321         8.750           0.438
  20617616.352    -2718677.810 7  -2118448.27723        25.500           3.438
  23299641.500    -5511006.250 6  -4109146.99421        12.750           0.813
 91  7  4  2 30 30.0000000  0  5G 3G16G20G17G23
  20437463.523    -1677263.290 7  -1306957.62322        25.750           2.469
  22979817.141     3691333.870 6   2876361.68021        15.500           1.063
  23868351.734     5575766.580 5   4344747.13721         8.750           0.406
  20613773.891    -2738871.467 7  -2134183.59123        25.250           3.375
  23288707.883    -5568456.847 6  -4153913.62521        13.000           0.813
 91  7  4  2 30 45.0000000  0  5G 3G16G20G17G23
  20435444.250    -1687878.899 7  -1315229.52322        26.000           2.469
  22986718.859     3727578.315 6   2904604.10721        17.000           1.000
  23877736.227     5625138.994 5   4383219.07521         7.750           0.375
  20609944.359    -2758999.638 7  -2149867.87124        25.750           3.656
  23277781.031    -5625871.419 6  -4198652.18621        12.250           0.750
 91  7  4  2 31  0.0000000  0  5G 3G16G20G17G23
  20433436.523    -1698417.978 7  -1323441.78323        25.750           2.531
  22993623.195     3763882.679 6   2932893.18021        15.250           1.250
  23887140.438     5674513.255 5   4421692.45621         8.750           0.344
  20606127.953    -2779064.648 7  -2165502.93324        26.000           3.500
  23266865.133    -5683251.615 6  -4243363.96221        13.500           0.781
 91  7  4  2 31 15.0000000  0  5G 3G16G20G17G23
  20431446.211    -1708879.750 7  -1331593.81122        25.250           2.375
  23000543.664     3800246.889 6   2961228.89021        15.750           1.250
  23896536.109     5723889.200 5   4460167.12521         9.250           0.313
  20602320.805    -2799065.806 7  -2181088.24024        26.500           3.531
  23255947.227    -5740596.833 6  -4288048.48221        13.000           0.688
 91  7  4  2 31 30.0000000  0  5G 3G16G20G17G23
  20429469.289    -1719266.496 7  -1339687.37122        24.750           2.406
  23007477.047     3836668.143 6   2989609.06221        16.500           1.063
  23905927.906     5773264.065 5   4498640.99021         8.000           0.438
  20598525.805    -2819005.689 7  -2196625.79924        26.250           3.500
  23245042.422    -5797909.422 6  -4332707.58221        13.250           0.688
 91  7  4  2 31 45.0000000  0  5G 3G16G20G17G23
  20427509.977    -1729574.830 7  -1347719.83122        25.000           2.313
  23014418.563     3873149.728 6   3018036.26621        16.500           1.219
  23915327.539     5822640.991 5   4537116.44721         8.000           0.344
  20594743.781    -2838880.986 7  -2212113.03423        26.500           3.344
  23234141.805    -5855185.483 6  -4377338.21521        13.250           0.656
 91  7  4  2 32  0.0000000  0  5G 3G16G20G17G23
  20425561.531    -1739805.327 7  -1355691.65622        25.000           2.250
  23021371.469     3909690.174 6   3046509.31221        17.000           1.188
  23924719.383     5872018.526 5   4575592.37221         8.000           0.344
  20590973.766    -2858692.496 7  -2227550.57323        26.250           3.281
  23223255.203    -5912425.832 6  -4421941.02721        13.250           0.688
 91  7  4  2 32 15.0000000  0  5G 3G16G20G17G23
  20423628.766    -1749959.686 7  -1363604.13622        24.750           2.438
  23028339.703     3946287.447 6   3075026.64621        17.500           1.125
  23934117.867     5921394.685 5   4614067.23021         8.500           0.469
  20587214.875    -2878442.220 7  -2242939.95423        25.750           3.406
  23212369.422    -5969631.807 6  -4466517.04221        13.500           0.656
 91  7  4  2 32 30.0000000  0  5G 3G16G20G17G23
  20421711.586    -1760035.610 7  -1371455.49722        25.000           2.438
  23035312.969     3982943.487 6   3103589.78221        16.000           1.125
  23943513.164     5970771.102 5   4652542.30621         9.000           0.344
  20583468.797    -2898127.953 7  -2258279.47223        25.250           3.406
  23201488.328    -6026801.200 6  -4511064.56121        13.750           0.750
 91  7  4  2 32 45.0000000  0  5G 3G16G20G17G23
  20419809.586    -1770033.575 7  -1379246.12022        25.000           2.344
  23042300.094     4019657.140 6   3132197.79021        15.500           1.156
  23952912.953     6020146.946 5   4691016.91221         9.500           0.313
  20579735.055    -2917750.413 7  -2273569.69823        25.500           3.375
  23190614.156    -6083934.438 6  -4555583.90121        13.250           0.531
 91  7  4  2 33  0.0000000  0  5G 3G16G20G17G23
  20417924.281    -1779951.795 7  -1386974.60222        25.500           2.406
  23049298.930     4056429.706 6   3160851.70521        16.500           1.250
  23962298.094     6069523.226 5   4729491.85821         8.500           0.375
  20576014.719    -2937308.354 7  -2288809.64723        25.000           3.375
  23179749.141    -6141029.876 6  -4600073.79221        13.000           0.719
 91  7  4  2 33 15.0000000  0  5G 3G16G20G17G23
  20416048.578    -1789793.005 7  -1394643.07922        25.250           2.375
  23056304.164     4093257.900 6   3189548.97321        15.250           1.188
  23971696.688     6118896.755 5   4767964.67421         8.750           0.469
  20572304.047    -2956804.377 7  -2304001.34423        25.250           3.375
  23168891.328    -6198089.919 6  -4644536.09421        13.000           0.625
 91  7  4  2 33 30.0000000  0  5G 3G16G20G17G23
  20414192.914    -1799551.764 7  -1402247.30322        25.500           2.219
  23063325.352     4130146.684 6   3218293.44821        15.250           1.188
  23981097.867     6168272.541 5   4806439.24321         9.500           0.469
  20568604.164    -2976233.376 7  -2319140.80723        25.000           3.469
  23158039.055    -6255109.135 6  -4688966.59421        12.500           0.625
 91  7  4  2 33 45.0000000  0  5G 3G16G20G17G23
  20412350.633    -1809232.584 7  -1409790.80022        25.500           2.313
  23070359.031     4167091.111 6   3247081.30321        15.750           1.094
  23990498.016     6217645.823 5   4844911.85221        10.000           0.375
  20564919.617    -2995599.790 7  -2334231.50723        25.000           3.250
  23147196.938    -6312091.704 6  -4733368.51621        12.500           0.594
 91  7  4  2 34  0.0000000  0  5G 3G16G20G17G23
  20410523.336    -1818836.474 7  -1417274.34722        26.000           2.344
  23077396.695     4204089.463 6   3275911.16021        14.500           1.188
  23999892.039     6267014.368 5   4883380.77921        10.000           0.375
  20561248.266    -3014905.297 7  -2349274.74923        25.500           3.250
  23136359.656    -6369038.995 6  -4777742.96121        12.250           0.625
 91  7  4  2 34 15.0000000  0  5G 3G16G20G17G23
  20408709.898    -1828360.865 7  -1424695.95022        25.250           2.313
  23084448.984     4241143.964 6   3304784.76721        14.750           1.125
  24009285.242     6316380.476 5   4921847.81221        10.000           0.313
  20557585.555    -3034147.556 7  -2364268.70823        25.500           3.281
  23125527.641    -6425948.337 6  -4822087.83921        12.250           0.594
 91  7  4  2 34 30.0000000  0  5G 3G16G20G17G23
  20406911.906    -1837808.832 7  -1432057.99622        25.000           2.250
  23091508.227     4278251.192 6   3333699.46621        14.750           0.969
  24018674.945     6365740.590 5   4960310.17821         9.500           0.438
  20553933.891    -3053329.645 7  -2379215.77723        25.500           3.281
  23114706.984    -6482822.464 6  -4866405.27921        12.750           0.688
 91  7  4  2 34 45.0000000  0  5G 3G16G20G17G23
  20405129.414    -1847180.224 7  -1439360.37822        25.750           2.281
  23098580.313     4315410.804 6   3362655.00321        14.750           1.000
  24028069.055     6415094.485 5   4998767.67621         9.250           0.344
  20550295.641    -3072451.444 7  -2394115.87223        25.000           3.375
  23103890.633    -6539660.991 6  -4910694.97721        12.750           0.531
 91  7  4  2 35  0.0000000  0  5G 3G16G20G17G23
  20403362.109    -1856468.860 7  -1446598.27422        25.750           2.188
  23105665.852     4352628.191 6   3391655.55221        16.000           1.031
  24037458.219     6464447.460 5   5037224.49021         9.500           0.344
  20546670.438    -3091507.307 7  -2408964.58423        24.750           3.406
  23093086.359    -6596458.077 6  -4954952.38721        13.000           0.594
 91  7  4  2 35 15.0000000  0  5G 3G16G20G17G23
  20401611.000    -1865673.096 7  -1453770.40222        26.000           2.219
  23112756.906     4389904.522 6   3420702.02821        15.000           1.063
  24046851.555     6513800.541 5   5075681.37221         9.250           0.313
  20543055.930    -3110495.674 7  -2423760.70523        25.000           3.406
  23082287.469    -6653211.965 6  -4999176.12521        13.250           0.625
 91  7  4  2 35 30.0000000  0  5G 3G16G20G17G23
  20399873.961    -1874796.593 7  -1460879.62522        26.250           2.188
  23119858.141     4427235.733 6   3449791.25621        14.000           0.906
  24056241.883     6563149.781 5   5114135.24621         9.250           0.375
  20539456.984    -3129420.283 7  -2438507.15123        25.500           3.375
  23071488.203    -6709926.042 6  -5043368.83921        12.500           0.688
 91  7  4  2 35 45.0000000  0  5G 3G16G20G17G23
  20398152.844    -1883841.941 7  -1467927.94122        26.250           2.188
  23126974.414     4464618.654 6   3478920.79721        14.750           1.000
  24065630.195     6612492.043 5   5152583.68721         9.500           0.313
  20535864.430    -3148284.180 7  -2453206.27823        24.500           3.344
  23060703.172    -6766603.027 6  -5087532.66621        12.750           0.625
 91  7  4  2 36  0.0000000  0  5G 3G16G20G17G23
  20396447.734    -1892807.128 7  -1474913.79522        26.500           2.281
  23134095.484     4502054.915 6   3508091.88121        14.000           0.969
  24075022.195     6661828.680 5   5191027.74521        10.000           0.313
  20532288.719    -3167085.547 7  -2467856.68023        25.000           3.344
  23049926.422    -6823240.883 6  -5131665.98421        12.500           0.719
 91  7  4  2 36 15.0000000  0  5G 3G16G20G17G23
  20394755.266    -1901689.550 7  -1481835.15422        25.750           2.219
  23141229.375     4539546.569 6   3537306.13621        13.750           0.875
  24084409.266     6711161.866 5   5229469.12521         9.500           0.375
  20528723.430    -3185821.879 7  -2482456.40123        24.750           3.313
  23039155.523    -6879836.774 6  -5175766.62721        12.750           0.750
 91  7  4  2 36 30.0000000  0  5G 3G16G20G17G23
  20393082.633    -1910489.759 7  -1488692.45422        26.500           2.281
  23148377.109     4577092.467 6   3566562.67021        14.500           0.938
  24093795.102     6760490.492 5   5267906.94421         9.500           0.406
  20525166.633    -3204494.195 7  -2497006.24423        24.250           3.281
  23028393.328    -6936391.174 6  -5219834.92821        12.500           0.688
 91  7  4  2 36 45.0000000  0  5G 3G16G20G17G23
  20391423.773    -1919208.197 7  -1495486.03122        26.500           2.313
  23155530.391     4614691.702 6   3595860.76121        14.500           0.906
  24103181.508     6809813.520 5   5306340.38521         9.500           0.313
  20521628.391    -3223103.002 7  -2511506.60623        24.250           3.250
  23017636.305    -6992904.440 6  -5263871.16721        12.750           0.781
 91  7  4  2 37  0.0000000  0  5G 3G16G20G17G23
  20389778.813    -1927842.907 7  -1502214.37622        25.000           2.281
  23162694.883     4652345.640 6   3625201.49621        13.500           0.906
  24112564.641     6859132.389 5   5344770.60021         9.000           0.344
  20518101.523    -3241646.678 7  -2525956.21523        25.750           3.281
  23006896.781    -7049374.742 6  -5307873.94321        13.750           0.781
 91  7  4  2 37 15.0000000  0  5G 3G16G20G17G23
  20388152.391    -1936392.737 7  -1508876.57222        25.000           2.281
  23169873.602     4690055.231 6   3654585.57921        14.250           0.969
  24121945.734     6908447.855 5   5383198.16221         8.750           0.313
  20514583.180    -3260123.940 7  -2540354.07023        25.000           3.313
  22996158.102    -7105800.592 6  -5351842.06921        13.750           0.656
 91  7  4  2 37 30.0000000  0  5G 3G16G20G17G23
  20386541.602    -1944858.732 7  -1515473.45122        25.250           2.219
  23177060.078     4727818.643 6   3684011.60821        14.500           0.844
  24131331.797     6957758.256 5   5421621.79921         8.500           0.313
  20511079.430    -3278536.201 7  -2554701.27123        25.000           3.344
  22985426.602    -7162183.063 6  -5395776.40821        14.000           0.719
 91  7  4  2 37 45.0000000  0  5G 3G16G20G17G23
  20384945.172    -1953240.872 7  -1522004.98822        24.750           2.344
  23184254.016     4765635.489 6   3713479.26221        13.750           0.719
  24140721.281     7007063.248 5   5460041.19521         9.000           0.313
  20507590.039    -3296883.635 7  -2568997.96323        25.500           3.313
  22974709.586    -7218522.076 6  -5439676.87621        14.750           0.719
 91  7  4  2 38  0.0000000  0  5G 3G16G20G17G23
  20383365.930    -1961541.746 7  -1528473.20622        25.000           2.281
  23191461.695     4803502.545 6   3742986.03721        14.750           0.781
  24150098.734     7056359.417 5   5498453.70621         8.250           0.313
  20504107.445    -3315169.238 7  -2583246.47223        24.500           3.344
  22963996.984    -7274820.179 6  -5483545.45221        15.000           0.844
 91  7  4  2 38 15.0000000  0  5G 3G16G20G17G23
  20381802.984    -1969758.199 7  -1534875.63322        25.500           2.313
  23198674.453     4841422.770 6   3772534.27421        13.500           0.813
  24159482.211     7105649.346 5   5536861.36521         9.000           0.375
  20500641.227    -3333390.075 7  -2597444.51523        24.750           3.406
  22953289.383    -7331074.037 6  -5527379.56121        14.250           0.781
 91  7  4  2 38 30.0000000  0  5G 3G16G20G17G23
  20380254.656    -1977893.185 7  -1541214.58122        25.250           2.313
  23205900.984     4879392.625 6   3802121.14421        13.750           0.750
  24168852.594     7154929.862 5   5575261.70521         8.000           0.406
  20497185.141    -3351549.073 7  -2611594.37424        25.250           3.500
  22942592.344    -7387286.595 6  -5571181.49521        14.750           0.781
 91  7  4  2 38 45.0000000  0  5G 3G16G20G17G23
  20378722.141    -1985944.431 7  -1547488.28122        25.250           2.313
  23213136.773     4917413.956 6   3831748.11921        14.500           0.781
  24178230.031     7204202.639 5   5613655.97821         7.750           0.281
  20493741.977    -3369644.251 7  -2625694.51223        25.000           3.375
  22931904.734    -7443455.668 6  -5614949.54421        14.750           0.906
 91  7  4  2 39  0.0000000  0  5G 3G16G20G17G23
  20377208.164    -1993910.928 7  -1553695.93922        25.000           2.281
  23220383.336     4955486.974 6   3861415.40921        13.500           0.844
  24187605.391     7253467.880 5   5652044.42121         8.250           0.375
  20490310.977    -3387674.749 7  -2639744.22423        25.750           3.375
  22921227.836    -7499580.027 6  -5658682.74621        15.000           1.000
 91  7  4  2 39 15.0000000  0  5G 3G16G20G17G23
  20375707.906    -2001792.722 7  -1559837.59822        25.000           2.438
  23227639.563     4993611.151 6   3891122.51621        14.250           0.750
  24196981.594     7302725.268 5   5690426.72021         7.750           0.281
  20486892.258    -3405640.976 7  -2653743.88623        25.750           3.469
  22910553.617    -7555659.524 6  -5702380.98721        14.500           0.875
 91  7  4  2 39 30.0000000  0  5G 3G16G20G17G23
  20374224.102    -2009587.186 7  -1565911.19822        24.750           2.344
  23234904.609     5031788.784 6   3920871.29721        14.750           0.688
  24206353.594     7351976.861 5   5728804.49321         7.750           0.281
  20483485.289    -3423540.509 7  -2667691.56124        25.500           3.500
  22899891.305    -7611691.802 6  -5746042.44621        15.000           0.906
 91  7  4  2 39 45.0000000  0  5G 3G16G20G17G23
  20372756.836    -2017296.370 7  -1571918.35522        25.250           2.344
  23242176.484     5070017.625 6   3950659.99121        13.250           0.688
  24215716.594     7401220.190 4   5767175.82621         7.000           0.406
  20480094.234    -3441375.631 7  -2681589.04223        26.250           3.406
  22889240.633    -7667678.519 6  -5789668.40221        15.250           0.875
 91  7  4  2 40  0.0000000  0  5G 3G16G20G17G23
  20371307.852    -2024918.795 7  -1577857.90922        26.000           2.313
  23249460.977     5108298.171 6   3980488.95321        14.250           0.656
  24225085.836     7450455.936 4   5805541.28421         7.250           0.313
  20476709.891    -3459144.935 7  -2695435.24123        25.750           3.375
  22878591.484    -7723618.383 6  -5833257.84121        14.500           0.906
 91  7  4  2 40 15.0000000  0  5G 3G16G20G17G23
  20369872.266    -2032455.926 7  -1583730.99822        25.750           2.344
  23256749.898     5146628.579 6   4010356.79721        12.250           0.656
  24234454.875     7499682.149 5   5843899.27021         7.500           0.313
  20473340.180    -3476850.120 7  -2709231.47623        25.750           3.313
  22867956.617    -7779512.761 6  -5876811.85021        15.000           0.875
 91  7  4  2 40 30.0000000  0  5G 3G16G20G17G23
  20368454.094    -2039906.858 7  -1589536.91322        25.750           2.313
  23264058.422     5185009.554 6   4040264.03921        12.750           0.625
  24243824.984     7548899.428 4   5882250.35421         7.000           0.406
  20469984.922    -3494490.177 7  -2722976.96823        26.250           3.281
  22857327.281    -7835360.412 6  -5920329.44621        14.250           0.938
 91  7  4  2 40 45.0000000  0  5G 3G16G20G17G23
  20367054.383    -2047271.816 7  -1595275.83722        25.750           2.438
  23271371.633     5223440.227 6   4070209.98621        13.250           0.750
  24253189.539     7598106.954 4   5920593.77721         7.250           0.281
  20466639.883    -3512065.986 7  -2736672.39523        25.500           3.375
  22846706.891    -7891161.640 6  -5963810.86321        14.000           0.969
 91  7  4  2 41  0.0000000  0  5G 3G16G20G17G23
  20365667.648    -2054550.373 7  -1600947.43822        25.750           2.344
  23278691.000     5261920.482 6   4100194.57521        13.000           0.781
  24262545.484     7647304.442 4   5958929.40721         7.000           0.250
  20463307.234    -3529577.467 7  -2750317.68923        25.000           3.438
  22836097.727    -7946916.018 6  -6007255.78021        14.000           0.906
 91  7  4  2 41 15.0000000  0  5G 3G16G20G17G23
  20364298.828    -2061738.949 7  -1606548.92522        25.250           2.375
  23286027.180     5300453.641 6   4130220.38021        13.250           0.750
  24271910.945     7696495.190 5   5997259.79221         7.500           0.219
  20459989.563    -3547020.925 7  -2763909.98524        25.750           3.500
  22825497.977    -8002619.578 6  -6050661.10021        13.750           0.906
 91  7  4  2 41 30.0000000  0  5G 3G16G20G17G23
  20362947.617    -2068839.137 7  -1612081.53322        24.750           2.344
  23293368.516     5339037.060 6   4160285.38321        13.250           0.750
  24281272.813     7745676.859 4   6035583.09221         6.750           0.219
  20456680.227    -3564398.448 7  -2777450.90424        25.750           3.625
  22814901.391    -8058274.053 6  -6094028.17521        13.500           0.938
 91  7  4  2 41 45.0000000  0  5G 3G16G20G17G23
  20361613.039    -2075856.338 7  -1617549.47622        25.250           2.344
  23300719.906     5377665.111 6   4190385.14021        13.250           0.656
  24290624.336     7794843.660 4   6073894.80321         7.000           0.156
  20453386.789    -3581715.473 7  -2790944.68524        26.250           3.500
  22804323.703    -8113885.013 6  -6137361.35221        13.750           1.000
 91  7  4  2 42  0.0000000  0  5G 3G16G20G17G23
  20360292.641    -2082789.418 7  -1622951.87622        24.500           2.250
  23308080.117     5416338.309 6   4220520.05221        14.000           0.906
  24299978.828     7843996.147 5   6112195.37521         7.500           0.281
  20450103.148    -3598971.010 7  -2804390.55124        26.500           3.531
  22793751.961    -8169451.141 6  -6180659.56721        14.000           0.938
 91  7  4  2 42 15.0000000  0  4G 3G16G17G23
  20358991.336    -2089633.768 7  -1628285.14422        24.500           2.406
  23315449.727     5455061.089 6   4250693.63821        13.250           0.688
  20446831.672    -3616160.600 7  -2817785.03424        26.750           3.625
  22783182.711    -8224967.666 6  -6223919.14921        13.500           1.000
 91  7  4  2 42 30.0000000  0  4G 3G16G17G23
  20357706.195    -2096388.766 7  -1633548.77022        24.500           2.344
  23322825.984     5493833.417 6   4280905.84321        13.250           0.594
  20443574.641    -3633284.016 7  -2831127.94024        26.500           3.625
  22772632.148    -8280433.942 6  -6267139.57021        13.750           1.156
 91  7  4  2 42 45.0000000  0  4G 3G16G17G23
  20356436.172    -2103053.610 7  -1638742.15822        24.750           2.469
  23330209.773     5532655.538 6   4311156.84921        12.000           0.688
  20440326.609    -3650340.428 7  -2844418.63924        25.750           3.719
  22762084.750    -8335849.072 6  -6310320.12921        14.000           1.156
 91  7  4  2 43  0.0000000  0  4G 3G16G17G23
  20355186.547    -2109632.410 7  -1643868.49922        25.250           2.344
  23337608.461     5571522.862 6   4341443.05621        12.250           0.688
  20437094.797    -3667334.248 7  -2857660.57024        26.500           3.563
  22751552.273    -8391217.207 6  -6353464.08621        14.500           1.219
 91  7  4  2 43 15.0000000  0  4G 3G16G17G23
  20353951.945    -2116122.344 7  -1648925.59222        26.250           2.344
  23345015.523     5610438.015 5   4371766.55121        11.500           0.563
  20433871.563    -3684262.907 7  -2870851.71924        26.000           3.563
  22741026.695    -8446535.048 6  -6396568.84021        14.250           1.156
 91  7  4  2 43 30.0000000  0  4G 3G16G17G23
  20352732.555    -2122522.846 7  -1653913.00022        26.000           2.250
  23352428.938     5649400.702 5   4402127.05521        11.750           0.750
  20430662.195    -3701126.505 7  -2883992.18324        25.250           3.563
  22730502.609    -8501802.475 6  -6439634.32121        14.000           1.125
 91  7  4  2 43 45.0000000  0  4G 3G16G17G23
  20351531.000    -2128836.361 7  -1658832.62322        25.250           2.344
  23359855.727     5688408.189 6   4432522.45321        14.000           0.688
  20427466.695    -3717926.921 7  -2897083.40923        25.500           3.438
  22720000.250    -8557021.440 6  -6482662.04021        14.250           1.250
 91  7  4  2 44  0.0000000  0  4G 3G16G17G23
  20350348.016    -2135059.362 7  -1663681.70722        25.500           2.250
  23367287.047     5727463.313 6   4462955.01921        13.000           0.750
  20424282.516    -3734661.244 7  -2910123.13523        26.250           3.406
  22709502.750    -8612188.522 6  -6525649.32121        14.250           1.250
 91  7  4  2 44 15.0000000  0  4G 3G16G17G23
  20349179.242    -2141192.650 7  -1668460.89522        25.250           2.313
  23374726.734     5766565.106 6   4493423.93421        13.000           0.813
  20421110.211    -3751330.351 7  -2923112.04224        26.250           3.531
  22699010.039    -8667304.354 6  -6568596.67421        14.000           1.125
 91  7  4  2 44 30.0000000  0  4G 3G16G17G23
  20348030.695    -2147235.009 7  -1673169.21222        25.750           2.313
  23382173.211     5805714.327 6   4523929.80621        12.750           0.813
  20417949.539    -3767933.192 7  -2936049.31424        25.750           3.500
  22688538.844    -8722367.708 6  -6611503.14721        14.750           1.250
 91  7  4  2 44 45.0000000  0  4G 3G16G17G23
  20346896.828    -2153188.116 7  -1677808.01822        25.000           2.375
  23389633.805     5844908.728 6   4554470.88621        12.500           0.813
  20414802.930    -3784471.704 7  -2948936.45024        26.250           3.531
  22678065.484    -8777380.404 6  -6654370.12521        14.750           1.188
 91  7  4  2 45  0.0000000  0  4G 3G16G17G23
  20345782.281    -2159050.427 7  -1682376.05222        25.250           2.313
  23397098.969     5884149.180 6   4585047.86021        12.250           0.750
  20411668.172    -3800944.778 7  -2961772.60124        26.250           3.531
  22667611.086    -8832340.706 6  -6697196.28021        15.250           1.156
 91  7  4  2 45 15.0000000  0  4G 3G16G17G23
  20344683.883    -2164821.530 7  -1686873.00822        25.000           2.188
  23404576.266     5923435.836 6   4615660.82021        12.750           0.719
  20408547.164    -3817351.805 7  -2974557.29524        26.000           3.594
  22657158.617    -8887247.798 6  -6739980.97921        15.250           1.094
 91  7  4  2 45 30.0000000  0  4G 3G16G17G23
  20343602.141    -2170502.108 7  -1691299.43422        25.000           2.344
  23412061.063     5962767.595 6   4646308.93821        12.000           0.813
  20405436.234    -3833694.122 7  -2987291.55723        25.250           3.438
  22646719.125    -8942102.457 6  -6782724.82821        15.500           1.125
 91  7  4  2 45 45.0000000  0  4G 3G16G17G23
  20342538.688    -2176094.697 7  -1695657.29722        25.500           2.375
  23419554.055     6002140.975 6   4676989.46821        13.250           0.813
  20402338.766    -3849974.294 7  -2999977.40624        24.500           3.531
  22636294.070    -8996907.489 6  -6825430.00421        16.000           1.125
 91  7  4  2 46  0.0000000  0  4G 3G16G17G23
  20341491.383    -2181598.568 7  -1699946.02222        25.250           2.406
  23427052.500     6041556.548 6   4707702.89021        12.500           0.813
  20399250.430    -3866191.471 7  -3012614.15824        23.750           3.594
  22625871.719    -9051661.939 6  -6868095.76421        16.000           1.156
 91  7  4  2 46 15.0000000  0  4G 3G16G17G23
  20340461.305    -2187010.787 7  -1704163.33922        24.750           2.313
  23434565.531     6081016.914 6   4738451.24621        13.250           0.656
  20396177.016    -3882342.898 7  -3025199.69024        23.750           3.594
  22615466.109    -9106362.525 6  -6910719.55921        16.250           1.125
 91  7  4  2 46 30.0000000  0  4G 3G16G17G23
  20339448.086    -2192329.622 7  -1708307.88622        24.500           2.344
  23442084.273     6120522.789 6   4769235.03821        12.750           0.781
  20393118.797    -3898427.594 7  -3037733.21424        25.000           3.656
  22605064.328    -9161007.911 6  -6953300.33721        15.750           1.125
 91  7  4  2 46 45.0000000  0  4G 3G16G17G23
  20338453.914    -2197554.903 7  -1712379.53422        24.500           2.344
  23449604.383     6160074.194 6   4800054.27321        12.250           0.781
  20390068.906    -3914445.492 7  -3050214.68024        25.000           3.688
  22594676.555    -9215597.528 6  -6995837.65021        15.750           1.125
 91  7  4  2 47  0.0000000  0  4G 3G16G17G23
  20337477.375    -2202687.299 7  -1716378.80322        24.500           2.406
  23457142.453     6199670.033 6   4830908.16721        12.500           0.781
  20387034.891    -3930397.098 7  -3062644.50124        25.750           3.656
  22584296.313    -9270132.090 6  -7038332.07621        15.250           1.156
 91  7  4  2 47 15.0000000  0  4G 3G16G17G23
  20336518.438    -2207725.288 7  -1720304.50222        24.500           2.375
  23464685.445     6239311.464 6   4861797.56921        12.750           0.750
  20384012.055    -3946281.203 7  -3075021.72024        26.000           3.531
  22573929.695    -9324609.679 6  -7080782.09921        14.750           1.125
 91  7  4  2 47 30.0000000  0  4G 3G16G17G23
  20335577.875    -2212672.665 7  -1724159.60222        25.000           2.250
  23472236.484     6278994.024 5   4892719.05121        11.500           0.656
  20381001.969    -3962101.839 7  -3087349.48124        26.000           3.656
  22563577.078    -9379034.305 6  -7123190.86221        15.000           1.156
 91  7  4  2 47 45.0000000  0  4G 3G16G17G23
  20334654.023    -2217526.074 7  -1727941.48922        25.000           2.281
  23479794.648     6318720.572 6   4923674.76221        12.750           0.719
  20378003.578    -3977856.084 7  -3099625.51124        25.750           3.625
  22553227.844    -9433402.715 6  -7165555.80821        14.750           1.094
 91  7  4  2 48  0.0000000  0  4G 3G16G17G23
  20333750.234    -2222284.124 7  -1731649.05622        25.250           2.281
  23487366.875     6358491.990 6   4954665.48521        13.500           0.563
  20375017.742    -3993542.334 7  -3111848.55324        25.500           3.531
  22542892.906    -9487713.143 6  -7207875.59021        14.500           1.063
 91  7  4  2 48 15.0000000  0  4G 3G16G17G23
  20332861.648    -2226946.685 7  -1735282.21522        25.250           2.250
  23494944.953     6398307.804 6   4985690.79921        13.500           0.656
  20372044.633    -4009161.063 7  -3124018.98724        25.000           3.625
  22532568.734    -9541965.755 6  -7250150.31421        15.250           1.031
 91  7  4  2 48 30.0000000  0  4G 3G16G17G23
  20331993.047    -2231518.652 7  -1738844.79422        25.500           2.281
  23502529.063     6438162.927 6   5016746.70721        13.250           0.750
  20369084.703    -4024717.358 7  -3136140.76924        24.750           3.563
  22522257.547    -9596165.049 6  -7292383.49021        15.500           1.000
 91  7  4  2 48 44.9990000  0  4G 3G16G17G23
  20331139.690    -2235995.309 7  -1742333.09622        25.250           2.438
  23510119.128     6478058.823 6   5047834.40721        12.750           0.656
  20366138.440    -4040205.571 7  -3148209.50224        25.250           3.531
  22511956.026    -9650302.832 6  -7334568.73121        15.750           1.000
 91  7  4  2 48 59.9990000  0  4G 3G16G17G23
  20330305.245    -2240375.823 7  -1745746.48322        25.250           2.250
  23517716.433     6518001.425 5   5078958.50321        11.750           0.500
  20363204.487    -4055626.692 7  -3160225.95823        25.500           3.469
  22501663.886    -9704384.838 6  -7376710.51621        15.750           1.063
 91  7  4  2 49 14.9990000  0  4G 3G16G17G23
  20329490.456    -2244662.343 7  -1749086.63322        25.250           2.344
  23525331.448     6557985.536 6   5110114.96421        12.750           0.625
  20360281.792    -4070982.303 7  -3172191.36724        25.000           3.500
  22491381.417    -9758409.737 6  -7418807.80421        15.750           1.094
 91  7  4  2 49 29.9990000  0  4G 3G16G17G23
  20328692.855    -2248854.456 7  -1752353.22022        25.250           2.344
  23532946.503     6598010.881 6   5141303.51721        12.500           0.625
  20357372.612    -4086272.433 7  -3184105.74723        25.500           3.438
  22481113.292    -9812377.494 6  -7460860.55321        16.000           1.031
 91  7  4  2 49 44.9990000  0  4G 3G16G17G23
  20327913.597    -2252951.192 7  -1755545.48322        25.500           2.344
  23540568.112     6638078.050 5   5172524.64421        11.750           0.594
  20354474.464    -4101496.009 7  -3195968.26723        25.000           3.438
  22470851.370    -9866286.759 6  -7502867.72921        16.000           1.063
 91  7  4  2 49 59.9990000  0  4G 3G16G17G23
  20327150.089    -2256952.874 7  -1758663.68222        24.500           2.250
  23548203.120     6678185.915 6   5203777.52821        12.750           0.594
  20351591.651    -4116654.059 7  -3207779.72423        24.750           3.344
  22460608.737    -9920138.055 6  -7544829.74021        17.000           1.000
 91  7  4  2 50 14.9990000  0  4G 3G16G17G23
  20326408.120    -2260857.519 7  -1761706.25822        24.750           2.219
  23555841.534     6718336.360 6   5235063.61621        12.250           0.719
  20348719.448    -4131744.216 7  -3219538.28723        25.000           3.438
  22450372.878    -9973928.895 6  -7586744.64221        17.500           1.094
 91  7  4  2 50 29.9990000  0  4G 3G16G17G23
  20325684.167    -2264667.173 7  -1764674.82422        25.250           2.156
  23563488.519     6758526.645 5   5266380.67821        11.750           0.688
  20345860.753    -4146768.968 7  -3231245.88323        24.750           3.469
  22440147.159   -10027661.515 6  -7628614.17321        17.500           1.063
 91  7  4  2 50 44.9990000  0  4G 3G16G17G23
  20324977.886    -2268378.002 7  -1767566.38222        24.750           2.188
  23571141.589     6798760.045 5   5297731.35121        11.250           0.688
  20343014.378    -4161724.568 7  -3242899.59723        25.500           3.406
  22429930.144   -10081331.982 6  -7670435.27921        16.750           1.063
 91  7  4  2 50 59.9990000  0  4G 3G16G17G23
  20324291.347    -2271990.138 7  -1770381.03622        25.000           2.219
  23578814.425     6839036.314 6   5329115.41821        13.000           0.719
  20340180.581    -4176611.372 7  -3254499.69424        25.000           3.625
  22419728.987   -10134940.359 6  -7712208.00621        16.750           1.188
 91  7  4  2 51 14.9990000  0  4G 3G16G17G23
  20323621.519    -2275505.488 7  -1773120.27122        23.750           2.219
  23586481.612     6879352.992 6   5360531.00921        12.750           0.750
  20337361.136    -4191431.621 7  -3266047.93724        25.500           3.563
  22409541.987   -10188488.446 6  -7753933.75321        17.250           1.281
 91  7  4  2 51 29.9990000  0  4G 3G16G17G23
  20322970.933    -2278928.296 7  -1775787.39122        24.250           2.281
  23594160.542     6919705.320 6   5391974.36621        12.500           0.750
  20334553.480    -4206189.734 7  -3277547.75324        26.250           3.594
  22399358.972   -10241980.533 6  -7795615.85521        16.250           1.219
 91  7  4  2 51 44.9990000  0  4G 3G16G17G23
  20322337.276    -2282252.736 7  -1778377.87622        24.750           2.375
  23601848.933     6960098.582 6   5423449.60621        12.250           0.625
  20331758.011    -4220880.079 7  -3288994.77424        25.500           3.500
  22389194.644   -10295410.706 6  -7837249.72321        16.500           1.281
 91  7  4  2 51 59.9990000  0  4G 3G16G17G23
  20321722.980    -2285478.302 7  -1780891.30622        24.000           2.344
  23609542.065     7000532.832 6   5454956.79921        13.000           0.813
  20328972.589    -4235502.267 7  -3300388.68223        25.250           3.469
  22379038.901   -10348778.371 6  -7878834.87921        16.750           1.344
 91  7  4  2 52 14.9990000  0  4G 3G16G17G23
  20321127.409    -2288607.154 7  -1783329.37222        23.250           2.406
  23617244.386     7041005.488 6   5486493.91021        13.000           0.656
  20326203.683    -4250058.811 7  -3311731.44023        25.500           3.469
  22368892.972   -10402085.492 6  -7920372.86321        16.750           1.313
 91  7  4  2 52 29.9990000  0  4G 3G16G17G23
  20320550.300    -2291638.641 7  -1785691.56622        22.500           2.375
  23624956.034     7081516.672 6   5518061.01121        13.500           0.656
  20323445.003    -4264548.973 7  -3323022.47323        25.000           3.344
  22358759.409   -10455331.296 6  -7961863.05921        17.500           1.313
 91  7  4  2 52 44.9990000  0  4G 3G16G17G23
  20319992.386    -2294568.702 7  -1787974.73622        23.000           2.469
  23632669.503     7122070.248 6   5549661.20221        12.750           0.781
  20320701.644    -4278968.962 7  -3334258.82023        24.750           3.469
  22348647.058   -10508511.669 6  -8003302.27721        18.250           1.375
 91  7  4  2 52 59.9990000  0  4G 3G16G17G23
  20319454.636    -2297404.404 7  -1790184.36922        23.750           2.469
  23640395.308     7162658.433 6   5581288.31821        12.250           0.875
  20317970.558    -4293325.901 7  -3345446.03923        25.250           3.344
  22338534.386   -10561633.735 6  -8044696.05621        17.750           1.375
 91  7  4  2 53 14.9990000  0  4G 3G16G17G23
  20318933.120    -2300137.196 7  -1792313.82022        23.500           2.406
  23648123.433     7203289.497 6   5612948.86821        12.500           0.844
  20315252.878    -4307611.405 7  -3356577.59323        25.250           3.313
  22328439.862   -10614688.633 6  -8086037.50121        18.000           1.344
 91  7  4  2 53 29.9990000  0  4G 3G16G17G23
  20318432.284    -2302770.858 7  -1794366.03022        23.750           2.438
  23655863.237     7243959.053 5   5644639.42821        11.500           0.875
  20312546.394    -4321829.918 7  -3367656.94723        25.250           3.375
  22318353.300   -10667680.334 6  -8127329.69321        17.500           1.281
 91  7  4  2 53 44.9990000  0  4G 3G16G17G23
  20317950.573    -2305302.982 7  -1796339.11022        24.250           2.313
  23663611.097     7284669.114 5   5676361.52721        10.750           0.813
  20309854.081    -4335978.910 7  -3378682.12923        25.250           3.375
  22308282.487   -10720606.249 6  -8168570.62821        18.000           1.406
 91  7  4  2 53 59.9990000  0  4G 3G16G17G23
  20317488.855    -2307738.741 7  -1798237.10222        25.000           2.313
  23671368.823     7325414.009 5   5708110.75921        11.250           0.781
  20307172.659    -4350063.761 7  -3389657.33223        24.750           3.406
  22298226.355   -10773471.432 6  -8209764.23321        18.750           1.313
 91  7  4  2 54 14.9990000  0  4G 3G16G17G23
  20317044.081    -2310074.424 7  -1800057.11522        25.000           2.313
  23679128.878     7366196.681 5   5739889.42821        11.000           0.750
  20304508.253    -4364081.013 7  -3400579.85623        25.750           3.469
  22288174.901   -10826272.184 6  -8250907.64021        17.500           1.313
 91  7  4  2 54 29.9990000  0  4G 3G16G17G23
  20316618.472    -2312309.101 7  -1801798.42222        24.750           2.281
  23686890.964     7407017.980 5   5771698.19821        11.000           0.813
  20301852.409    -4378029.993 7  -3411449.17523        26.000           3.469
  22278137.409   -10879007.390 6  -8291999.97221        17.250           1.344
 91  7  4  2 54 44.9990000  0  4G 3G16G17G23
  20316213.190    -2314443.077 7  -1803461.26222        25.500           2.375
  23694670.901     7447877.394 5   5803536.68921        11.000           0.844
  20299211.659    -4391910.934 7  -3422265.49423        26.000           3.406
  22268117.026   -10931677.298 6  -8333041.42021        16.750           1.313
 91  7  4  2 54 59.9990000  0  4G 3G16G17G23
  20315824.847    -2316476.532 7  -1805045.77622        26.000           2.375
  23702448.386     7488774.268 5   5835404.36621         9.750           0.656
  20296584.144    -4405724.213 7  -3433029.08124        26.500           3.500
  22258107.315   -10984282.025 6  -8374032.07321        16.750           1.313
 91  7  4  2 55 14.9990000  0  4G 3G16G17G23
  20315457.761    -2318411.673 7  -1806553.68122        25.500           2.344
  23710237.980     7529705.603 5   5867298.87621        11.000           0.750
  20293966.901    -4419472.197 7  -3443741.79124        26.000           3.563
  22248104.003   -11036823.767 6  -8414973.65121        16.500           1.375
 91  7  4  2 55 29.9990000  0  4G 3G16G17G23
  20315106.355    -2320245.500 7  -1807982.64522        25.000           2.281
  23718040.245     7570673.827 5   5899222.16121        11.750           0.656
  20291363.690    -4433152.608 7  -3454401.84324        26.000           3.625
  22238118.065   -11089299.637 6  -8455863.91221        16.250           1.469
 91  7  4  2 55 44.9990000  0  4G 3G16G17G23
  20314779.151    -2321977.258 7  -1809332.06622        26.000           2.313
  23725837.800     7611679.839 5   5931174.86521        11.000           0.656
  20288773.464    -4446764.196 7  -3465008.27024        25.750           3.625
  22228146.198   -11141708.294 6  -8496701.79121        15.750           1.406
 91  7  4  2 55 59.9990000  0  4G 3G16G17G23
  20314465.800    -2323609.175 7  -1810603.69422        25.250           2.281
  23733648.261     7652720.430 5   5963154.51021        11.250           0.625
  20286195.198    -4460309.614 7  -3475563.13824        25.750           3.594
  22218182.675   -11194052.097 6  -8537489.12721        15.750           1.438
 91  7  4  2 56 14.9990000  0  4G 3G16G17G23
  20314177.800    -2325139.542 7  -1811796.18622        25.750           2.406
  23741466.175     7693796.677 5   5995161.92821        10.500           0.625
  20283630.573    -4473787.465 7  -3486065.35024        25.750           3.594
  22208236.636   -11246329.469 6  -8578224.70822        16.000           1.594
 91  7  4  2 56 29.9990000  0  4G 3G16G17G23
  20313902.081    -2326569.860 7  -1812910.72622        24.750           2.438
  23749288.784     7734907.353 5   6027196.22621        10.750           0.563
  20281079.230    -4487198.830 7  -3496515.75924        26.000           3.625
  22198299.269   -11298541.546 6  -8618909.40421        16.250           1.438
 91  7  4  2 56 44.9990000  0  4G 3G16G17G23
  20313650.073    -2327901.322 7  -1813948.23322        25.000           2.469
  23757117.636     7776050.129 5   6059255.53121        10.750           0.688
  20278538.190    -4500545.972 7  -3506916.12024        25.500           3.594
  22188378.972   -11350689.916 6  -8659544.46122        17.000           1.500
 91  7  4  2 56 59.9990000  0  4G 3G16G17G23
  20313417.019    -2329131.590 7  -1814906.88222        24.250           2.281
  23764951.589     7817227.148 5   6091341.48221         9.500           0.656
  20276010.698    -4513826.557 7  -3517264.62324        25.500           3.656
  22178471.565   -11402772.036 6  -8700127.89721        18.250           1.469
 91  7  4  2 57 14.9990000  0  4G 3G16G17G23
  20313201.745    -2330256.532 7  -1815783.46422        24.000           2.281
  23772798.253     7858442.796 5   6123457.53321        11.000           0.469
  20273497.612    -4527036.151 7  -3527557.80224        25.750           3.625
  22168574.011   -11454783.201 6  -8740656.03422        18.500           1.531
 91  7  4  2 57 29.9990000  0  4G 3G16G17G23
  20313009.503    -2331280.809 7  -1816581.60322        24.500           2.344
  23780647.722     7899691.642 5   6155599.54021        11.500           0.563
  20270995.308    -4540179.655 7  -3537799.48724        24.750           3.625
  22158690.190   -11506728.074 6  -8781132.51622        18.750           1.594
 91  7  4  2 57 44.9990000  0  4G 3G16G17G23
  20312833.026    -2332204.494 7  -1817301.35922        24.250           2.188
  23788505.956     7940972.411 5   6187766.39521        10.750           0.563
  20268507.081    -4553257.839 7  -3547990.27324        25.250           3.719
  22148817.003   -11558607.155 6  -8821557.73022        19.000           1.500
 91  7  4  2 57 59.9990000  0  4G 3G16G17G23
  20312677.284    -2333025.352 7  -1817940.98422        24.000           2.281
  23796369.480     7982287.427 5   6219959.88821        11.000           0.500
  20266031.511    -4566268.279 7  -3558128.27224        25.500           3.656
  22138956.948   -11610417.786 6  -8861929.61221        18.750           1.438
 91  7  4  2 58 14.9990000  0  4G 3G16G17G23
  20312540.011    -2333744.361 7  -1818501.25522        23.750           2.469
  23804233.987     8023635.228 5   6252178.96921        11.000           0.625
  20263569.933    -4579212.157 7  -3568214.40624        25.500           3.594
  22129113.901   -11662160.958 6  -8902248.92922        19.000           1.531
 91  7  4  2 58 29.9990000  0  4G 3G16G17G23
  20312423.362    -2334362.989 7  -1818983.30622        24.500           2.375
  23812105.417     8065014.091 5   6284422.21121        10.750           0.594
  20261119.464    -4592091.318 7  -3578250.11024        25.500           3.688
  22119275.011   -11713838.075 6  -8942516.77822        18.250           1.625
 91  7  4  2 58 44.9990000  0  4G 3G16G17G23
  20312322.503    -2334877.818 7  -1819384.47422        23.750           2.250
  23819986.581     8106426.496 5   6316691.59321        10.500           0.594
  20258679.651    -4604902.235 7  -3588232.63324        25.500           3.719
  22109453.659   -11765445.571 6  -8982730.38522        18.000           1.625
 91  7  4  2 58 59.9990000  0  4G 3G16G17G23
  20312246.269    -2335288.242 7  -1819704.29222        23.250           2.250
  23827875.089     8147873.075 5   6348987.65421        10.750           0.406
  20256255.175    -4617644.618 7  -3598161.76224        26.250           3.656
  22099646.058   -11816982.807 6  -9022889.23722        17.750           1.625
 91  7  4  2 59 14.9990000  0  4G 3G16G17G23
  20312183.323    -2335594.235 7  -1819942.72122        22.750           2.219
  23835769.519     8189353.052 5   6381309.70521        10.500           0.531
  20253843.144    -4630318.621 7  -3608037.59824        26.000           3.781
  22089852.690   -11868449.700 6  -9062993.27622        18.250           1.594
 91  7  4  2 59 29.9990000  0  4G 3G16G17G23
  20312147.855    -2335793.814 7  -1820098.23222        23.500           2.250
  23843670.378     8230868.173 5   6413659.10621        11.000           0.563
  20251445.511    -4642922.510 7  -3617858.80624        25.750           3.813
  22080071.034   -11919844.275 6  -9103040.96422        18.000           1.625
 91  7  4  2 59 44.9990000  0  4G 3G16G17G23
  20312131.565    -2335892.322 7                        23.250
  23851575.964     8272412.971 5   6446031.65421        11.000           0.375
  20249057.870    -4655461.322 7  -3627629.30624        25.250           3.781
  22070306.737   -11971171.408 6  -9143036.10822        19.000           1.719
 91  7  4  2 59 59.9990000  0  4G 3G16G17G23
  20312133.690    -2335883.095 7                        23.250
  23859487.769     8313993.532 5   6478432.06921        11.500           0.469
  20246686.964    -4667928.847 7  -3637344.24924        25.250           3.844
  22060555.659   -12022424.691 6  -9182973.69422        19.750           1.656
 91  7  4  3  0 14.9990000  0  4G 3G16G17G23
  20312153.526    -2335767.672 7                        23.000
  23867405.565     8355607.782 5   6510858.74821        11.750           0.406
  20244326.433    -4680326.977 7  -3647005.13024        24.750           3.750
  22050815.394   -12073605.688 7  -9222854.95422        20.000           1.750
 91  7  4  3  0 29.9990000  0  4G 3G16G17G23
  20312196.558    -2335545.046 7                        23.250
  23875330.433     8397256.508 5   6543312.26321        10.750           0.531
  20241982.128    -4692654.599 7  -3656611.06324        25.250           3.938
  22041090.526   -12124712.803 7  -9262678.64422        20.250           1.781
 91  7  4  3  0 44.9990000  0  4G 3G16G17G23
  20312256.222    -2335216.980 7                        23.250
  23883263.605     8438937.424 5   6575790.87221        11.000           0.469
  20239648.042    -4704913.900 7  -3666163.75424        25.250           3.781
  22031374.026   -12175747.984 7  -9302446.26922        20.000           1.781
 91  7  4  3  0 59.9990000  0  4G 3G16G17G23
  20312340.605    -2334783.158 7  -1819310.71622        23.000           2.219
  23891201.886     8480650.098 5   6608294.23021        11.500           0.438
  20237329.019    -4717104.902 7  -3675663.23624        25.500           3.844
  22021682.105   -12226711.218 7  -9342157.85022        20.500           1.906
 91  7  4  3  1 14.9990000  0  4G 3G16G17G23
  20312441.378    -2334244.489 7  -1818890.98622        23.000           2.250
  23899144.026     8522393.607 5   6640821.66021        11.500           0.406
  20235022.456    -4729228.223 7  -3685109.96424        25.500           3.813
  22011997.034   -12277602.876 7  -9381813.65122        20.000           1.875
 91  7  4  3  1 29.9990000  0  4G 3G16G17G23
  20312566.714    -2333603.505 7  -1818391.52722        23.750           2.188
  23907092.690     8564164.887 5   6673370.71921        10.250           0.406
  20232726.894    -4741286.833 7  -3694506.28024        25.500           3.781
  22002322.933   -12328425.683 6  -9421415.80422        19.500           1.813
 91  7  4  3  1 44.9990000  0  4G 3G16G17G23
  20312707.284    -2332855.501 7  -1817808.66622        23.750           2.219
  23915041.753     8605968.236 5   6705944.72021         9.250           0.500
  20230446.448    -4753275.993 7  -3703848.47524        26.250           3.656
  21992665.089   -12379174.504 6  -9460960.30622        19.000           1.844
 91  7  4  3  1 59.9990000  0  4G 3G16G17G23
  20312871.519    -2331998.860 7  -1817141.15522        23.750           2.125
  23923005.948     8647804.621 5   6738544.49021        10.500           0.375
  20228178.964    -4765194.447 7  -3713135.57924        25.750           3.781
  21983022.495   -12429847.854 6  -9500446.00322        19.000           1.719
 91  7  4  3  2 14.9990000  0  4G 3G16G17G23
  20313054.089    -2331035.596 7  -1816390.56822        24.500           2.281
  23930975.667     8689671.606 5   6771168.11321        10.500           0.438
  20225922.323    -4777044.324 7  -3722369.24324        25.500           3.781
  21973393.855   -12480447.647 6  -9539874.38322        18.750           1.719
 91  7  4  3  2 29.9990000  0  4G 3G16G17G23
  20313258.940    -2329963.463 7  -1815555.15322        24.500           2.188
  23938949.144     8731571.209 5   6803817.14021        10.000           0.344
  20223681.409    -4788823.506 7  -3731547.82224        25.750           3.688
  21963778.542   -12530971.511 6  -9579243.59922        18.500           1.750
 91  7  4  3  2 44.9990000  0  4G 3G16G17G23
  20313482.706    -2328783.157 7  -1814635.43722        24.250           2.313
  23946928.800     8773502.270 5   6836490.66521        11.500           0.406
  20221453.026    -4800532.951 7  -3740672.05624        25.250           3.719
  21954178.011   -12581420.214 6  -9618554.25022        18.250           1.688
 91  7  4  3  2 59.9990000  0  4G 3G16G17G23
  20313726.073    -2327495.100 7  -1813631.76522        24.000           2.344
  23954914.237     8815463.915 5   6869188.04321        11.750           0.469
  20219237.183    -4812172.974 7  -3749742.19624        25.250           3.594
  21944594.144   -12631794.094 6  -9657806.58822        19.250           1.750
 91  7  4  3  3 14.9990000  0  4G 3G16G17G23
  20313994.339    -2326101.533 7  -1812545.87522        24.750           2.313
  23962905.058     8857453.595 5   6901907.27521         9.750           0.500
  20217035.355    -4823746.052 7  -3758760.17624        25.250           3.500
  21935024.222   -12682095.055 6  -9697002.10622        19.500           1.688
 91  7  4  3  3 29.9990000  0  4G 3G16G17G23
  20314277.964    -2324601.479 7  -1811377.00222        24.000           2.313
  23970898.019     8899472.125 5   6934648.93121         9.500           0.625
  20214846.105    -4835251.382 7  -3767725.36424        25.750           3.656
  21925464.909   -12732322.028 6  -9736139.97322        19.500           1.625
 91  7  4  3  3 44.9990000  0  4G 3G16G17G23
  20314582.659    -2322995.551 7  -1810125.63222        23.750           2.375
  23978902.964     8941518.096 5   6967411.96621        11.250           0.469
  20212669.144    -4846689.769 7  -3776638.38324        25.500           3.563
  21915922.745   -12782475.736 7  -9775220.75722        20.000           1.719
 91  7  4  3  3 59.9990000  0  4G 3G16G17G23
  20314910.425    -2321279.266 7  -1808788.27322        23.750           2.313
  23986910.698     8983595.404 5   7000199.45821        11.000           0.406
  20210508.300    -4858057.303 7  -3785496.19624        26.000           3.625
  21906393.386   -12832551.791 6  -9814241.02222        19.750           1.656
 91  7  4  3  4 14.9990000  0  4G 3G16G17G23
  20315258.214    -2319453.951 7  -1807365.95422        23.750           2.281
  23994924.448     9025702.532 5   7033010.23621        11.000           0.406
  20208356.636    -4869355.187 7  -3794299.73924        25.500           3.531
  21896878.550   -12882551.284 7  -9853201.63522        20.000           1.688
 91  7  4  3  4 29.9990000  0  4G 3G16G17G23
  20315624.503    -2317523.884 7  -1805862.01722        23.750           2.313
  24002940.722     9067834.932 5   7065840.63921        10.750           0.469
  20206218.433    -4880587.645 7  -3803052.30323        25.750           3.438
  21887376.737   -12932478.365 6  -9892105.81822        19.500           1.719
 91  7  4  3  4 44.9990000  0  4G 3G16G17G23
  20316011.175    -2315485.769 7  -1804273.87722        23.750           2.281
  24010961.620     9109995.641 5   7098693.07421        10.250           0.438
  20204095.651    -4891751.628 7  -3811751.50724        26.250           3.563
  21877887.417   -12982329.543 6  -9930950.86222        18.750           1.813
 91  7  4  3  4 59.9990000  0  4G 3G16G17G23
  20316423.620    -2313338.610 7  -1802600.76722        24.250           2.250
  24018989.151     9152185.077 5   7131567.92121         9.750           0.406
  20201983.487    -4902846.316 7  -3820396.71224        26.000           3.594
  21868416.308   -13032103.780 6  -9969735.94922        19.000           1.688
 91  7  4  3  5 14.9990000  0  4G 3G16G17G23
  20316850.394    -2311079.377 7  -1800840.33222        23.750           2.281
  24027023.425     9194405.699 5   7164467.08721         9.500           0.375
  20199884.956    -4913869.089 7  -3828985.88624        26.000           3.563
  21858960.409   -13081798.210 6 -10008458.84822        18.750           1.969
 91  7  4  3  5 29.9990000  0  4G 3G16G17G23
  20317302.519    -2308709.484 7  -1798993.66822        23.750           2.188
  24035065.097     9236655.999 5   7197389.43321         9.500           0.563
  20197800.730    -4924820.936 7  -3837519.79124        26.250           3.625
  21849516.503   -13131413.677 6 -10047120.22122        17.750           1.813
 91  7  4  3  5 44.9990000  0  4G 3G16G17G23
  20317773.573    -2306230.842 7  -1797062.26122        23.750           2.344
  24043110.503     9278933.391 5   7230332.81921         9.250           0.406
  20195730.839    -4935704.357 7  -3846000.37324        26.250           3.563
  21840090.565   -13180952.441 6 -10085721.83122        18.000           1.813
 91  7  4  3  5 59.9990000  0  4G 3G16G17G23
  20318267.550    -2303642.231 7  -1795045.16722        23.500           2.313
  24051159.183     9321238.735 5   7263297.98521         8.750           0.438
  20193674.292    -4946518.202 7  -3854426.74924        26.250           3.500
  21830678.784   -13230413.148 6 -10124262.61922        18.500           1.813
 91  7  4  3  6 14.9990000  0  3G 3G17G23
  20318782.308    -2300945.001 7  -1792943.44322        24.000           2.344
  20191628.589    -4957263.931 7  -3862800.03824        25.750           3.563
  21821283.355   -13279797.055 6 -10162743.55822        19.250           1.938
 91  7  4  3  6 29.9990000  0  3G 3G17G23
  20319314.839    -2298135.592 7  -1790754.30322        23.500           2.313
  20189597.190    -4967938.032 7  -3871117.51124        26.000           3.594
  21811901.401   -13329100.317 7 -10201161.65522        20.000           1.844
 91  7  4  3  6 44.9990000  0  3G 3G17G23
  20319868.401    -2295214.835 7  -1788478.39422        22.250           2.156
  20187580.425    -4978541.468 7  -3879379.93023        26.000           3.469
  21802533.878   -13378323.637 7 -10239517.46022        20.500           1.875
 91  7  4  3  6 59.9990000  0  3G 3G17G23
  20320447.183    -2292185.854 7  -1786118.14922        23.250           2.281
  20185573.776    -4989077.781 7  -3887590.04124        25.000           3.563
  21793182.112   -13427470.349 7 -10277813.56922        21.250           1.969
 91  7  4  3  7 14.9990000  0  3G 3G17G23
  20321043.862    -2289048.197 7  -1783673.23122        22.750           2.313
  20183581.886    -4999546.662 7  -3895747.60224        25.000           3.531
  21783843.722   -13476539.666 7 -10316049.37122        21.500           1.875
 91  7  4  3  7 29.9990000  0  3G 3G17G23
  20321660.940    -2285797.422 7  -1781140.16622        22.250           2.156
  20181603.105    -5009943.957 7  -3903849.39423        25.250           3.469
  21774523.605   -13525527.379 7 -10354221.58322        22.500           1.844
 91  7  4  3  7 44.9990000  0  3G 3G17G23
  20322302.886    -2282438.736 7  -1778523.00922        23.500           2.156
  20179638.136    -5020274.757 7  -3911899.36424        25.000           3.531
  21765215.753   -13574438.358 7 -10392334.00022        21.750           1.938
 91  7  4  3  7 59.9990000  0  3G 3G17G23
  20322963.073    -2278964.042 7  -1775815.46722        23.250           2.125
  20177686.026    -5030530.755 7  -3919891.04323        25.000           3.469
  21755923.917   -13623264.220 7 -10430380.09622        21.750           2.031
 91  7  4  3  8 14.9990000  0  3G 3G17G23
  20323645.464    -2275382.145 7  -1773024.38122        23.500           2.156
  20175747.315    -5040721.623 7  -3927831.97624        25.750           3.563
  21746645.323   -13672014.098 7 -10468366.98522        20.500           2.063
 91  7  4  3  8 29.9990000  0  3G 3G17G23
  20324346.190    -2271689.611 7  -1770147.08622        24.250           2.125
  20173821.011    -5050843.498 7  -3935719.15024        25.750           3.500
  21737383.808   -13720684.133 7 -10506291.66222        20.250           2.000
 91  7  4  3  8 44.9990000  0  3G 3G17G23
  20325072.690    -2267882.960 7  -1767180.87222        24.000           2.094
  20171909.003    -5060893.233 7  -3943550.11524        26.000           3.594
  21728139.112   -13769270.922 7 -10544151.47122        20.500           2.094
 91  7  4  3  8 59.9990000  0  3G 3G17G23
  20325818.222    -2263962.998 7  -1764126.36522        24.500           2.156
  20170008.901    -5070871.651 7  -3951325.50224        26.000           3.625
  21718905.198   -13817775.242 7 -10581947.01722        20.000           2.188
 91  7  4  3  9 14.9990000  0  3G 3G17G23
  20326585.128    -2259932.124 7  -1760985.43022        24.500           2.250
  20168121.730    -5080781.763 7  -3959047.66424        25.250           3.719
  21709693.542   -13866199.334 7 -10619680.05022        20.750           2.219
 91  7  4  3  9 29.9990000  0  3G 3G17G23
  20327372.987    -2255788.695 7  -1757756.78622        24.500           2.156
  20166251.237    -5090621.779 7  -3966715.21524        25.250           3.719
  21700495.753   -13914541.620 7 -10657349.33522        21.000           2.188
 91  7  4  3  9 44.9990000  0  3G 3G17G23
  20328183.847    -2251535.852 7  -1754442.89422        24.750           2.250
  20164391.855    -5100394.806 7  -3974330.55324        25.250           3.656
  21691313.581   -13962804.913 7 -10694957.06922        21.750           2.094
 91  7  4  3  9 59.9990000  0  3G 3G17G23
  20329012.925    -2247171.088 7  -1751041.78822        24.250           2.125
  20162545.667    -5110098.347 7  -3981891.75524        25.000           3.781
  21682142.487   -14010986.459 7 -10732501.09122        21.500           2.094
 91  7  4  3 10 14.9990000  0  3G 3G17G23
  20329865.628    -2242694.483 7  -1747553.52522        24.750           2.219
  20160712.464    -5119733.198 7  -3989399.44124        24.500           3.625
  21672991.487   -14059086.651 7 -10769981.73122        22.250           2.031
 91  7  4  3 10 29.9990000  0  3G 3G17G23
  20330740.464    -2238104.986 7  -1743977.30222        25.000           2.188
  20158893.058    -5129297.959 7  -3996852.49724        25.250           3.656
  21663851.526   -14107104.336 7 -10807398.07222        21.750           2.094
 91  7  4  3 10 44.9990000  0  3G 3G17G23
  20331634.300    -2233401.528 7  -1740312.27022        25.250           2.125
  20157084.565    -5138791.799 7  -4004250.29724        24.750           3.594
  21654731.120   -14155038.242 7 -10844749.13422        22.000           1.969
 91  7  4  3 10 59.9990000  0  3G 3G17G23
  20332550.808    -2228584.262 7  -1736558.56722        24.750           2.219
  20155290.761    -5148214.956 7  -4011593.02124        24.750           3.563
  21645626.386   -14202888.351 7 -10882034.89922        22.250           2.063
 91  7  4  3 11 14.9990000  0  3G 3G17G23
  20333488.276    -2223654.723 7  -1732717.37522        24.750           2.281
  20153510.761    -5157569.366 7  -4018882.16524        25.000           3.563
  21636533.800   -14250656.383 7 -10919256.71622        21.500           2.031
 91  7  4  3 11 29.9990000  0  3G 3G17G23
  20334446.026    -2218616.073 7  -1728791.15922        24.750           2.219
  20151743.362    -5166858.090 7  -4026120.12924        25.250           3.656
  21627457.956   -14298344.928 7 -10956416.59122        21.000           1.969
 91  7  4  3 11 44.9990000  0  3G 3G17G23
  20335427.269    -2213459.727 7  -1724773.23222        24.750           2.219
  20149989.675    -5176073.174 7  -4033300.71124        25.750           3.781
  21618399.073   -14345945.886 7 -10993508.21422        20.500           2.156
 91  7  4  3 11 59.9990000  0  3G 3G17G23
  20336431.151    -2208189.124 7  -1720666.27822        25.000           2.281
  20148249.151    -5185217.315 7  -4040426.01324        25.500           3.813
  21609359.980   -14393461.869 7 -11030533.62422        20.750           2.094
 91  7  4  3 12 14.9990000  0  3G 3G17G23
  20337456.073    -2202804.728 7  -1716470.65722        24.750           2.250
  20146523.065    -5194291.801 7  -4047497.04224        25.250           3.719
  21600333.737   -14440893.882 7 -11067493.60422        20.750           2.031
 91  7  4  3 12 29.9990000  0  3G 3G17G23
  20338500.026    -2197304.887 7  -1712185.07322        24.250           2.188
  20144808.948    -5203294.743 7  -4054512.31724        26.000           3.781
  21591322.159   -14488239.996 7 -11104386.64822        20.500           2.125
 91  7  4  3 12 44.9990000  0  3G 3G17G23
  20339572.237    -2191692.057 7  -1707811.44022        25.000           2.281
  20143109.425    -5212228.828 7  -4061473.93924        25.250           3.750
  21582329.198   -14535502.592 7 -11141214.62022        20.500           2.156
 91  7  4  3 12 59.9990000  0  3G 3G17G23
  20340660.675    -2185961.068 7  -1703345.74522        24.500           2.250
  20141423.347    -5221088.997 7  -4068377.96524        25.250           3.688
  21573353.120   -14582676.358 7 -11177973.36422        21.000           2.188
 91  7  4  3 13 14.9990000  0  3G 3G17G23
  20341772.769    -2180113.515 7  -1698789.21522        24.750           2.250
  20139751.183    -5229877.002 7  -4075225.76324        25.500           3.625
  21564393.409   -14629762.957 7 -11214664.18522        21.250           2.219
 91  7  4  3 13 29.9990000  0  3G 3G17G23
  20342908.089    -2174149.299 7  -1694141.78022        24.250           2.406
  20138092.683    -5238593.021 7  -4082017.46224        25.250           3.656
  21555451.128   -14676762.039 7 -11251286.81722        21.250           2.281
 91  7  4  3 13 44.9990000  0  3G 3G17G23
  20344066.050    -2168071.103 7  -1689405.52522        24.500           2.250
  20136446.269    -5247239.587 7  -4088755.04924        25.000           3.500
  21546522.011   -14723676.189 7 -11287843.26022        20.750           2.406
 91  7  4  3 13 59.9990000  0  3G 3G17G23
  20345246.011    -2161874.659 7  -1684577.13422        24.250           2.219
  20134816.690    -5255812.732 7  -4095435.42324        25.000           3.563
  21537610.659   -14770501.232 7 -11324330.27722        20.000           2.313
 91  7  4  3 14 14.9990000  0  3G 3G17G23
  20346445.769    -2155560.990 7  -1679657.39522        24.250           2.281
  20133197.065    -5264313.469 7  -4102059.37024        24.750           3.719
  21528716.487   -14817237.695 7 -11360748.26722        20.250           2.375
 91  7  4  3 14 29.9990000  0  3G 3G17G23
  20347668.886    -2149131.553 7  -1674647.45322        24.500           2.344
  20131594.519    -5272743.420 7  -4108628.16724        25.500           3.656
  21519837.112   -14863887.127 6 -11397098.45222        19.500           2.313
 91  7  4  3 14 44.9990000  0  3G 3G17G23
  20348912.948    -2142584.386 7  -1669545.77522        23.750           2.313
  20130004.495    -5281100.620 7  -4115140.26524        25.250           3.781
  21510979.245   -14910447.550 6 -11433379.28122        19.750           2.281
 91  7  4  3 14 59.9990000  0  3G 3G17G23
  20350183.847    -2135922.192 7  -1664354.45722        24.000           2.344
  20128426.144    -5289388.287 7  -4121598.19024        25.250           3.719
  21502134.769   -14956921.654 6 -11469592.83722        19.750           2.281
 91  7  4  3 15 14.9990000  0  3G 3G17G23
  20351473.300    -2129144.827 7  -1659073.40022        24.250           2.281
  20126862.761    -5297605.992 7  -4128001.59324        25.500           3.531
  21493307.261   -15003308.838 6 -11505738.66622        19.750           2.313
 91  7  4  3 15 29.9990000  0  3G 3G17G23
  20352784.815    -2122250.829 7  -1653701.46422        24.250           2.250
  20125313.355    -5305752.620 7  -4134349.60824        25.500           3.656
  21484498.347   -15049608.059 6 -11541815.96122        19.750           2.313
 91  7  4  3 15 44.9990000  0  3G 3G17G23
  20354120.815    -2115235.718 7  -1648235.14822        24.000           2.375
  20123777.112    -5313823.725 7  -4140638.77824        26.000           3.531
  21475705.300   -15095814.393 7 -11577820.86522        20.250           2.281
 91  7  4  3 15 59.9990000  0  3G 3G17G23
  20355478.042    -2108102.965 7  -1642677.16622        24.000           2.281
  20122253.870    -5321822.800 7  -4146871.81424        25.500           3.500
  21466929.433   -15141931.187 7 -11613756.00422        20.250           2.313
 91  7  4  3 16 14.9990000  0  3G 3G17G23
  20356857.815    -2100854.744 7  -1637029.20422        23.750           2.313
  20120745.558    -5329752.530 7  -4153050.82223        26.000           3.469
  21458171.175   -15187960.930 7 -11649623.31222        20.250           2.375
 91  7  4  3 16 29.9990000  0  3G 3G17G23
  20358257.792    -2093488.218 7  -1631289.05922        23.250           2.219
  20119250.151    -5337609.812 7  -4159173.37923        26.000           3.375
  21449428.558   -15233900.271 7 -11685420.17223        20.250           2.500
 91  7  4  3 16 44.9990000  0  3G 3G17G23
  20359680.315    -2086002.248 7  -1625455.85622        23.000           2.344
  20117770.745    -5345393.723 7  -4165238.75924        26.500           3.500
  21440703.839   -15279748.229 7 -11721145.82822        20.250           2.406
 91  7  4  3 16 59.9990000  0  3G 3G17G23
  20361129.073    -2078394.676 7  -1619527.88522        23.000           2.281
  20116302.776    -5353102.207 7  -4171245.36523        26.000           3.375
  21431996.409   -15325502.484 7 -11756798.47422        20.250           2.438
 91  7  4  3 17 14.9990000  0  3G 3G17G23
  20362601.651    -2070671.294 7  -1613509.67522        23.500           2.313
  20114848.198    -5360740.935 7  -4177197.61523        25.500           3.375
  21423308.362   -15371168.441 7 -11792382.30822        20.500           2.406
 91  7  4  3 17 29.9990000  0  3G 3G17G23
  20364092.737    -2062825.446 7  -1607396.04022        23.000           2.344
  20113410.339    -5368303.623 7  -4183090.61723        26.000           3.375
  21414636.269   -15416739.651 7 -11827892.31722        21.000           2.406
 91  7  4  3 17 44.9990000  0  3G 3G17G23
  20365609.097    -2054862.326 7  -1601191.01822        23.500           2.250
  20111984.050    -5375795.602 7  -4188928.51923        25.750           3.375
  21405980.839   -15462221.170 7 -11863332.43322        20.250           2.469
 91  7  4  3 17 59.9990000  0  3G 3G17G23
  20367147.331    -2046777.935 7  -1594891.49822        23.250           2.281
  20110572.933    -5383212.608 7  -4194708.00123        26.000           3.469
  21397339.198   -15507608.918 6 -11898699.48222        19.500           2.438
 91  7  4  3 18 14.9990000  0  3G 3G17G23
  20368709.401    -2038572.993 7  -1588498.05322        23.000           2.406
  20109173.894    -5390555.899 7  -4200430.04224        25.750           3.531
  21388723.480   -15552903.410 7 -11933993.87422        20.500           2.375
 91  7  4  3 18 29.9990000  0  3G 3G17G23
  20370294.269    -2030244.629 7  -1582008.43022        23.750           2.344
  20107791.159    -5397822.526 7  -4206092.34824        25.500           3.531
  21380125.214   -15598101.828 7 -11969213.39622        21.250           2.406
 91  7  4  3 18 44.9990000  0  3G 3G17G23
  20371901.519    -2021797.925 7  -1575426.59322        23.500           2.281
  20106424.683    -5405017.807 7  -4211699.05723        26.250           3.438
  21371539.815   -15643209.290 7 -12004362.03722        20.500           2.406
 91  7  4  3 18 59.9990000  0  3G 3G17G23
  20373528.839    -2013231.921 7  -1568751.79322        23.250           2.344
  20105068.292    -5412140.925 7  -4217249.53623        26.500           3.438
  21362973.183   -15688224.497 7 -12039438.80322        20.500           2.406
 91  7  4  3 19 14.9990000  0  3G 3G17G23
  20375185.151    -2004544.720 7  -1561982.55422        23.250           2.219
  20103726.847    -5419189.686 7  -4222742.07523        26.250           3.438
  21354424.550   -15733145.199 7 -12074441.92223        21.000           2.531
 91  7  4  3 19 29.9990000  0  3G 3G17G23
  20376860.425    -1995734.266 7  -1555117.28422        23.000           2.344
  20102400.558    -5426162.439 7  -4228175.39124        27.250           3.594
  21345895.511   -15777969.750 7 -12109370.11823        21.250           2.531
 91  7  4  3 19 44.9990000  0  3G 3G17G23
  20378561.151    -1986800.105 7  -1548155.61322        23.250           2.250
  20101087.159    -5433058.681 7  -4233549.08024        26.750           3.500
  21337381.644   -15822697.250 7 -12144222.69223        21.000           2.500
 91  7  4  3 19 59.9990000  0  3G 3G17G23
  20380283.128    -1977746.672 7  -1541100.99522        23.500           2.375
  20099789.542    -5439882.876 7  -4238866.63124        26.750           3.500
  21328889.565   -15867332.151 7 -12179003.10822        21.000           2.438
 91  7  4  3 20 14.9990000  0  3G 3G17G23
  20382029.722    -1968572.306 7  -1533952.14922        24.000           2.313
  20098503.855    -5446633.781 7  -4244127.08224        26.500           3.563
  21320413.737   -15911872.698 7 -12213710.00822        21.500           2.438
 91  7  4  3 20 29.9990000  0  3G 3G17G23
  20383800.065    -1959269.337 7  -1526703.10122        24.000           2.281
  20097235.409    -5453304.051 7  -4249324.69723        26.750           3.469
  21311957.823   -15956311.239 7 -12248337.42023        21.500           2.500
 91  7  4  3 20 44.9990000  0  3G 3G17G23
  20385592.597    -1949846.092 7  -1519360.32122        23.250           2.469
  20095981.019    -5459901.372 7  -4254465.47224        27.000           3.563
  21303517.144   -16000655.735 7 -12282891.55522        21.750           2.469
 91  7  4  3 20 59.9990000  0  3G 3G17G23
  20387407.237    -1940299.043 7  -1511921.08022        23.000           2.313
  20094737.831    -5466422.617 7  -4259546.95824        26.500           3.688
  21295099.487   -16044902.879 7 -12317369.82423        22.500           2.594
 91  7  4  3 21 14.9990000  0  3G 3G17G23
  20389247.987    -1930632.159 7  -1504388.45022        23.500           2.281
  20093511.284    -5472871.836 7  -4264572.31924        26.250           3.719
  21286696.276   -16089056.312 7 -12351775.07523        22.500           2.500
 91  7  4  3 21 29.9990000  0  3G 3G17G23
  20391110.378    -1920845.251 7  -1496762.30022        23.250           2.344
  20092297.706    -5479249.015 7  -4269541.54324        26.750           3.719
  21278314.636   -16133115.803 7 -12386107.12423        22.750           2.531
 91  7  4  3 21 44.9990000  0  3G 3G17G23
  20392994.800    -1910933.462 7  -1489038.84522        23.250           2.313
  20091099.222    -5485549.439 7  -4274450.96124        26.500           3.750
  21269948.948   -16177076.284 7 -12420362.02323        23.000           2.594
 91  7  4  3 21 59.9990000  0  3G 3G17G23
  20394907.886    -1900898.608 7  -1481219.48922        23.750           2.406
  20089914.276    -5491774.865 7  -4279301.93724        26.250           3.750
  21261600.862   -16220939.472 7 -12454541.10823        22.750           2.531
 91  7  4  3 22 14.9990000  0  3G 3G17G23
  20396839.745    -1890740.457 7  -1473304.05922        23.250           2.313
  20088743.464    -5497925.275 7  -4284094.46024        25.750           3.813
  21253273.761   -16264705.295 7 -12488644.33023        23.750           2.594
 91  7  4  3 22 29.9990000  0  3G 3G17G23
  20398799.144    -1880454.067 7  -1465288.70722        24.250           2.344
  20087588.745    -5503995.637 7  -4288824.61224        26.250           3.781
  21244963.636   -16308368.563 7 -12522667.62923        22.750           2.688
 91  7  4  3 22 44.9990000  0  3G 3G17G23
  20400778.026    -1870046.244 7  -1457178.72022        24.250           2.250
  20086446.120    -5509993.022 7  -4293497.88724        25.500           3.688
  21236672.675   -16351935.962 7 -12556616.23123        22.750           2.625
 91  7  4  3 22 59.9990000  0  3G 3G17G23
  20402779.448    -1859517.321 7  -1448974.37922        24.000           2.250
  20085320.042    -5515917.761 7  -4298114.55924        26.250           3.719
  21228401.058   -16395407.834 7 -12590490.39523        22.750           2.719
 91  7  4  3 23 14.9990000  0  3G 3G17G23
  20404809.347    -1848865.762 7  -1440674.47422        23.750           2.188
  20084206.831    -5521768.528 7  -4302673.59324        26.500           3.781
  21220147.753   -16438782.308 7 -12624288.66123        23.250           2.688
 91  7  4  3 23 29.9990000  0  3G 3G17G23
  20406856.370    -1838089.413 7  -1432277.33022        22.750           2.281
  20083107.128    -5527543.129 7  -4307173.27124        26.500           3.750
  21211912.558   -16482057.071 7 -12658009.23323        23.750           2.656
 91  7  4  3 23 44.9990000  0  3G 3G17G23
  20408933.472    -1827190.189 7  -1423784.43022        23.000           2.250
  20082022.558    -5533243.641 7  -4311615.22524        26.750           3.688
  21203694.831   -16525234.359 7 -12691653.84723        23.250           2.563
 91  7  4  3 23 59.9990000  0  3G 3G17G23
  20411032.237    -1816166.316 7  -1415194.40722        24.250           2.156
  20080952.089    -5538868.190 7  -4315997.97724        26.250           3.719
  21195495.823   -16568312.004 7 -12725220.81423        23.000           2.656
 91  7  4  3 24 14.9990000  0  3G 3G17G23
  20413152.308    -1805014.909 7  -1406505.01622        23.500           2.219
  20079896.792    -5544413.958 7  -4320319.34424        26.500           3.625
  21187319.230   -16611287.131 7 -12758707.89923        23.750           2.625
 91  7  4  3 24 29.9990000  0  3G 3G17G23
  20415298.214    -1793738.150 7  -1397717.93822        23.000           2.188
  20078857.386    -5549883.316 7  -4324581.17724        27.500           3.750
  21179160.300   -16654161.547 7 -12792116.51123        23.500           2.688
 91  7  4  3 24 44.9990000  0  3G 3G17G23
  20417467.730    -1782336.163 7  -1388833.27522        23.250           2.125
  20077829.808    -5555276.295 7  -4328783.48024        26.500           3.750
  21171022.042   -16696935.402 7 -12825446.76423        23.750           2.625
 91  7  4  3 24 59.9990000  0  3G 3G17G23
  20419663.026    -1770811.793 7  -1379853.25222        23.500           2.156
  20076817.878    -5560596.240 7  -4332928.89224        26.750           3.875
  21162901.800   -16739611.501 7 -12858700.84523        22.750           2.688
 91  7  4  3 25 14.9990000  0  3G 3G17G23
  20421877.800    -1759165.113 7  -1370777.92622        23.500           2.156
  20075818.909    -5565843.201 7  -4337017.42624        26.750           3.875
  21154795.300   -16782189.936 7 -12891878.82023        22.500           2.781
 91  7  4  3 25 29.9990000  0  3G 3G17G23
  20424119.214    -1747391.070 7  -1361603.35622        23.500           2.125
  20074835.605    -5571011.913 7  -4341044.99624        27.000           3.938
  21146713.823   -16824665.246 7 -12924976.44523        22.750           2.719
 91  7  4  3 25 44.9990000  0  3G 3G17G23
  20426381.706    -1735493.271 7  -1352332.35522        23.000           2.156
  20073867.034    -5576106.188 7  -4345014.55324        27.500           3.875
  21138651.597   -16867041.199 7 -12957996.64323        23.000           2.656
 91  7  4  3 25 59.9990000  0  3G 3G17G23
  20428671.792    -1723472.882 7  -1342965.82122        23.750           2.188
  20072910.651    -5581127.342 7  -4348927.13424        27.000           3.875
  21130606.315   -16909319.039 7 -12990940.38623        22.750           2.594
 91  7  4  3 26 14.9990000  0  3G 3G17G23
  20430980.886    -1711327.328 7  -1333501.75922        23.750           2.063
  20071968.761    -5586072.871 7  -4352780.79324        26.500           3.906
  21122580.355   -16951495.809 7 -13023805.37723        23.250           2.688
 91  7  4  3 26 29.9990000  0  3G 3G17G23
  20433315.823    -1699054.832 7  -1323938.78222        23.500           1.969
  20071043.480    -5590941.077 7  -4356574.19524        26.500           3.594
  21114574.386   -16993569.660 7 -13056590.16923        23.250           2.656
 91  7  4  3 26 44.9990000  0  3G 3G17G23
  20435675.917    -1686657.286 7  -1314278.35522        23.750           1.969
  20070131.190    -5595733.802 7  -4360308.77824        26.500           3.625
  21106585.917   -17035542.489 7 -13089296.24423        23.000           2.750
 91  7  4  3 26 59.9990000  0  3G 3G17G23
  20438058.292    -1674134.671 7  -1304520.48722        23.000           2.063
  20069233.472    -5600451.221 7  -4363984.68824        26.500           3.500
  21098620.003   -17077413.930 7 -13121923.32223        24.000           2.781
 91  7  4  3 27 14.9990000  0  3G 3G17G23
  20440466.112    -1661488.238 7  -1294666.12622        23.750           1.969
  20068349.800    -5605094.573 7  -4367602.88324        26.750           3.563
  21090670.050   -17119184.980 7 -13154472.16423        23.750           2.719
 91  7  4  3 27 29.9990000  0  3G 3G17G23
  20442895.386    -1648715.844 7  -1284713.62122        23.500           1.969
  20067480.386    -5609661.681 7  -4371161.66423        26.250           3.469
  21082741.636   -17160853.892 7 -13186941.42823        23.500           2.688
 91  7  4  3 27 44.9990000  0  3G 3G17G23
  20445349.534    -1635818.879 7  -1274664.04322        23.750           1.938
  20066626.823    -5614153.989 7  -4374662.16024        26.250           3.500
  21074829.620   -17202421.629 7 -13219331.85023        23.500           2.875
 91  7  4  3 27 59.9990000  0  3G 3G17G23
  20447825.831    -1622796.495 7  -1264516.74022        23.250           1.969
  20065785.855    -5618570.805 7  -4378103.83723        26.250           3.344
  21066939.386   -17243887.436 7 -13251642.84323        23.750           3.000
 91  7  4  3 28 14.9990000  0  3G 3G17G23
  20450329.261    -1609649.663 7  -1254272.45722        24.000           2.063
  20064958.737    -5622913.066 7  -4381487.41323        26.000           3.438
  21059068.300   -17285251.964 7 -13283874.91523        23.500           2.906
 91  7  4  3 28 29.9990000  0  3G 3G17G23
  20452855.355    -1596378.929 7  -1243931.63722        24.250           1.969
  20064146.636    -5627181.402 7  -4384813.38824        26.000           3.531
  21051216.894   -17326515.639 7 -13316028.40023        23.250           2.969
 91  7  4  3 28 44.9990000  0  3G 3G17G23
  20455405.230    -1582979.178 7  -1233490.28222        23.750           1.938
  20063349.456    -5631370.920 7  -4388077.94623        26.500           3.469
  21043382.440   -17367673.372 7 -13348099.33723        23.000           2.906
 91  7  4  3 28 59.9990000  0  3G 3G17G23
  20457978.964    -1569455.572 7  -1222952.41822        24.000           1.969
  20062567.472    -5635486.764 7  -4391285.09324        26.750           3.563
  21035571.136   -17408729.968 7 -13380091.46523        23.000           3.000
 91  7  4  3 29 14.9990000  0  3G 3G17G23
  20460576.261    -1555805.243 7  -1212315.79622        23.250           1.938
  20061797.128    -5639525.995 7  -4394432.54324        27.000           3.594
  21027779.417   -17449682.549 7 -13412002.54323        23.750           2.906
 91  7  4  3 29 29.9990000  0  3G 3G17G23
  20463195.425    -1542030.401 7  -1201582.16422        23.000           2.094
  20061043.690    -5643491.123 7  -4397522.25824        27.250           3.594
  21020003.214   -17490533.461 7 -13443834.40123        23.500           2.813
 91  7  4  3 29 44.9990000  0  3G 3G17G23
  20465843.480    -1528131.625 7  -1190751.95122        23.250           2.031
  20060303.542    -5647382.629 7  -4400554.59924        27.500           3.656
  21012249.167   -17531283.002 7 -13475587.25523        23.250           2.813
 91  7  4  3 29 59.9990000  0  3G 3G17G23
  20468509.894    -1514107.582 7  -1179824.13922        23.000           1.969
  20059576.050    -5651199.276 7  -4403528.60324        26.500           3.750
  21004514.651   -17571929.945 7 -13507260.17523        23.500           2.875
 91  7  4  3 30 14.9990000  0  3G 3G17G23
  20471205.050    -1499954.299 7  -1168795.60522        24.250           2.000
  20058865.753    -5654937.137 7  -4406441.22924        26.500           3.531
  20996799.823   -17612470.083 7 -13538849.87223        23.250           2.781
 91  7  4  3 30 29.9990000  0  3G 3G17G23
  20473923.964    -1485676.548 7  -1157670.09422        23.750           2.000
  20058168.612    -5658600.925 7  -4409296.12624        26.750           3.625
  20989105.105   -17652907.928 7 -13570359.85423        23.750           2.875
 91  7  4  3 30 44.9990000  0  3G 3G17G23
  20476661.792    -1471272.446 7  -1146446.12222        23.000           2.000
  20057484.964    -5662189.002 7  -4412092.02924        26.500           3.594
  20981429.620   -17693241.773 7 -13601788.79823        23.750           2.906
 91  7  4  3 30 59.9990000  0  3G 3G17G23
  20479426.956    -1456741.805 7  -1135123.55022        22.750           2.063
  20056818.636    -5665701.246 7  -4414828.84824        26.750           3.563
  20973774.151   -17733471.106 7 -13633136.30623        24.250           2.938
 91  7  4  3 31 14.9990000  0  3G 3G17G23
  20482214.917    -1442087.953 7  -1123704.97422        22.750           2.125
  20056161.534    -5669140.705 7  -4417508.94024        26.750           3.656
  20966137.948   -17773599.008 7 -13664404.77123        24.000           3.000
 91  7  4  3 31 29.9990000  0  3G 3G17G23
  20485028.511    -1427308.525 7  -1112188.54422        23.000           2.063
  20055521.323    -5672505.370 7  -4420130.74924        26.750           3.688
  20958521.401   -17813623.400 7 -13695592.58823        24.250           2.875
 91  7  4  3 31 44.9990000  0  3G 3G17G23
  20487863.003    -1412401.664 7  -1100572.81222        22.500           2.125
  20054896.198    -5675793.091 7  -4422692.61724        27.500           3.625
  20950925.347   -17853541.847 7 -13726697.84523        24.250           2.969
 91  7  4  3 31 59.9990000  0  3G 3G17G23
  20490726.472    -1397370.434 7  -1088860.16322        23.250           2.125
  20054285.862    -5679007.004 8  -4425196.95924        28.000           3.625
  20943348.565   -17893357.418 7 -13757722.94123        23.500           2.875
 91  7  4  3 32 14.9990000  0  3G 3G17G23
  20493605.823    -1382214.619 7  -1077050.44622        22.250           2.125
  20053687.112    -5682147.417 8  -4427644.03624        28.000           3.719
  20935791.659   -17933069.895 7 -13788667.70823        23.500           2.969
 91  7  4  3 32 29.9990000  0  3G 3G17G23
  20496516.651    -1366934.057 7  -1065143.52122        22.500           2.094
  20053103.894    -5685213.912 8  -4430033.50624        28.250           3.781
  20928254.394   -17972679.061 7 -13819531.97223        23.500           3.031
 91  7  4  3 32 44.9990000  0  3G 3G17G23
  20499449.120    -1351527.632 7  -1053138.52522        23.000           2.125
  20052534.870    -5688205.446 8  -4432364.56624        28.750           3.781
  20920737.120   -18012183.603 7 -13850314.70923        23.500           3.094
 91  7  4  3 32 59.9990000  0  3G 3G17G23
  20502403.917    -1335993.059 7  -1041033.66822        23.000           2.063
  20051980.144    -5691119.741 8  -4434635.44324        28.500           4.063
  20913239.886   -18051581.105 7 -13881014.03223        23.000           3.125
 91  7  4  3 33 14.9990000  0  3G 3G17G23
  20505384.901    -1320330.053 7  -1028828.73322        23.250           1.906
  20051441.058    -5693956.585 8  -4436845.96624        28.000           3.969
  20905763.065   -18090871.470 7 -13911629.87723        23.500           3.094
 91  7  4  3 33 29.9990000  0  3G 3G17G23
  20508390.675    -1304540.051 7  -1016524.84222        23.750           2.063
  20050913.597    -5696717.040 7  -4438996.96324        27.000           4.063
  20898305.847   -18130055.669 7 -13942162.99923        23.750           3.094
 91  7  4  3 33 44.9990000  0  3G 3G17G23
  20511415.011    -1288624.120 7  -1004122.82222        22.250           1.969
  20050404.542    -5699402.601 7  -4441089.60724        27.250           4.063
  20890870.339   -18169134.636 7 -13972614.11923        24.000           3.125
 91  7  4  3 33 59.9990000  0  3G 3G17G23
  20514470.433    -1272583.484 7   -991623.62822        22.250           2.063
  20049906.425    -5702014.785 7  -4443125.06924        26.500           3.969
  20883456.401   -18208109.498 7 -14002984.12023        24.750           3.250
 91  7  4  3 34 14.9990000  0  3G 3G17G23
  20517547.159    -1256418.088 7   -979027.21922        22.250           2.000
  20049424.534    -5704553.287 7  -4445103.12024        27.500           3.906
  20876056.605   -18246980.221 7 -14033272.97223        24.000           3.250
 91  7  4  3 34 29.9990000  0  3G 3G17G23
  20520648.612    -1240123.194 7   -966329.90722        22.250           2.063
  20048954.534    -5707013.442 7  -4447020.12024        27.000           3.875
  20868681.565   -18285741.950 7 -14063476.89523        24.250           3.281
 91  7  4  3 34 44.9990000  0  3G 3G17G23
  20523773.972    -1223700.807 7   -953533.24622        22.500           1.938
  20048502.284    -5709397.310 7  -4448877.67824        27.250           3.875
  20861323.558   -18324396.533 7 -14093597.32623        23.500           3.188
 91  7  4  3 34 59.9990000  0  3G 3G17G23
  20526922.378    -1207154.373 7   -940639.92522        22.750           1.875
  20048061.972    -5711708.144 7  -4450678.33024        27.000           3.750
  20853989.651   -18362947.190 7 -14123636.78023        24.000           3.094
 91  7  4  3 35 14.9990000  0  3G 3G17G23
  20530094.722    -1190483.783 7   -927649.87022        23.000           1.813
  20047636.370    -5713945.848 7  -4452421.99324        27.000           3.906
  20846672.456   -18401393.862 7 -14153595.20123        23.250           3.219
 91  7  4  3 35 29.9990000  0  3G 3G17G23
  20533292.433    -1173686.944 7   -914561.43222        22.500           1.813
  20047224.065    -5716108.458 7  -4454107.14424        27.250           3.813
  20839377.003   -18439734.449 7 -14183470.96323        23.500           3.219
 91  7  4  3 35 44.9990000  0  3G 3G17G23
  20536511.058    -1156766.596 7   -901376.76022        22.000           1.844
  20046826.698    -5718198.951 7  -4455736.08924        26.750           3.875
  20832103.034   -18477971.383 7 -14213265.95523        24.500           3.219
 91  7  4  3 35 59.9990000  0  3G 3G17G23
  20539754.831    -1139717.230 7   -888091.54222        22.000           1.813
  20046443.620    -5720211.860 7  -4457304.58424        26.750           3.813
  20824846.230   -18516098.877 7 -14242975.66623        24.000           3.125
 91  7  4  3 36 14.9990000  0  3G 3G17G23
  20543024.425    -1122545.206 7   -874710.75322        22.250           1.719
  20046073.581    -5722153.491 7  -4458817.53924        27.500           3.844
  20817608.487   -18554123.409 7 -14272605.14623        23.250           3.156
 91  7  4  3 36 29.9980000  0  3G 3G17G23
  20546314.834    -1105247.796 7   -861232.26322        22.250           1.844
  20045717.725    -5724019.562 7  -4460271.62124        26.750           3.906
  20810394.943   -18592038.515 7 -14302149.36623        24.000           3.188
 91  7  4  3 36 44.9980000  0  3G 3G17G23
  20549632.561    -1087819.925 7   -847652.11022        23.000           1.719
  20045378.115    -5725807.829 7  -4461665.08324        26.750           3.781
  20803197.537   -18629846.198 7 -14331609.86823        23.250           3.188
 91  7  4  3 36 59.9980000  0  3G 3G17G23
  20552971.084    -1070268.022 7   -833975.30522        22.500           1.813
  20045053.076    -5727523.426 7  -4463001.90524        27.000           3.844
  20796026.334   -18667549.112 7 -14360988.74523        24.250           3.063
 91  7  4  3 37 14.9980000  0  3G 3G17G23
  20556335.186    -1052589.121 7   -820199.55722        22.250           1.781
  20044739.389    -5729163.351 7  -4464279.77224        26.500           3.531
  20788871.022   -18705144.131 7 -14390283.54223        24.250           3.156
 91  7  4  3 37 29.9980000  0  3G 3G17G23
  20559720.850    -1034785.035 7   -806326.25622        22.250           1.688
  20044443.943    -5730729.446 7  -4465500.11324        27.500           3.563
  20781736.834   -18742633.166 7 -14419495.74923        24.250           3.063
 91  7  4  3 37 44.9980000  0  3G 3G17G23
  20563137.201    -1016854.690 7   -792354.55922        22.750           1.656
  20044158.654    -5732220.606 7  -4466662.05723        26.750           3.406
  20774622.412   -18780014.816 7 -14448624.28323        24.250           3.188
 91  7  4  3 37 59.9980000  0  3G 3G17G23
  20566571.193     -998801.468 7   -778287.12822        22.500           1.688
  20043888.795    -5733640.416 7  -4467768.39124        27.000           3.531
  20767528.389   -18817292.331 7 -14477671.67123        23.500           3.125
 91  7  4  3 38 14.9980000  0  3G 3G17G23
  20570030.482     -980621.870 7   -764121.21222        22.250           1.781
  20043632.850    -5734985.084 7  -4468816.18024        27.250           3.531
  20760458.639   -18854462.192 7 -14506635.17623        24.000           3.156
 91  7  4  3 38 29.9980000  0  3G 3G17G23
  20573513.279     -962315.712 7   -749856.68422        22.500           1.688
  20043390.451    -5736254.561 7  -4469805.38324        27.000           3.500
  20753405.201   -18891523.974 7 -14535514.45723        24.250           3.156
 91  7  4  3 38 44.9980000  0  3G 3G17G23
  20577021.865     -943885.490 7   -735495.48122        22.500           1.750
  20043162.959    -5737451.586 7  -4470738.12524        26.750           3.531
  20746371.170   -18928480.089 7 -14564311.40523        24.250           3.188
 91  7  4  3 38 59.9980000  0  3G 3G17G23
  20580552.647     -925330.140 7   -721036.77322        22.750           1.781
  20042949.295    -5738574.949 7  -4471613.47224        26.750           3.563
  20739358.295   -18965329.511 7 -14593025.21823        24.000           3.156
 91  7  4  3 39 14.9980000  0  3G 3G17G23
  20584107.732     -906643.547 7   -706475.79822        22.250           1.688
  20042751.201    -5739618.642 7  -4472426.73424        27.000           3.625
  20732372.068   -19002065.781 7 -14621650.86023        25.250           3.156
 91  7  4  3 39 29.9980000  0  3G 3G17G23
  20587685.998     -887832.056 7   -691817.50722        22.500           1.781
  20042566.584    -5740588.928 7  -4473182.80424        27.000           3.688
  20725398.053   -19038695.126 7 -14650193.18123        24.500           3.281
 91  7  4  3 39 44.9980000  0  3G 3G17G23
  20591293.904     -868896.499 7   -677062.53122        23.500           1.781
  20042396.373    -5741486.646 7  -4473882.32024        27.000           3.656
  20718447.764   -19075218.428 7 -14678652.87123        24.250           3.313
 91  7  4  3 39 59.9980000  0  3G 3G17G23
  20594918.389     -849836.917 7   -662210.92722        23.000           1.938
  20042236.717    -5742311.790 7  -4474525.28624        27.250           3.781
  20711517.287   -19111635.526 7 -14707029.80423        23.750           3.219
 91  7  4  3 40 14.9980000  0  3G 3G17G23
  20598570.717     -830652.578 7   -647262.10122        23.500           1.750
  20042095.186    -5743063.610 7  -4475111.11824        27.250           3.813
  20704608.498   -19147945.569 7 -14735323.32323        24.250           3.281
 91  7  4  3 40 29.9980000  0  3G 3G17G23
  20602243.943     -811346.009 7   -632218.02822        23.250           1.813
  20041964.897    -5743744.425 7  -4475641.62424        27.000           3.906
  20697717.631   -19184151.113 7 -14763535.40923        24.500           3.250
 91  7  4  3 40 44.9980000  0  3G 3G17G23
  20605940.287     -791917.109 7   -617078.63822        23.000           1.781
  20041849.022    -5744354.542 7  -4476117.04124        26.250           3.844
  20690848.881   -19220251.811 7 -14791665.80723        24.000           3.375
 91  7  4  3 40 59.9980000  0  3G 3G17G23
  20609660.209     -772361.408 7   -601840.43522        22.750           1.719
  20041746.600    -5744889.383 7  -4476533.79624        26.750           3.844
  20683999.873   -19256243.107 7 -14819710.94623        23.750           3.313
 91  7  4  3 41 14.9980000  0  3G 3G17G23
  20613408.209     -752680.184 7   -586504.41922        23.000           1.750
  20041659.725    -5745350.191 7  -4476892.85824        26.750           3.750
  20677170.654   -19292126.063 7 -14847671.66723        23.250           3.344
 91  7  4  3 41 29.9980000  0  3G 3G17G23
  20617173.897     -732876.623 7   -571073.08722        22.750           1.781
  20041586.264    -5745740.037 7  -4477196.63424        27.250           3.750
  20670364.014   -19327903.843 7 -14875550.42923        23.750           3.344
 91  7  4  3 41 44.9980000  0  3G 3G17G23
  20620966.881     -712950.766 7   -555546.45722        23.000           1.813
  20041525.217    -5746059.065 7  -4477445.22724        27.000           3.750
  20663574.545   -19363576.250 7 -14903347.08923        23.750           3.375
 91  7  4  3 41 59.9980000  0  3G 3G17G23
  20624781.686     -692903.198 7   -539924.98122        22.750           1.938
  20041477.662    -5746307.879 7  -4477639.10224        27.000           3.781
  20656805.803   -19399143.786 7 -14931062.02723        23.250           3.281
 91  7  4  3 42 14.9980000  0  3G 3G17G23
  20628620.982     -672729.667 7   -524205.34422        22.250           1.906
  20041445.357    -5746482.037 7                        26.750
  20650058.014   -19434601.877 7 -14958691.68323        23.000           3.313
 91  7  4  3 42 29.9980000  0  3G 3G17G23
  20632484.295     -652430.223 7   -508387.60622        22.500           1.844
  20041424.287    -5746581.719 7                        26.500
  20643331.522   -19469950.782 7 -14986236.26323        23.250           3.281
 91  7  4  3 42 44.9980000  0  3G 3G17G23
  20636370.850     -632003.166 7   -492470.42722        22.250           1.938
  20041421.772    -5746605.378 7                        26.750
  20636626.709   -19505188.472 7 -15013694.17423        23.000           3.219
 91  7  4  3 42 59.9980000  0  3G 3G17G23
  20640282.592     -611450.175 7   -476455.11422        21.500           1.844
  20041429.623    -5746554.277 7                        26.750
  20629945.154   -19540316.599 7 -15041066.71123        23.500           3.219
 91  7  4  3 43 14.9980000  0  3G 3G17G23
  20644217.553     -590770.338 7   -460340.95622        21.500           1.938
  20041455.037    -5746427.743 7                        27.000
  20623280.342   -19575334.335 7 -15068353.23423        23.000           3.219
 91  7  4  3 43 29.9980000  0  3G 3G17G23
  20648174.225     -569962.253 7   -444126.87422        21.750           1.875
  20041494.397    -5746224.443 7                        27.250
  20616634.029   -19610240.025 7 -15095552.44923        22.250           3.188
 91  7  4  3 43 44.9980000  0  3G 3G17G23
  20652160.357     -549028.997 7   -427815.24922        21.750           1.813
  20041546.740    -5745947.382 7                        27.250
  20610012.850   -19645036.337 7 -15122666.43523        22.500           3.219
 91  7  4  3 43 59.9980000  0  3G 3G17G23
  20656168.654     -527970.437 7   -411405.98522        22.000           1.688
  20041612.272    -5745596.476 7  -4477084.73424        26.750           4.125
  20603415.811   -19679723.260 7 -15149695.18623        23.000           3.250
 91  7  4  3 44 14.9980000  0  3G 3G17G23
  20660199.850     -506786.820 7   -394899.28222        22.250           1.750
  20041692.920    -5745171.935 7  -4476753.92324        27.000           4.063
  20596832.951   -19714300.949 7 -15176638.81623        22.500           3.438
 91  7  4  3 44 29.9980000  0  3G 3G17G23
  20664253.506     -485478.365 7   -378295.29522        22.000           1.656
  20041789.147    -5744673.910 7  -4476365.84624        27.000           4.000
  20590273.936   -19748769.426 7 -15203497.35123        23.000           3.375
 91  7  4  3 44 44.9980000  0  3G 3G17G23
  20668330.365     -464046.229 7   -361594.93222        22.250           1.625
  20041896.686    -5744103.098 7  -4475921.05424        26.750           3.906
  20583736.287   -19783129.367 7 -15230271.30823        23.000           3.344
 91  7  4  3 44 59.9980000  0  3G 3G17G23
  20672434.029     -442488.314 7   -344796.56322        22.750           1.688
  20042020.811    -5743457.796 7  -4475418.21224        26.750           3.844
  20577219.561   -19817378.902 7 -15256959.23823        23.250           3.406
 91  7  4  3 45 14.9980000  0  3G 3G17G23
  20676561.553     -420803.116 7   -327899.00522        23.000           1.656
  20042157.045    -5742736.723 7  -4474856.33024        26.500           3.750
  20570720.623   -19851516.564 7 -15283559.98423        22.500           3.344
 91  7  4  3 45 29.9980000  0  3G 3G17G23
  20680709.451     -398992.903 7   -310904.03622        23.000           1.688
  20042306.834    -5741941.960 7  -4474237.02824        26.000           3.688
  20564246.522   -19885544.252 7 -15310075.04123        23.000           3.281
 91  7  4  3 45 44.9980000  0  3G 3G17G23
  20684884.772     -377060.662 7   -293813.98122        23.500           1.688
  20042472.998    -5741076.511 7  -4473562.64024        25.750           3.781
  20557793.990   -19919464.988 7 -15336506.75823        23.500           3.313
 91  7  4  3 45 59.9980000  0  3G 3G17G23
  20689083.779     -355001.154 7   -276624.76522        23.750           1.563
  20042652.467    -5740134.973 7  -4472828.97224        26.000           3.875
  20551359.037   -19953273.146 7 -15362850.75423        23.250           3.344
 91  7  4  3 46 14.9980000  0  3G 3G17G23
  20693305.537     -332809.798 7   -259332.81022        23.500           1.563
  20042845.912    -5739112.523 7  -4472032.25124        26.500           3.875
  20544947.014   -19986964.231 7 -15389103.52223        22.750           3.375
 91  7  4  3 46 29.9980000  0  3G 3G17G23
  20697553.350     -310490.484 7   -241941.15022        23.500           1.563
  20043056.350    -5738013.298 7  -4471175.70024        26.500           4.031
  20538556.732   -20020541.978 7 -15415267.98623        23.250           3.344
 91  7  4  3 46 44.9980000  0  3G 3G17G23
  20701823.037     -288044.622 7   -224450.87122        22.500           1.563
  20043279.436    -5736838.597 7  -4470260.34324        26.500           4.031
  20532191.975   -20054007.264 7 -15441344.81123        23.750           3.344
 91  7  4  3 46 59.9980000  0  3G 3G17G23
  20706119.014     -265468.331 7   -206858.96222        23.000           1.563
  20043518.365    -5735584.568 7  -4469283.17124        27.000           4.000
  20525843.373   -20087356.657 7 -15467331.32524        22.750           3.500
 91  7  4  3 47 14.9980000  0  3G 3G17G23
  20710440.654     -242764.396 7   -189167.59221        24.000           1.438
  20043770.967    -5734253.836 7  -4468246.23524        26.750           3.938
  20519518.764   -20120592.580 7 -15493229.42024        22.750           3.563
 91  7  4  3 47 29.9980000  0  3G 3G17G23
  20714785.279     -219936.248 7   -171379.43522        23.750           1.563
  20044038.436    -5732849.962 7  -4467152.29824        26.250           3.938
  20513216.279   -20153718.249 7 -15519041.60423        23.250           3.438
 91  7  4  3 47 44.9980000  0  3G 3G17G23
  20719152.475     -196982.846 7   -153493.67922        23.250           1.594
  20044321.225    -5731371.902 7  -4466000.55624        26.500           3.938
  20506934.365   -20186732.447 7 -15544766.93323        23.750           3.469
 91  7  4  3 47 59.9980000  0  3G 3G17G23
  20723545.342     -173904.276 7   -135510.39122        23.500           1.625
  20044615.076    -5729819.539 7  -4464790.91824        26.500           3.813
  20500672.287   -20219635.424 7 -15570405.59523        23.500           3.344
 91  7  4  3 48 14.9980000  0  3G 3G17G23
  20727959.326     -150704.113 7   -117432.35922        23.500           1.625
  20044924.506    -5728196.632 7  -4463526.30324        26.250           3.781
  20494432.951   -20252430.599 7 -15595960.26423        24.250           3.313
 91  7  4  3 48 29.9980000  0  3G 3G17G23
  20732396.670     -127381.883 7    -99259.20022        23.250           1.625
  20045247.443    -5726502.540 7  -4462206.21724        26.750           3.656
  20488209.842   -20285117.342 7 -15621430.42623        23.750           3.313
 91  7  4  3 48 44.9980000  0  3G 3G17G23
  20736858.029     -103937.633 7    -80990.95722        23.250           1.594
  20045582.631    -5724737.237 7  -4460830.65624        26.750           3.656
  20482010.475   -20317695.507 7 -15646815.98523        23.250           3.344
 91  7  4  3 48 59.9980000  0  3G 3G17G23
  20741345.412      -80370.573 7    -62627.02922        23.250           1.625
  20045931.779    -5722899.988 7  -4459399.02924        26.500           3.719
  20475833.279   -20350164.106 7 -15672116.17623        24.000           3.344
 91  7  4  3 49 14.9980000  0  3G 3G17G23
  20745851.279      -56678.772 7    -44165.89422        22.250           1.531
  20046295.256    -5720988.839 7  -4457909.81624        25.750           3.594
  20469678.068   -20382521.189 7 -15697329.45823        25.000           3.313
 91  7  4  3 49 29.9980000  0  3G 3G17G23
  20750383.318      -32866.203 7    -25610.65522        22.250           1.563
  20046673.061    -5719007.543 7  -4456365.94224        26.250           3.688
  20463541.193   -20414770.183 7 -15722458.52323        24.500           3.313
 91  7  4  3 49 44.9980000  0  3G 3G17G23
  20754937.420       -8933.620 7     -6961.90322        22.500           1.563
  20047062.514    -5716956.967 7  -4454768.08924        26.500           3.688
  20457422.115   -20446912.006 7 -15747504.08023        24.250           3.344
 91  7  4  3 49 59.9980000  0  4G 3G21G17G23
  20759516.990       15123.498 7     11783.89122        22.000           1.563
  24045878.443          -0.61714                         6.250
  20047466.725    -5714832.304 7  -4453112.49924        26.250           3.781
  20451327.459   -20478942.197 7 -15772462.64723        24.250           3.406
 91  7  4  3 50 14.9980000  0  4G 3G21G17G23
  20764115.748       39305.808 7     30627.22522        22.000           1.500
  24034504.615      -59772.800 4                         6.250
  20047886.420    -5712633.032 7  -4451398.77624        26.750           3.813
  20445252.670   -20510859.940 7 -15797333.59123        24.000           3.313
 91  7  4  3 50 29.9980000  0  4G 3G21G17G23
  20768741.670       63605.572 7     49562.08622        21.250           1.625
  24023138.678     -119515.534 4                         6.500
  20048317.865    -5710366.479 7  -4449632.62824        27.250           3.813
  20439199.303   -20542672.791 7 -15822122.80723        24.250           3.219
 91  7  4  3 50 44.9980000  0  4G 3G21G17G23
  20773386.826       88028.753 7     68593.12922        20.250           1.625
  24011777.561     -179222.403 4                         6.750
  20048761.639    -5708027.088 7  -4447809.72124        26.250           3.813
  20433168.600   -20574374.342 7 -15846825.29523        25.000           3.313
 91  7  4  3 50 59.9980000  0  4G 3G21G17G23
  20778058.170      112574.133 7     87719.38322        20.750           1.656
  24000414.397     -238894.662 4                         6.500
  20049221.186    -5705616.115 7  -4445931.04124        26.250           3.906
  20427155.732   -20605966.110 7 -15871442.23223        24.750           3.313
 91  7  4  3 51 14.9980000  0  4G 3G21G17G23
  20782754.107      137243.462 7    106942.23022        21.500           1.625
  23989062.436     -298530.079 4                         6.250
  20049694.912    -5703131.284 7  -4443994.79824        26.750           3.813
  20421166.123   -20637445.914 7 -15895971.93023        24.500           3.406
 91  7  4  3 51 29.9980000  0  4G 3G21G17G23
  20787471.100      162032.666 7    126258.48822        21.750           1.563
  23977735.732     -358132.588 4        -0.04031         7.000           0.281
  20050180.006    -5700576.820 7  -4442004.30824        26.500           3.813
  20415194.568   -20668817.832 7 -15920417.55623        25.000           3.344
 91  7  4  3 51 44.9980000  0  4G 3G21G17G23
  20792210.686      186944.152 7    145670.01122        22.250           1.625
  23966395.756     -417699.436 4    -46415.65921         6.500           0.313
  20050679.334    -5697950.277 7  -4439957.64924        26.000           3.938
  20409247.514   -20700079.046 7 -15944776.92723        25.250           3.219
 91  7  4  3 51 59.9980000  0  4G 3G21G17G23
  20796974.764      211978.106 7    165176.97322        22.250           1.563
  23955062.334     -477230.357 4    -92803.31921         6.500           0.250
  20051194.818    -5695251.618 7  -4437854.79324        26.750           3.781
  20403317.248   -20731229.399 7 -15969049.90623        24.750           3.250
 91  7  4  3 52 14.9980000  0  4G 3G21G17G23
  20801760.834      237133.165 7    184778.31022        21.500           1.656
  23943747.990     -536726.395 4   -139163.73721         7.250           0.281
  20051719.740    -5692482.046 7  -4435696.68324        25.750           3.750
  20397412.475   -20762270.289 7 -15993237.59023        25.500           3.281
 91  7  4  3 52 29.9980000  0  4G 3G21G17G23
  20806573.568      262410.945 7    204475.26422        22.500           1.563
  23932425.787     -596185.784 4   -185495.65521         6.500           0.281
  20052262.107    -5689640.197 7  -4433482.25524        26.250           3.844
  20391526.428   -20793199.927 7 -16017338.58723        25.250           3.250
 91  7  4  3 52 44.9980000  0  4G 3G21G17G23
  20811404.607      287811.325 7    224267.74922        21.750           1.594
  23921120.865     -655608.215 5   -231798.78221         7.500           0.250
  20052814.920    -5686725.960 7  -4431211.42124        26.250           3.781
  20385660.732   -20824018.490 7 -16041353.02623        25.000           3.250
 91  7  4  3 52 59.9980000  0  4G 3G21G17G23
  20816260.389      313329.097 7    244151.71222        21.750           1.531
  23909821.459     -714998.450 5   -278076.78921         8.250           0.219
  20053383.068    -5683744.265 7  -4428888.02224        25.750           3.844
  20379818.061   -20854730.672 7 -16065284.57823        25.250           3.219
 91  7  4  3 53 14.9980000  0  4G 3G21G17G23
  20821142.061      338967.285 7    264129.50422        21.500           1.656
  23898527.756     -774353.201 5   -324327.15721         8.500           0.281
  20053963.334    -5680691.796 7  -4426509.47324        25.750           3.844
  20373995.631   -20885333.354 7 -16089130.80423        25.500           3.250
 91  7  4  3 53 29.9980000  0  4G 3G21G17G23
  20826039.803      364722.715 7    284198.65222        21.250           1.563
  23887235.654     -833675.530 5   -370552.27421         7.750           0.281
  20054556.654    -5677571.624 7  -4424078.16724        26.000           3.813
  20368190.295   -20915829.376 7 -16112893.91323        25.500           3.063
 91  7  4  3 53 44.9980000  0  4G 3G21G17G23
  20830963.436      390599.194 7    304362.12922        21.250           1.531
  23875955.904     -892961.408 5   -416748.96521         7.750           0.250
  20055165.334    -5674380.289 7  -4421591.41524        26.250           3.875
  20362407.592   -20946215.120 7 -16136571.09823        25.000           3.188
 91  7  4  3 53 59.9980000  0  4G 3G21G17G23
  20835913.772      416593.622 7    324617.52322        22.500           1.594
  23864679.482     -952213.677 5   -462919.49621         8.250           0.188
  20055784.522    -5671120.893 7  -4419051.63024        25.750           3.938
  20356646.686   -20976493.647 7 -16160164.73523        24.750           3.250
 91  7  4  3 54 14.9980000  0  4G 3G21G17G23
  20840883.967      442709.088 7    344967.21822        23.250           1.563
  23853415.053    -1011428.845 5   -509061.09721         8.500           0.188
  20056421.131    -5667790.067 7  -4416456.18024        26.750           3.844
  20350904.295   -21006661.532 7 -16183672.15523        23.500           3.281
 91  7  4  3 54 29.9980000  0  4G 3G21G17G23
  20845875.787      468946.918 7    365412.26622        22.750           1.594
  23842149.162    -1070605.531 5   -555172.73221         8.500           0.156
  20057066.053    -5664386.563 7  -4413804.09924        26.250           3.875
  20345185.834   -21036717.481 7 -16207092.35323        24.250           3.156
 91  7  4  3 54 44.9980000  0  4G 3G21G17G23
  20850890.654      495303.981 7    385950.22822        22.250           1.500
  23830892.990    -1129746.451 5   -601256.47121         8.500           0.188
  20057728.990    -5660913.336 7  -4411097.68524        27.000           3.781
  20339488.850   -21066664.434 7 -16230427.62023        25.000           3.313
 91  7  4  3 54 59.9980000  0  4G 3G21G17G23
  20855928.232      521780.266 7    406581.08521        22.500           1.469
  23819651.678    -1188851.445 5   -647312.23121         9.000           0.219
  20058401.717    -5657370.344 7  -4408336.90424        25.750           3.813
  20333810.772   -21096502.185 7 -16253677.79223        25.250           3.281
 91  7  4  3 55 14.9980000  0  4G 3G21G17G23
  20860989.365      548376.543 7    427305.43922        22.250           1.531
  23808409.803    -1247919.349 5   -693339.10621         9.000           0.188
  20059090.131    -5653756.495 7  -4405520.92024        26.250           3.750
  20328150.506   -21126229.809 7 -16276842.15523        24.250           3.250
 91  7  4  3 55 29.9980000  0  4G 3G21G17G23
  20866071.912      575091.986 7    448122.64722        22.000           1.563
  23797176.600    -1306950.898 5   -739337.63721         9.250           0.188
  20059791.154    -5650072.887 7  -4402650.57424        26.500           3.844
  20322515.678   -21155847.969 7 -16299921.22723        24.750           3.156
 91  7  4  3 55 44.9980000  0  4G 3G21G17G23
  20871178.842      601927.125 7    469033.13721        22.000           1.469
  23785951.514    -1365945.033 5   -785306.98821         9.000           0.281
  20060505.897    -5646318.638 7  -4399725.18324        26.000           3.781
  20316898.170   -21185355.939 7 -16322914.43023        24.750           3.188
 91  7  4  3 55 59.9980000  0  4G 3G21G17G23
  20876307.764      628880.283 7    490035.57921        21.750           1.406
  23774729.123    -1424903.475 5   -831248.55621         8.250           0.250
  20061233.350    -5642495.829 7  -4396746.37024        26.000           3.844
  20311305.154   -21214755.557 7 -16345823.20323        25.000           3.250
 91  7  4  3 56 14.9980000  0  4G 3G21G17G23
  20881459.404      655952.154 7    511130.52822        22.000           1.500
  23763516.545    -1483824.900 5   -877161.26521         8.500           0.313
  20061973.131    -5638603.267 7  -4393713.21024        25.750           3.750
  20305734.318   -21244045.660 7 -16368646.64223        25.250           3.219
 91  7  4  3 56 29.9980000  0  4G 3G21G17G23
  20886635.482      683144.543 7    532319.39521        21.500           1.469
  23752318.615    -1542707.421 5   -923043.67121         8.750           0.219
  20062727.357    -5634639.182 7  -4390624.30824        26.000           3.688
  20300181.061   -21273224.551 7 -16391383.41923        25.250           3.156
 91  7  4  3 56 44.9980000  0  4G 3G21G17G23
  20891831.326      710454.233 7    553599.65821        21.000           1.438
  23741113.459    -1601554.304 5   -968898.29921         7.750           0.375
  20063495.045    -5630606.943 7  -4387482.30224        26.250           3.625
  20294648.107   -21302295.331 7 -16414035.95923        25.750           3.125
 91  7  4  3 56 59.9980000  0  4G 3G21G17G23
  20897050.897      737880.743 7    574970.95021        22.000           1.406
  23729918.631    -1660365.277 5  -1014724.94421         7.500           0.313
  20064273.084    -5626506.510 7  -4384287.16224        25.500           3.625
  20289137.217   -21331258.072 7 -16436604.31123        25.250           3.156
 91  7  4  3 57 14.9980000  0  4G 3G21G17G23
  20902293.998      765427.119 7    596435.64521        21.500           1.406
  23718738.537    -1719137.238 5  -1060521.20321         7.750           0.219
  20065068.256    -5622334.914 7  -4381036.56024        25.500           3.719
  20283646.670   -21360109.752 7 -16459086.11823        25.500           3.094
 91  7  4  3 57 29.9980000  0  4G 3G21G17G23
  20907555.920      793092.714 7    617993.23521        21.000           1.406
  23707560.639    -1777870.311 5  -1106287.15421         7.750           0.344
  20065876.482    -5618092.535 7  -4377730.80524        26.000           3.688
  20278176.350   -21388850.799 7 -16481481.72023        25.000           3.094
 91  7  4  3 57 44.9980000  0  4G 3G21G17G23
  20912843.436      820876.535 7    639642.95621        20.750           1.344
  23696389.287    -1836565.429 5  -1152023.54021         7.750           0.344
  20066697.397    -5613780.535 7  -4374370.80324        26.500           3.781
  20272728.170   -21417482.247 7 -16503791.92423        25.000           3.000
 91  7  4  3 57 59.9980000  0  4G 3G21G17G23
  20918154.693      848777.956 7    661384.30821        20.750           1.313
  23685224.467    -1895222.927 5  -1197730.62021         7.500           0.313
  20067529.834    -5609399.561 7  -4370957.06024        26.500           3.688
  20267302.139   -21446004.392 7 -16526016.95023        25.500           3.031
 91  7  4  3 58 14.9980000  0  4G 3G21G17G23
  20923484.147      876795.904 7    683216.46521        20.750           1.281
  23674074.201    -1953843.623 5  -1243409.00921         8.250           0.438
  20068376.318    -5604950.794 7  -4367490.47724        26.500           3.656
  20261894.897   -21474418.374 7 -16548157.70023        25.000           3.031
 91  7  4  3 58 29.9980000  0  4G 3G21G17G23
  20928839.889      904932.911 7    705141.40821        21.000           1.281
  23662929.568    -2012424.584 5  -1289056.44421         7.750           0.500
  20069236.881    -5600431.022 7  -4363968.57224        26.250           3.656
  20256508.326   -21502721.207 7 -16570211.84323        25.000           2.969
 91  7  4  3 58 44.9980000  0  4G 3G21G17G23
  20934213.787      933189.493 7    727159.50721        20.500           1.250
  23651784.514    -2070964.907 5  -1334672.20621         7.500           0.469
  20070109.936    -5595839.852 7  -4360391.03624        26.750           3.563
  20251144.061   -21530912.488 7 -16592179.05523        25.250           2.969
 91  7  4  3 58 59.9980000  0  4G 3G21G17G23
  20939616.225      961558.841 7    749265.48921        21.250           1.250
  23640657.240    -2129471.124 5  -1380261.41521         8.000           0.406
  20070995.857    -5591184.119 7  -4356763.18624        26.500           3.563
  20245798.029   -21558998.734 7 -16614064.42123        24.250           3.031
 91  7  4  3 59 14.9980000  0  4G 3G21G17G23
  20945038.490      990046.410 7    771463.58421        21.750           1.406
  23629532.373    -2187937.718 5  -1425819.72321         7.750           0.406
  20071895.748    -5586458.325 7  -4353080.74824        26.250           3.531
  20240477.217   -21586974.490 7 -16635863.69923        25.000           3.094
 91  7  4  3 59 29.9980000  0  4G 3G21G17G23
  20950478.561     1018653.071 7    793754.46221        20.750           1.375
  23618408.717    -2246363.456 4  -1471346.21021         7.250           0.438
  20072809.420    -5581661.277 7  -4349342.78324        27.000           3.563
  20235172.076   -21614838.528 7 -16657575.91823        24.750           3.063
 91  7  4  3 59 44.9980000  0  4G 3G21G17G23
  20955946.381     1047377.907 7    816137.45321        21.000           1.375
  23607297.842    -2304749.040 4  -1516841.38721         6.750           0.500
  20073734.568    -5576793.992 7  -4345550.08724        25.750           3.531
  20229890.076   -21642591.753 7 -16679201.79623        25.000           3.031
 91  7  4  3 59 59.9980000  0  4G 3G21G17G23
  20961435.436     1076219.262 7    838611.22421        21.000           1.281
  23596198.045    -2363095.846 4  -1562306.36621         7.250           0.500
  20074674.256    -5571857.864 7  -4341703.75124        26.250           3.563
  20224630.373   -21670235.615 7 -16700742.45323        25.250           3.156
 91  7  4  4  0 14.9980000  0  4G 3G21G17G23
  20966943.451     1105175.819 7    861174.76221        20.500           1.313
  23585093.740    -2421404.901 4  -1607741.91421         6.500           0.406
  20075627.318    -5566854.259 7  -4337804.83024        26.750           3.563
  20219390.420   -21697771.586 7 -16722199.03823        25.000           3.094
 91  7  4  4  0 29.9980000  0  4G 3G21G17G23
  20972476.272     1134250.083 7    883830.02121        20.000           1.313
  23574010.740    -2479673.358 4  -1653145.84021         7.250           0.406
  20076591.342    -5561780.728 7  -4333851.42724        26.750           3.531
  20214173.576   -21725196.825 7 -16743569.34623        25.000           3.094
 91  7  4  4  0 44.9980000  0  4G 3G21G17G23
  20978033.443     1163441.559 7    906576.62021        20.750           1.313
  23562936.178    -2537901.419 5  -1698518.27521         7.750           0.531
  20077570.975    -5556637.225 7  -4329843.50324        27.000           3.531
  20208972.889   -21752511.491 7 -16764853.48523        24.250           3.156
 91  7  4  4  0 59.9980000  0  4G 3G21G17G23
  20983612.357     1192749.288 7    929413.80021        21.250           1.313
  23551861.561    -2596089.910 4  -1743859.89421         7.250           0.469
  20078562.139    -5551424.995 7  -4325782.02424        26.500           3.531
  20203798.436   -21779716.665 7 -16786052.30823        25.000           3.000
 91  7  4  4  1 14.9980000  0  4G 3G21G17G23
  20989209.943     1222172.568 7    952341.02421        21.250           1.250
  23540792.279    -2654238.939 4  -1789170.75421         7.000           0.563
  20079567.787    -5546144.311 7  -4321667.19323        26.250           3.469
  20198643.334   -21806812.692 7 -16807166.07623        25.250           3.063
 91  7  4  4  1 29.9980000  0  4G 3G21G17G23
  20994832.951     1251715.531 7    975361.50721        21.500           1.219
  23529737.311    -2712344.201 4  -1834447.52321         7.250           0.406
  20080585.045    -5540791.246 7  -4317495.97024        26.000           3.625
  20193505.654   -21833795.441 7 -16828191.57923        24.750           3.094
 91  7  4  4  1 44.9980000  0  4G 3G21G17G23
  21000473.436     1281373.525 7    998471.62321        21.500           1.219
  23518683.373    -2770410.129 4  -1879693.62621         6.500           0.438
  20081617.693    -5535370.126 7  -4313271.71224        26.750           3.813
  20188393.022   -21860669.296 7 -16849132.23123        25.000           3.125
 91  7  4  4  1 59.9980000  0  4G 3G21G17G23
  21006139.420     1311145.710 7   1021670.71621        21.000           1.281
  23507641.725    -2828437.277 4  -1924909.52621         7.250           0.438
  20082662.092    -5529881.777 7  -4308995.06824        26.750           3.563
  20183299.256   -21887435.131 7 -16869988.71123        24.500           3.125
 91  7  4  4  2 14.9980000  0  4G 3G21G17G23
  21011828.029     1341034.236 7   1044960.46621        21.500           1.219
  23496614.451    -2886423.237 5  -1970093.30921         8.250           0.406
  20083719.662    -5524324.052 7  -4304664.36624        27.000           3.531
  20178225.357   -21914090.690 7 -16890759.26123        24.000           3.094
 91  7  4  4  2 29.9980000  0  4G 3G21G17G23
  21017537.170     1371035.986 7   1068338.44021        21.500           1.219
  23485586.561    -2944370.701 5  -2015247.10521         8.250           0.313
  20084789.936    -5518699.909 7  -4300281.91324        27.000           3.719
  20173174.084   -21940638.727 7 -16911446.03023        24.250           3.188
 91  7  4  4  2 44.9980000  0  4G 3G21G17G23
  21023269.100     1401154.835 7   1091807.65821        21.500           1.313
  23474568.928    -3002275.502 5  -2060367.63721         8.500           0.438
  20085872.795    -5513005.324 7  -4295844.57024        26.500           3.625
  20168143.131   -21967075.298 7 -16932045.94223        24.500           3.188
 91  7  4  4  2 59.9980000  0  4G 3G21G17G23
  21029019.490     1431391.575 7   1115368.73621        20.500           1.281
  23463551.264    -3060136.583 5  -2105454.15021         8.500           0.375
  20086971.459    -5507239.499 7  -4291351.71724        26.500           3.750
  20163135.607   -21993399.592 7 -16952558.37123        25.750           3.125
 91  7  4  4  3 14.9980000  0  4G 3G21G17G23
  21034798.248     1461744.877 7   1139020.65121        21.000           1.281
  23452552.225    -3117955.207 5  -2150507.53721         8.500           0.438
  20088080.529    -5501403.744 7  -4286804.36924        26.000           3.656
  20158148.217   -22019612.960 7 -16972984.35923        25.500           3.031
 91  7  4  4  3 29.9980000  0  4G 3G21G17G23
  21040597.647     1492213.181 7   1162762.16921        21.250           1.188
  23441556.420    -3175732.228 5  -2195528.53521         8.500           0.406
  20089204.740    -5495499.172 7  -4282203.39024        26.500           3.656
  20153180.404   -22045716.305 7 -16993324.61923        25.500           3.031
 91  7  4  4  3 44.9980000  0  4G 3G21G17G23
  21046415.529     1522797.012 7   1186593.71421        20.750           1.313
  23430575.631    -3233467.070 5  -2240516.64221         9.000           0.438
  20090340.553    -5489525.179 7  -4277548.32924        25.750           3.750
  20148232.811   -22071709.185 7 -17013578.80023        25.250           3.031
 91  7  4  4  3 59.9980000  0  4G 3G21G17G23
  21052259.232     1553499.184 7   1210517.47521        20.500           1.219
  23419585.490    -3291156.625 5  -2285469.47521         8.250           0.344
  20091492.795    -5483478.917 7  -4272836.95124        26.000           3.656
  20143309.287   -22097588.523 7 -17033744.50523        26.000           2.969
 91  7  4  4  4 14.9980000  0  4G 3G21G17G23
  21058122.568     1584313.826 7   1234528.87021        20.500           1.250
  23408619.373    -3348806.399 5  -2330391.29421         8.750           0.375
  20092655.240    -5477366.333 7  -4268073.88324        25.500           3.750
  20138403.334   -22123360.231 7 -17053826.33923        25.750           3.000
 91  7  4  4  4 29.9980000  0  4G 3G21G17G23
  21064004.889     1615238.824 7   1258626.25121        20.000           1.313
  23397652.045    -3406418.161 5  -2375283.51421         8.750           0.375
  20093831.334    -5471189.208 7  -4263260.53824        25.500           3.875
  20133519.998   -22149026.006 7 -17073825.63523        25.750           2.969
 91  7  4  4  4 44.9980000  0  4G 3G21G17G23
  21069914.686     1646277.283 7   1282812.05221        20.500           1.250
  23386704.647    -3463988.733 5  -2420143.63021         9.000           0.281
  20095018.654    -5464944.502 7  -4258394.53424        25.000           3.781
  20128656.662   -22174582.975 7 -17093740.14423        26.000           2.969
 91  7  4  4  4 59.9980000  0  4G 3G21G17G23
  21075842.959     1677432.289 7   1307088.66721        20.000           1.156
  23375751.326    -3521514.606 5  -2464968.88821         9.000           0.406
  20096221.467    -5458628.919 7  -4253473.28724        26.250           3.875
  20123815.584   -22200027.749 7 -17113567.22423        25.500           2.969
 91  7  4  4  5 14.9980000  0  4G 3G21G17G23
  21081790.467     1708702.343 7   1331454.93121        20.000           1.125
  23364817.576    -3578996.925 5  -2509760.22421         9.500           0.250
  20097435.678    -5452243.895 7  -4248497.94124        25.750           3.906
  20118992.928   -22225361.571 7 -17133307.85023        25.250           2.875
 91  7  4  4  5 29.9980000  0  4G 3G21G17G23
  21087765.811     1740087.912 6   1355911.20921        19.750           1.125
  23353888.748    -3636434.826 5  -2554516.93521        10.000           0.406
  20098664.826    -5445788.575 7  -4243467.81324        26.500           3.813
  20114192.881   -22250583.827 7 -17152961.54423        25.250           2.969
 91  7  4  4  5 44.9980000  0  4G 3G21G17G23
  21093758.701     1771586.028 6   1380455.18021        19.750           1.063
  23342966.654    -3693831.109 5  -2599241.25921         9.500           0.375
  20099905.240    -5439266.052 7  -4238385.31924        26.250           3.844
  20109415.264   -22275697.707 7 -17172530.78323        25.750           2.938
 91  7  4  4  5 59.9980000  0  4G 3G21G17G23
  21099774.131     1803200.721 6   1405089.98121        19.750           1.063
  23332047.881    -3751181.216 5  -2643929.57021         9.000           0.250
  20101160.318    -5432672.145 7  -4233247.20324        26.000           3.875
  20104658.389   -22300698.652 7 -17192012.02523        25.750           2.938
 91  7  4  4  6 14.9980000  0  4G 3G21G17G23
  21105813.631     1834928.927 6   1429813.24721        19.750           1.094
  23321147.662    -3808488.088 5  -2688584.21321         9.250           0.344
  20102428.600    -5426009.937 7  -4228055.87124        25.750           3.781
  20099921.537   -22325589.721 7 -17211407.64723        26.000           2.938
 91  7  4  4  6 29.9980000  0  4G 3G21G17G23
  21111869.045     1866766.855 6   1454622.00821        19.000           1.094
  23310249.381    -3865755.530 5  -2733208.10021         9.500           0.281
  20103706.467    -5419282.969 7  -4222814.07024        25.500           3.844
  20095203.818   -22350374.688 7 -17230720.59723        26.000           2.875
 91  7  4  4  6 44.9980000  0  4G 3G21G17G23
  21117955.693     1898720.736 7   1479521.12121        20.000           1.188
  23299356.693    -3922976.627 5  -2777795.87821         8.500           0.281
  20105000.381    -5412484.630 7  -4217516.65724        26.000           3.875
  20090509.248   -22375046.848 7 -17249945.64123        25.750           2.969
 91  7  4  4  6 59.9980000  0  4G 3G21G17G23
  21124053.678     1930787.928 6   1504508.52421        19.750           1.156
  23288475.764    -3980153.673 5  -2822349.35721         8.250           0.344
  20106308.029    -5405617.670 7  -4212165.78324        26.250           3.844
  20085837.397   -22399608.859 7 -17269084.86023        26.500           2.844
 91  7  4  4  7 14.9980000  0  4G 3G21G17G23
  21130177.584     1962965.931 6   1529582.27721        19.750           1.156
  23277604.772    -4037288.738 5  -2866870.10221         8.250           0.281
  20107627.428    -5398684.538 7  -4206763.33824        26.000           3.813
  20081182.779   -22424063.026 7 -17288140.03523        26.500           2.875
 91  7  4  4  7 29.9980000  0  4G 3G21G17G23
  21136325.717     1995259.269 7   1554745.90621        20.250           1.188
  23266743.686    -4094377.279 5  -2911354.60321         8.500           0.313
  20108960.818    -5391680.489 7  -4201305.63624        26.000           3.844
  20076550.553   -22448404.727 7 -17307107.58323        26.500           3.031
 91  7  4  4  7 44.9980000  0  4G 3G21G17G23
  21142488.076     2027666.662 7   1579998.40221        20.250           1.125
  23255889.756    -4151420.139 5  -2955803.50321         8.500           0.375
  20110305.959    -5384606.789 7  -4195793.65924        25.000           3.906
  20071939.998   -22472634.943 7 -17325988.25823        27.000           2.844
 91  7  4  4  7 59.9980000  0  4G 3G21G17G23
  21148677.170     2060189.678 6   1605340.99621        19.500           1.094
  23245044.959    -4208415.623 5  -3000215.50821         9.250           0.313
  20111666.303    -5377461.421 7  -4190225.83724        25.500           3.813
  20067347.904   -22496752.280 7 -17344780.97123        26.250           2.875
 91  7  4  4  8 14.9980000  0  4G 3G21G17G23
  21154890.412     2092822.026 7   1630768.79421        20.000           1.250
  23234202.998    -4265369.675 5  -3044595.20521         8.750           0.375
  20113039.451    -5370250.795 7  -4184607.15824        26.250           3.781
  20062781.248   -22520762.679 7 -17363490.36323        26.250           3.000
 91  7  4  4  8 29.9980000  0  4G 3G21G17G23
  21161120.545     2125564.517 7   1656282.40621        20.250           1.125
  23223368.842    -4322281.055 5  -3088941.65921         9.000           0.281
  20114423.701    -5362973.914 7  -4178936.86624        26.500           3.844
  20058231.857   -22544665.092 7 -17382115.60223        26.000           2.969
 91  7  4  4  8 44.9980000  0  4G 3G21G17G23
  21167370.568     2158421.851 6   1681885.50621        19.500           1.063
  23212549.131    -4379144.963 5  -3133251.13121         9.000           0.375
  20115823.428    -5355626.102 7  -4173211.29924        27.500           3.906
  20053703.545   -22568455.086 7 -17400653.25223        25.500           2.875
 91  7  4  4  8 59.9980000  0  4G 3G21G17G23
  21173645.006     2191394.015 6   1707578.07721        19.750           1.188
  23201742.225    -4435960.880 5  -3177523.21421         8.500           0.375
  20117232.584    -5348207.151 7  -4167430.29624        27.000           3.875
  20049199.272   -22592132.227 7 -17419102.95523        25.750           2.906
 91  7  4  4  9 14.9980000  0  4G 3G21G17G23
  21179941.561     2224482.417 6   1733361.23421        19.000           1.125
  23190938.389    -4492727.000 5  -3221756.48121         8.250           0.344
  20118661.443    -5340715.524 8  -4161592.65524        28.500           3.781
  20044715.459   -22615694.851 7 -17437463.42023        25.750           2.938
 91  7  4  4  9 29.9980000  0  4G 3G21G17G23
  21186259.600     2257683.564 6   1759232.23521        19.000           1.063
  23180142.670    -4549446.471 5  -3265953.41221         8.000           0.500
  20120098.014    -5333154.376 8  -4155700.85224        28.750           3.844
  20040252.318   -22639146.245 7 -17455737.21623        25.250           2.844
 91  7  4  4  9 44.9980000  0  4G 3G21G17G23
  21192602.068     2290995.570 6   1785189.63221        19.500           1.094
  23169351.365    -4606121.198 5  -3310115.47421         7.750           0.344
  20121549.123    -5325525.510 8  -4149756.27324        28.000           3.844
  20035811.256   -22662488.459 7 -17473925.94023        26.000           2.813
 91  7  4  4  9 59.9980000  0  4G 3G21G17G23
  21198961.529     2324423.827 6   1811237.61521        19.750           1.125
  23158586.537    -4662745.272 5  -3354238.08821         9.000           0.313
  20123015.725    -5317823.519 7  -4143754.72024        27.500           3.844
  20031391.006   -22685715.807 7 -17492025.16023        25.500           2.813
 91  7  4  4 10 14.9980000  0  4G 3G21G17G23
  21205343.225     2357964.053 6   1837372.82921        19.750           1.094
  23147819.014    -4719322.502 5  -3398324.17221         9.250           0.406
  20124494.131    -5310052.362 7  -4137699.26924        27.250           3.813
  20026993.826   -22708832.310 7 -17510038.00423        26.000           2.719
 91  7  4  4 10 29.9980000  0  4G 3G21G17G23
  21211748.826     2391616.760 6   1863595.70321        19.750           1.125
  23137064.373    -4775852.105 5  -3442373.13821         9.500           0.438
  20125986.053    -5302211.592 7  -4131589.57624        27.500           3.844
  20022613.857   -22731837.353 7 -17527964.00223        25.500           2.813
 91  7  4  4 10 44.9980000  0  4G 3G21G17G23
  21218174.787     2425382.310 6   1889906.49921        19.500           1.125
  23126314.982    -4832333.494 5  -3486384.55721         9.500           0.406
  20127490.701    -5294300.614 7  -4125425.17024        26.500           3.813
  20018258.365   -22754730.452 7 -17545802.77023        25.750           2.875
 91  7  4  4 10 59.9980000  0  4G 3G21G17G23
  21224620.764     2459260.220 6   1916304.84921        19.500           1.156
  23115577.107    -4888767.100 5  -3530358.72621         9.750           0.500
  20129010.420    -5286319.734 7  -4119206.30224        26.750           3.906
  20013922.576   -22777512.033 7 -17563554.63523        25.500           2.906
 91  7  4  4 11 14.9980000  0  4G 3G21G17G23
  21231087.217     2493247.453 6   1942788.39521        19.500           1.094
  23104844.857    -4945155.494 5  -3574297.67821         9.500           0.500
  20130542.443    -5278271.917 7  -4112935.27124        26.000           3.781
  20009609.912   -22800184.832 7 -17581221.74123        26.000           2.875
 91  7  4  4 11 29.9980000  0  4G 3G21G17G23
  21237576.943     2527348.366 7   1969360.51621        20.250           1.188
  23094121.740    -5001493.743 5  -3618197.54521         9.000           0.469
  20132085.147    -5270152.576 7  -4106608.51224        25.250           3.875
  20005317.045   -22822744.225 7 -17598800.47423        26.750           2.844
 91  7  4  4 11 44.9980000  0  4G 3G21G17G23
  21244086.779     2561560.927 7   1996019.62921        20.000           1.156
  23083408.232    -5057783.841 5  -3662059.92321         8.750           0.656
  20133645.631    -5261963.987 7  -4100227.79524        26.500           3.906
  20001043.967   -22845192.490 7 -17616292.61223        26.000           2.781
 91  7  4  4 11 59.9980000  0  4G 3G21G17G23
  21250619.670     2595885.286 6   2022765.87621        19.750           1.031
  23072707.928    -5114025.233 5  -3705884.31321         9.000           0.594
  20135216.123    -5253705.485 7  -4093792.59424        26.250           3.813
  19996793.561   -22867529.112 7 -17633697.75923        26.250           2.875
 91  7  4  4 12 14.9980000  0  4G 3G21G17G23
  21257170.412     2630322.636 6   2049600.14721        18.500           1.000
  23062013.303    -5170216.386 5  -3749669.57221         9.250           0.563
  20136802.943    -5245375.775 7  -4087301.90524        27.000           3.969
  19992562.912   -22889752.574 7 -17651014.72923        25.750           2.844
 91  7  4  4 12 29.9980000  0  4G 3G21G17G23
  21263743.920     2664871.328 6   2076521.19721        18.750           1.000
  23051328.412    -5226358.566 5  -3793416.66421         9.000           0.500
  20138401.818    -5236976.244 7  -4080756.81624        27.500           4.063
  19988355.834   -22911864.573 7 -17668244.84323        25.750           2.813
 91  7  4  4 12 44.9980000  0  4G 3G21G17G23
  21270341.772     2699530.274 6   2103528.15321        19.500           1.156
  23040654.139    -5282452.717 5  -3837126.33721         8.750           0.656
  20140009.615    -5228508.000 7  -4074158.18724        26.500           4.031
  19984169.264   -22933866.082 7 -17685388.86723        26.000           2.875
 91  7  4  4 12 59.9980000  0  4G 3G21G17G23
  21276958.545     2734297.930 6   2130619.81221        18.250           1.094
  23029990.850    -5338499.805 5  -3880799.33721         9.500           0.625
  20141636.748    -5219972.231 7  -4067506.93124        27.250           4.094
  19980004.748   -22955758.361 7 -17702447.77023        26.000           2.969
 91  7  4  4 13 14.9980000  0  4G 3G21G17G23
  21283595.615     2769177.844 6   2157798.95021        19.000           1.063
  23019339.318    -5394496.111 5  -3924432.75421        10.000           0.594
  20143273.514    -5211365.514 7  -4060800.39724        27.500           4.188
  19975859.443   -22977537.953 7 -17719418.86723        25.750           2.969
 91  7  4  4 13 29.9980000  0  4G 3G21G17G23
  21290254.037     2804166.284 6   2185062.65121        18.250           1.000
  23008690.498    -5450445.001 5  -3968029.23821        10.000           0.594
  20144925.428    -5202691.276 8  -4054041.25324        28.250           4.281
  19971735.951   -22999208.190 7 -17736304.76123        25.500           3.031
 91  7  4  4 13 44.9980000  0  4G 3G21G17G23
  21296929.967     2839262.051 6   2212409.97621        17.750           1.031
  22998053.342    -5506347.456 5  -4011589.53421        10.500           0.625
  20146587.100    -5193950.346 7  -4047230.13824        27.750           4.250
  19967632.654   -23020770.116 7 -17753106.24323        25.250           2.844
 91  7  4  4 13 59.9980000  0  4G 3G21G17G23
  21303629.936     2874468.524 6   2239843.57721        17.500           1.063
  22987421.022    -5562199.716 5  -4055110.71221        10.500           0.625
  20148265.022    -5185139.389 7  -4040364.46024        27.750           4.219
  19963548.811   -23042220.153 7 -17769820.54823        25.000           2.813
 91  7  4  4 14 14.9980000  0  4G 3G21G17G23
  21310350.670     2909781.155 6   2267359.90221        17.250           0.875
  22976804.865    -5618005.993 5  -4098596.08021        11.000           0.594
  20149954.561    -5176262.861 7  -4033447.69024        27.750           4.094
  19959488.467   -23063562.961 7 -17786451.29823        25.000           2.875
 91  7  4  4 14 29.9980000  0  4G 3G21G17G23
  21317090.912     2945201.793 6   2294960.39021        17.000           0.906
  22966194.811    -5673763.837 5  -4142043.67221        11.000           0.594
  20151655.779    -5167318.722 7  -4026478.23024        27.750           4.094
  19955448.920   -23084796.381 7 -17802996.80823        25.500           2.781
 91  7  4  4 14 44.9980000  0  4G 3G21G17G23
  21323850.248     2980733.119 6   2322647.12321        17.250           0.938
  22955593.475    -5729470.462 5  -4185451.37721        11.250           0.594
  20153369.311    -5158304.081 7  -4019453.83124        27.250           3.906
  19951428.779   -23105917.522 7 -17819454.82023        25.500           2.719
 91  7  4  4 14 59.9980000  0  4G 3G21G17G23
  21330633.412     3016371.323 6   2350417.13121        17.500           0.969
  22945002.389    -5785129.483 5  -4228822.00021        10.750           0.688
  20155099.022    -5149222.769 7  -4012377.48724        27.750           3.938
  19947430.506   -23126930.094 7 -17835828.23923        25.250           2.750
 91  7  4  4 15 14.9980000  0  4G 3G21G17G23
  21337439.076     3052120.186 6   2378273.36721        17.750           1.063
  22934418.686    -5840736.651 5  -4272152.20421        10.250           0.500
  20156841.412    -5140070.739 8  -4005246.02824        28.000           4.031
  19943453.303   -23147830.344 7 -17852114.13723        25.750           2.625
 91  7  4  4 15 29.9980000  0  4G 3G21G17G23
  21344257.592     3087975.842 6   2406212.82421        17.000           0.969
  22923847.412    -5896295.607 5  -4315444.85021        10.500           0.594
  20158595.857    -5130851.553 7  -3998062.24724        27.250           3.875
  19939496.826   -23168621.665 7 -17868315.14423        26.250           2.625
 91  7  4  4 15 44.9980000  0  4G 3G21G17G23
  21351104.529     3123942.010 6   2434238.39221        17.500           0.969
  22913284.826    -5951801.916 5  -4358696.45921        10.750           0.531
  20160360.647    -5121561.310 7  -3990823.09724        27.000           3.938
  19935564.115   -23189300.026 7 -17884428.13523        26.500           2.656
 91  7  4  4 15 59.9980000  0  4G 3G21G17G23
  21357970.217     3160017.484 6   2462349.13021        18.000           0.969
  22902735.084    -6007256.847 5  -4401908.04721        11.250           0.531
  20162143.397    -5112201.395 7  -3983529.65424        27.000           3.969
  19931648.592   -23209867.079 7 -17900454.39923        26.000           2.625
 91  7  4  4 16 14.9980000  0  4G 3G21G17G23
  21364856.443     3196200.376 6   2490543.57121        18.500           0.938
  22892191.623    -6062661.832 5  -4445080.70321        11.000           0.594
  20163938.904    -5102773.152 7  -3976182.96724        27.000           3.875
  19927755.717   -23230324.291 7 -17916395.06823        26.000           2.813
 91  7  4  4 16 29.9980000  0  4G 3G21G17G23
  21371759.092     3232491.985 6   2518822.72421        18.250           0.969
  22881654.381    -6118015.310 5  -4488213.25021        11.000           0.469
  20165745.287    -5093275.231 7  -3968781.98924        26.500           4.000
  19923884.428   -23250670.243 7 -17932249.04823        26.500           2.750
 91  7  4  4 16 44.9980000  0  4G 3G21G17G23
  21378683.865     3268892.287 6   2547186.58121        17.250           0.969
  22871134.248    -6173316.958 5  -4531305.38021        11.500           0.531
  20167565.881    -5083707.582 7  -3961326.67724        27.750           4.031
  19920032.178   -23270904.719 7 -17948016.15323        25.750           2.813
 91  7  4  4 16 59.9980000  0  4G 3G21G17G23
  21385635.178     3305396.032 6   2575631.04021        18.500           0.938
  22860615.545    -6228571.771 5  -4574361.02421        10.250           0.406
  20169399.076    -5074075.295 7  -3953821.00024        26.750           4.125
  19916203.420   -23291032.837 7 -17963700.38923        26.500           2.875
 91  7  4  4 17 14.9980000  0  4G 3G21G17G23
  21392600.279     3342008.771 6   2604160.42321        18.000           1.000
  22850110.639    -6283773.637 5  -4617375.42321         9.750           0.531
  20171245.475    -5064372.449 7  -3946260.33724        26.000           4.156
  19912393.631   -23311048.656 7 -17979297.11523        27.000           2.969
 91  7  4  4 17 29.9980000  0  4G 3G21G17G23
  21399587.240     3378729.816 6   2632774.21221        18.000           0.969
  22839610.678    -6338922.989 5  -4660348.87721         9.500           0.406
  20173104.217    -5054599.811 7  -3938645.29524        25.750           4.125
  19908605.990   -23330953.079 7 -17994807.04123        27.250           2.875
 91  7  4  4 17 44.9980000  0  4G 3G21G17G23
  21406597.920     3415556.846 6   2661470.57521        18.250           0.938
  22829130.912    -6394021.779 5  -4703282.95421         9.500           0.438
  20174976.889    -5044759.496 7  -3930977.51924        25.750           4.094
  19904838.576   -23350748.190 7 -18010231.80223        27.250           2.938
 91  7  4  4 17 59.9980000  0  4G 3G21G17G23
  21413623.779     3452487.582 6   2690247.75121        17.500           1.000
  22818659.889    -6449071.765 5  -4746179.00621        10.250           0.469
  20176861.256    -5034853.299 7  -3923258.40524        25.750           4.094
  19901093.529   -23370435.872 7 -18025572.84223        27.750           2.906
 91  7  4  4 18 14.9980000  0  4G 3G21G17G23
  21420675.482     3489527.416 6   2719109.94521        17.500           1.063
  22808189.678    -6504067.475 5  -4789032.71921        10.000           0.438
  20178761.811    -5024876.089 7  -3915483.95024        26.750           4.125
  19897367.443   -23390010.801 7 -18040826.02023        27.500           2.938
 91  7  4  4 18 29.9980000  0  4G 3G21G17G23
  21427743.381     3526675.674 6   2748056.60521        17.250           1.031
  22797736.459    -6559009.227 5  -4831844.42821        10.000           0.406
  20180673.311    -5014828.274 7  -3907654.48524        26.250           4.156
  19893664.186   -23409473.543 7 -18055991.78823        27.500           2.875
 91  7  4  4 18 44.9980000  0  4G 3G21G17G23
  21434827.498     3563928.151 6   2777084.49421        17.250           0.969
  22787293.389    -6613901.055 5  -4874617.22721        10.250           0.500
  20182597.287    -5004713.726 7  -3899773.01824        25.500           4.094
  19889982.389   -23428827.990 8 -18071073.15723        28.250           2.813
 91  7  4  4 18 59.9980000  0  4G 3G21G17G23
  21441940.295     3601286.234 6   2806194.67321        17.750           0.969
  22776856.170    -6668741.081 5  -4917349.65821        10.000           0.375
  20184537.326    -4994530.853 7  -3891838.30724        26.250           4.000
  19886320.217   -23448072.633 7 -18086068.97223        27.750           2.875
 91  7  4  4 19 14.9980000  0  4G 3G21G17G23
  21449068.326     3638748.127 6   2835385.73621        17.750           0.969
  22766428.451    -6723530.807 5  -4960042.90321         9.750           0.563
  20186485.178    -4984281.202 7  -3883851.56324        25.750           3.875
  19882678.951   -23467209.107 7 -18100980.50023        27.500           2.781
 91  7  4  4 19 29.9980000  0  4G 3G21G17G23
  21456217.772     3676313.212 6   2864657.21321        17.000           0.844
  22756015.787    -6778270.407 5  -5002697.09721        10.000           0.438
  20188449.232    -4973965.347 7  -3875813.22924        26.500           3.844
  19879056.865   -23486237.874 7 -18115808.10323        27.500           2.656
 91  7  4  4 19 44.9980000  0  4G 3G21G17G23
  21463382.850     3713984.816 6   2894011.69121        16.750           0.844
  22745607.287    -6832956.391 5  -5045309.48921        10.250           0.406
  20190423.365    -4963579.704 7  -3867720.52624        25.750           3.875
  19875457.397   -23505155.651 8 -18130549.21623        28.250           2.781
 91  7  4  4 19 59.9980000  0  4G 3G21G17G23
  21470574.342     3751760.481 6   2923447.25821        16.750           0.875
  22735207.061    -6887590.634 5  -5087881.57021        10.250           0.531
  20192414.623    -4953126.787 7  -3859575.39124        26.250           3.781
  19871877.600   -23523964.540 7 -18145205.47823        27.500           2.656
 91  7  4  4 20 14.9980000  0  4G 3G21G17G23
  21477780.279     3789640.759 6   2952964.33021        16.250           0.906
  22724819.701    -6942172.343 5  -5130412.71621        10.250           0.531
  20194416.100    -4942605.756 7  -3851377.17824        25.750           3.875
  19868319.154   -23542663.861 7 -18159776.36723        27.500           2.781
 91  7  4  4 20 29.9980000  0  4G 3G21G17G23
  21485011.779     3827628.660 6   2982565.27021        17.000           0.906
  22714443.990    -6996698.333 5  -5172900.44321        10.250           0.594
  20196431.357    -4932013.567 7  -3843123.52724        25.750           3.875
  19864782.732   -23561250.473 7 -18174259.42723        27.250           2.688
 91  7  4  4 20 44.9980000  0  4G 3G21G17G23
  21492259.318     3865720.794 6   3012247.43721        16.500           0.813
  22704079.639    -7051171.429 5  -5215346.96021        10.500           0.531
  20198462.443    -4921353.070 7  -3834816.64224        26.500           3.844
  19861265.318   -23579727.675 7 -18188657.23423        26.750           2.750
 91  7  4  4 20 59.9980000  0  4G 3G21G17G23
  21499531.600     3903917.802 6   3042011.31921        17.000           0.844
  22693722.654    -7105590.803 5  -5257751.59421        10.500           0.500
  20200502.232    -4910623.755 7  -3826456.13424        26.000           3.875
  19857770.451   -23598094.617 7 -18202969.12623        27.250           2.781
 91  7  4  4 21 14.9980000  0  4G 3G21G17G23
  21506814.732     3942218.038 6   3071855.64321        16.750           0.844
  22683375.482    -7159957.675 5  -5300115.33721        10.750           0.531
  20202556.756    -4899826.949 7  -3818043.03924        25.500           3.781
  19854296.154   -23616352.725 7 -18217196.20923        27.250           2.719
 91  7  4  4 21 29.9980000  0  4G 3G21G17G23
  21514123.670     3980624.395 6   3101782.64121        16.500           0.656
  22673046.053    -7214268.739 5  -5342435.59321        11.750           0.469
  20204625.654    -4888959.483 7  -3809574.88524        25.500           3.906
  19850843.178   -23634498.965 7 -18231336.13523        27.750           2.656
 91  7  4  4 21 44.9980000  0  4G 3G21G17G23
  21521456.373     4019134.881 6   3131790.79921        16.750           0.781
  22662718.897    -7268525.547 5  -5384713.56821        11.500           0.563
  20206706.334    -4878023.357 7  -3801053.23424        25.250           3.906
  19847411.287   -23652535.047 8 -18245390.22123        28.000           2.656
 91  7  4  4 21 59.9980000  0  4G 3G21G17G23
  21528804.209     4057749.451 6   3161880.04521        17.250           0.781
  22652409.928    -7322727.788 6  -5426949.02621        12.250           0.563
  20208801.928    -4867018.133 7  -3792477.73524        26.000           3.906
  19843999.623   -23670461.072 7 -18259358.53423        27.250           2.844
 91  7  4  4 22 14.9980000  0  4G 3G21G17G23
  21536168.693     4096465.417 6   3192048.30821        17.250           0.844
  22642096.732    -7376877.990 5  -5469143.93221        11.500           0.563
  20210907.272    -4855946.450 7  -3783850.45724        25.750           3.938
  19840606.693   -23688279.222 7 -18273242.80823        26.750           2.750
 91  7  4  4 22 29.9980000  0  4G 3G21G17G23
  21543556.795     4135284.198 6   3222296.69621        17.250           0.813
  22631810.334    -7430974.413 6  -5511296.94121        12.500           0.625
  20213025.412    -4844806.824 7  -3775170.23124        24.250           3.906
  19837239.365   -23705988.278 8 -18287042.06323        28.250           2.781
 91  7  4  4 22 44.9980000  0  4G 3G21G17G23
  21550966.873     4174203.976 6   3252623.76821        17.250           0.750
  22621525.303    -7485018.337 6  -5553409.04021        12.750           0.656
  20215159.967    -4833600.804 7  -3766438.26324        24.750           3.875
  19833890.904   -23723589.779 8 -18300757.50323        28.000           2.813
 91  7  4  4 22 59.9980000  0  4G 3G21G17G23
  21558388.209     4213228.866 6   3283032.74721        16.750           0.781
  22611245.631    -7539005.554 6  -5595476.95921        12.250           0.719
  20217305.514    -4822324.038 7  -3757651.17624        25.250           4.031
  19830561.631   -23741079.597 8 -18314385.92423        28.000           2.594
 91  7  4  4 23 14.9980000  0  4G 3G21G17G23
  21565837.022     4252355.958 6   3313521.37021        17.250           0.750
  22600984.975    -7592938.446 6  -5637502.54621        12.000           0.531
  20219464.748    -4810979.346 7  -3748811.14924        25.000           4.063
  19827254.225   -23758460.275 8 -18327929.31023        28.250           2.563
 91  7  4  4 23 29.9980000  0  4G 3G21G17G23
  21573299.482     4291585.768 6   3344090.02921        17.000           0.750
  22590732.779    -7646816.260 6  -5679485.22021        12.000           0.750
  20221634.701    -4799566.056 7  -3739917.68024        24.750           3.906
  19823967.561   -23775731.151 8 -18341387.12423        28.250           2.625
 91  7  4  4 23 44.9980000  0  4G 3G21G17G23
  21580787.170     4330920.764 6   3374740.64821        17.250           0.781
  22580491.178    -7700636.259 6  -5721422.82321        12.000           0.688
  20223820.100    -4788081.585 7  -3730968.74124        25.250           3.875
  19820703.670   -23792889.957 8 -18354757.60823        28.000           2.563
 91  7  4  4 23 59.9980000  0  4G 3G21G17G23
  21588286.850     4370358.019 6   3405470.94721        16.500           0.719
  22570265.631    -7754400.719 6  -5763317.16621        12.750           0.781
  20226020.139    -4776528.289 7  -3721966.18024        25.750           3.938
  19817458.678   -23809938.956 7 -18368042.54223        27.750           2.500
 91  7  4  4 24 14.9980000  0  4G 3G21G17G23
  21595812.982     4409892.919 6   3436277.34721        16.250           0.719
  22560041.201    -7808114.121 6  -5805171.71421        13.000           0.688
  20228230.217    -4764910.843 7  -3712913.62324        25.500           3.875
  19814234.357   -23826882.780 8 -18381245.51323        28.000           2.563
 91  7  4  4 24 29.9980000  0  4G 3G21G17G23
  21603353.568     4449523.860 6   3467158.57521        16.000           0.719
  22549827.506    -7861777.742 6  -5846987.47221        12.750           0.781
  20230453.850    -4753230.405 7  -3703811.98824        26.250           3.938
  19811028.092   -23843722.957 7 -18394367.72023        27.500           2.563
 91  7  4  4 24 44.9980000  0  4G 3G21G17G23
  21610915.115     4489256.604 6   3498119.13221        16.250           0.750
  22539626.639    -7915385.447 6  -5888759.65621        12.500           0.813
  20232690.029    -4741481.236 7  -3694656.78324        26.250           3.875
  19807846.811   -23860453.692 7 -18407404.64323        27.750           2.563
 91  7  4  4 24 59.9980000  0  4G 3G21G17G23
  21618493.850     4529091.876 6   3529159.57221        16.250           0.688
  22529436.764    -7968935.966 5  -5930487.28021        11.750           0.844
  20234938.756    -4729662.264 7  -3685447.19324        26.500           3.906
  19804682.693   -23877073.779 7 -18420355.35322        27.500           2.438
 91  7  4  4 25 14.9980000  0  4G 3G21G17G23
  21626094.139     4569027.769 6   3560278.43421        16.750           0.625
  22519253.279    -8022431.184 5  -5972171.80621        11.500           0.781
  20237201.420    -4717775.613 7  -3676184.87024        26.750           3.938
  19801539.803   -23893585.233 7 -18433221.41623        27.250           2.531
 91  7  4  4 25 29.9980000  0  4G 3G21G17G23
  21633714.654     4609063.212 6   3591474.87421        17.000           0.781
  22509082.787    -8075871.554 5  -6013813.61421        11.750           0.844
  20239475.568    -4705821.916 7  -3666870.30824        26.250           3.844
  19798420.186   -23909988.872 7 -18446003.46223        27.750           2.594
 91  7  4  4 25 44.9980000  0  4G 3G21G17G23
  21641353.170     4649196.800 6   3622747.77721        17.000           0.688
  22498925.522    -8129258.073 6  -6055413.45721        12.500           0.781
  20241762.740    -4693802.140 7  -3657504.24824        26.250           3.875
  19795318.248   -23926285.869 7 -18458702.40623        27.750           2.688
 91  7  4  4 25 59.9970000  0  4G 3G21G17G23
  21649005.767     4689424.340 6   3654093.88921        16.750           0.656
  22488779.243    -8182588.522 6  -6096969.60021        12.500           0.781
  20244060.743    -4681718.848 7  -3648088.69724        25.750           3.906
  19792236.751   -23942476.474 7 -18471318.45623        27.500           2.656
 91  7  4  4 26 14.9970000  0  4G 3G21G17G23
  21656684.220     4729755.241 6   3685520.55121        17.250           0.625
  22478644.157    -8235865.393 6  -6138483.99121        12.000           0.844
  20246374.892    -4669565.614 7  -3638618.65024        25.500           3.781
  19789177.712   -23958558.720 8 -18483850.07223        28.000           2.813
 91  7  4  4 26 29.9970000  0  4G 3G21G17G23
  21664377.126     4770187.598 6   3717026.25321        16.500           0.656
  22468511.946    -8289084.161 6  -6179953.10421        12.000           0.813
  20248701.868    -4657342.579 7  -3629094.20824        26.250           3.781
  19786138.274   -23974530.644 8 -18496295.72023        28.000           2.719
 91  7  4  4 26 44.9970000  0  4G 3G21G17G23
  21672088.829     4810719.935 6   3748609.86721        15.750           0.688
  22458396.415    -8342245.927 6  -6221377.80921        12.000           0.688
  20251038.188    -4645051.058 7  -3619516.40024        26.500           3.813
  19783118.735   -23990393.645 7 -18508656.49323        27.000           2.719
 91  7  4  4 26 59.9970000  0  4G 3G21G17G23
  21679817.774     4851351.739 6   3780270.98521        15.250           0.594
  22448293.337    -8395350.901 6  -6262758.26921        12.000           0.781
  20253391.556    -4632691.340 7  -3609885.44724        27.000           3.719
  19780120.993   -24006147.787 7 -18520932.44423        27.000           2.656
 91  7  4  4 27 14.9970000  0  4G 3G21G17G23
  21687569.860     4892081.277 6   3812008.26321        15.250           0.719
  22438196.595    -8448400.517 5  -6304095.58921        11.750           0.813
  20255756.563    -4620265.057 7  -3600202.63324        27.750           3.813
  19777142.548   -24021794.925 7 -18533125.00723        27.000           2.594
 91  7  4  4 27 29.9970000  0  4G 3G21G17G23
  21695340.470     4932911.428 6   3843823.94921        15.250           0.563
  22428114.938    -8501391.575 6  -6345387.26821        12.250           0.656
  20258134.954    -4607768.911 7  -3590465.37024        27.500           3.750
  19774187.243   -24037331.817 7 -18545231.67323        27.000           2.656
 91  7  4  4 27 44.9970000  0  4G 3G21G17G23
  21703128.313     4973837.766 6   3875714.57821        15.250           0.656
  22418037.759    -8554327.947 6  -6386636.32621        12.250           0.750
  20260523.665    -4595206.925 7  -3580676.81024        27.000           3.750
  19771250.235   -24052762.727 7 -18557255.75523        27.500           2.563
 91  7  4  4 27 59.9970000  0  4G 3G21G17G23
  21710937.853     5014863.278 6   3907682.49021        15.500           0.688
  22407976.017    -8607206.371 6  -6427840.25121        12.250           0.781
  20262926.688    -4582576.143 7  -3570834.63824        27.000           3.813
  19768334.009   -24068084.582 7 -18569194.85223        27.000           2.563
 91  7  4  4 28 14.9970000  0  4G 3G21G17G23
  21718761.001     5055984.482 6   3939724.95921        15.250           0.656
  22397924.384    -8660029.937 6  -6469001.42621        12.000           0.688
  20265345.040    -4569879.958 7  -3560941.51124        27.250           3.781
  19765440.103   -24083300.642 7 -18581051.51623        27.500           2.625
 91  7  4  4 28 29.9970000  0  4G 3G21G17G23
  21726601.978     5097201.666 6   3971842.21621        14.500           0.688
  22387884.454    -8712798.023 6  -6510119.36021        12.000           0.844
  20267772.267    -4557117.927 7  -3550997.07024        27.250           3.781
  19762563.290   -24098410.477 7 -18592825.40823        27.000           2.500
 91  7  4  4 28 44.9970000  0  4G 3G21G17G23
  21734466.696     5138515.373 6   4004034.69721        14.750           0.531
  22377853.329    -8765509.682 6  -6551193.32221        12.000           0.688
  20270214.040    -4544289.157 7  -3541000.62524        27.750           3.813
  19759708.642   -24113413.450 7 -18604516.02523        27.000           2.563
 91  7  4  4 28 59.9970000  0  4G 3G21G17G23
  21742351.001     5179925.111 6   4036302.00121        15.500           0.531
  22367831.493    -8818164.993 5  -6592223.37221        11.750           0.719
  20272668.228    -4531393.841 7  -3530952.32724        27.750           3.719
  19756873.282   -24128309.726 7 -18616123.50223        26.750           2.563
 91  7  4  4 29 14.9970000  0  4G 3G21G17G23
  21750241.923     5221431.658 6   4068644.75321        14.750           0.625
  22357818.923    -8870762.802 5  -6633208.63121        11.500           0.656
  20275134.142    -4518430.933 7  -3520851.36024        27.250           3.688
  19754059.056   -24143098.357 7 -18627647.10823        27.250           2.500
 91  7  4  4 29 29.9970000  0  4G 3G21G17G23
  21758162.454     5263033.124 6   4101061.46521        15.000           0.563
  22347823.313    -8923304.875 6  -6674150.46721        12.000           0.594
  20277613.056    -4505402.401 7  -3510699.25524        26.000           3.781
  19751265.165   -24157781.285 8 -18639088.34923        28.000           2.531
 91  7  4  4 29 44.9970000  0  4G 3G21G17G23
  21766094.048     5304734.588 6   4133556.07021        14.750           0.625
  22337839.392    -8975785.592 6  -6715044.48221        12.500           0.688
  20280106.173    -4492302.609 7  -3500491.62424        25.000           3.781
  19748492.556   -24172353.271 8 -18650443.13323        28.250           2.531
 91  7  4  4 29 59.9970000  0  4G 3G21G17G23
  21774051.040     5346531.519 6   4166125.09521        15.000           0.563
  22327859.399    -9028209.115 6  -6755893.92921        12.500           0.750
  20282610.821    -4479135.970 7  -3490231.89624        24.750           3.750
  19745741.298   -24186818.590 8 -18661714.80223        28.750           2.656
 91  7  4  4 30 14.9970000  0  4G 3G21G17G23
  21782021.978     5388422.945 6   4198767.74921        14.750           0.656
  22317896.978    -9080576.047 6  -6796699.28221        13.000           0.688
  20285131.063    -4465903.494 7  -3479920.88824        25.500           3.781
  19743008.056   -24201178.115 8 -18672904.02823        28.250           2.656
 91  7  4  4 30 29.9970000  0  4G 3G21G17G23
  21790012.056     5430412.108 6   4231486.56021        14.750           0.656
  22307943.470    -9132882.762 6  -6837457.72121        13.500           0.844
  20287662.001    -4452601.629 7  -3469555.80624        26.000           3.813
  19740296.204   -24215428.501 7 -18684008.22323        27.500           2.594
 91  7  4  4 30 44.9970000  0  4G 3G21G17G23
  21798021.696     5472495.169 6   4264278.54521        14.750           0.594
  22298001.376    -9185132.716 6  -6878171.91121        13.500           0.781
  20290205.235    -4439233.693 7  -3459139.23224        26.250           3.813
  19737604.454   -24229573.230 7 -18695030.08623        27.500           2.625
 91  7  4  4 30 59.9970000  0  4G 3G21G17G23
  21806043.782     5514672.692 6   4297144.11821        14.250           0.563
  22288065.938    -9237325.345 6  -6918841.45321        13.750           0.719
  20292760.251    -4425799.348 7  -3448670.91824        26.250           3.813
  19734932.915   -24243611.699 7 -18705969.15323        27.500           2.656
 91  7  4  4 31 14.9970000  0  4G 3G21G17G23
  21814091.415     5556943.562 6   4330082.44021        14.500           0.531
  22278146.274    -9289461.209 6  -6959466.75221        14.000           0.844
  20295330.743    -4412299.275 7  -3438151.37024        26.250           4.000
  19732281.079   -24257544.843 7 -18716826.14123        27.250           2.625
 91  7  4  4 31 29.9970000  0  4G 3G21G17G23
  21822150.665     5599309.603 6   4363094.91521        14.250           0.500
  22268239.642    -9341538.007 6  -7000046.03621        14.250           0.781
  20297911.938    -4398731.439 7  -3427579.04224        26.500           3.844
  19729650.024   -24271370.559 7 -18727599.41423        27.000           2.625
 91  7  4  4 31 44.9970000  0  4G 3G21G17G23
  21830232.649     5641767.464 6   4396178.94321        14.750           0.594
  22258340.118    -9393558.719 6  -7040581.61421        13.500           0.719
  20300507.485    -4385099.030 7  -3416956.38324        27.250           3.781
  19727039.665   -24285092.274 7 -18738291.65623        26.750           2.594
 91  7  4  4 31 59.9970000  0  4G 3G21G17G23
  21838328.845     5684319.549 6   4429336.38621        14.750           0.594
  22248451.290    -9445520.518 6  -7081071.29021        13.750           0.844
  20303115.017    -4371399.037 7  -3406281.06424        27.750           3.688
  19724448.024   -24298707.173 7 -18748900.65623        26.500           2.563
 91  7  4  4 32 14.9970000  0  4G 3G21G17G23
  21846442.751     5726964.029 6   4462565.83221        14.750           0.531
  22238573.954    -9497425.034 6  -7121516.31321        14.250           0.844
  20305734.360    -4357633.631 8  -3395554.77724        28.250           3.656
  19721875.915   -24312217.043 7 -18759427.82723        25.750           2.594
 91  7  4  4 32 29.9970000  0  4G 3G21G17G23
  21854576.696     5769702.126 6   4495868.21021        14.750           0.563
  22228707.384    -9549270.729 6  -7161915.51321        14.250           0.906
  20308366.946    -4343801.263 8  -3384776.30424        28.000           3.594
  19719326.360   -24325620.566 7 -18769872.12423        26.000           2.531
 91  7  4  4 32 44.9970000  0  4G 3G21G17G23
  21862729.665     5812532.893 6   4529242.81521        15.500           0.531
  22218854.462    -9601058.086 6  -7202269.25321        14.000           0.813
  20311010.501    -4329902.262 7  -3373945.91524        27.250           3.656
  19716796.462   -24338918.570 7 -18780234.19923        26.500           2.531
 91  7  4  4 32 59.9970000  0  4G 3G21G17G23
  21870897.923     5855458.832 6   4562691.56621        14.750           0.531
  22209007.345    -9652784.097 6  -7242575.19921        13.750           0.813
  20313668.165    -4315934.135 7  -3363061.66624        27.750           3.688
  19714285.938   -24352108.056 7 -18790511.71323        26.500           2.531
 91  7  4  4 33 14.9970000  0  4G 3G21G17G23
  21879084.157     5898479.225 6   4596213.93321        14.000           0.656
  22199177.493    -9704449.268 6  -7282833.73521        14.000           0.906
  20316340.063    -4301897.364 8  -3352123.91924        28.000           3.500
  19711797.392   -24365189.609 7 -18800705.12823        26.750           2.531
 91  7  4  4 33 29.9970000  0  4G 3G21G17G23
  21887285.001     5941590.363 6   4629806.99121        13.250           0.469
  22189355.142    -9756056.827 6  -7323047.37321        14.250           0.875
  20319022.931    -4287795.507 7  -3341135.45623        27.750           3.406
  19709327.384   -24378167.054 7 -18810817.41423        27.000           2.625
 91  7  4  4 33 44.9970000  0  4G 3G21G17G23
  21895507.673     5984796.937 6   4663474.43421        14.250           0.438
  22179550.790    -9807601.857 6  -7363212.29221        15.250           0.875
  20321719.485    -4273623.624 7  -3330092.43123        27.250           3.281
  19706878.306   -24391035.560 7 -18820844.81023        27.000           2.594
 91  7  4  4 33 59.9970000  0  4G 3G21G17G23
  21903747.251     6028096.092 6   4697214.00021        13.750           0.563
  22169752.454    -9859086.749 6  -7403330.34221        15.250           0.906
  20324429.313    -4259384.367 7  -3318996.90123        26.500           3.125
  19704449.884   -24403797.641 7 -18830789.27923        27.750           2.500
 91  7  4  4 34 14.9970000  0  4G 3G21G17G23
  21912005.735     6071489.954 6   4731027.38221        14.000           0.500
  22159966.571    -9910509.034 6  -7443399.62021        15.250           0.938
  20327153.712    -4245075.400 7  -3307847.05023        26.500           3.219
  19702041.118   -24416451.266 7 -18840649.23223        27.250           2.594
 91  7  4  4 34 29.9970000  0  4G 3G21G17G23
  21920279.024     6114976.515 6   4764912.97621        13.750           0.531
  22150190.767    -9961870.303 6  -7483421.34021        14.500           0.969
  20329888.251    -4230698.252 7  -3296644.07823        26.500           3.281
  19699654.993   -24428997.927 7 -18850425.85223        27.500           2.625
 91  7  4  4 34 44.9970000  0  4G 3G21G17G23
  21928574.321     6158555.412 6   4798870.53521        14.000           0.406
  22140431.321   -10013170.691 6  -7523395.63521        14.000           0.969
  20332638.899    -4216253.252 7  -3285388.22923        26.750           3.188
  19697288.618   -24441437.843 7 -18860119.28923        27.500           2.531
 91  7  4  4 34 59.9970000  0  4G 3G21G17G23
  21936886.353     6202226.307 6   4832899.78621        15.000           0.438
  22130679.142   -10064410.106 6  -7563322.41021        14.000           0.938
  20335399.806    -4201740.557 7  -3274079.64023        26.500           3.219
  19694939.813   -24453771.339 7 -18869729.79723        27.000           2.563
 91  7  4  4 35 14.9970000  0  4G 3G21G17G23
  21945210.954     6245986.950 6   4866998.95021        15.000           0.438
  22120941.517   -10115590.331 6  -7603203.08221        13.750           0.906
  20338173.251    -4187161.955 7  -3262719.69023        26.000           3.313
  19692612.470   -24466000.435 7 -18879258.95823        26.750           2.531
 91  7  4  4 35 29.9970000  0  4G 3G21G17G23
  21953556.118     6289840.711 6   4901170.68821        15.250           0.500
  22111212.603   -10166707.896 6  -7643034.90521        13.250           0.844
  20340959.290    -4172514.067 7  -3251305.74623        25.250           3.281
  19690307.485   -24478121.882 7 -18888704.23523        27.250           2.531
 91  7  4  4 35 44.9970000  0  4G 3G21G17G23
  21961917.438     6333785.779 6   4935413.56921        14.500           0.563
  22101498.642   -10217764.029 6  -7682818.87321        13.500           0.906
  20343760.087    -4157798.456 7  -3239839.03923        26.250           3.375
  19688020.243   -24490137.084 7 -18898066.73023        27.000           2.625
 91  7  4  4 35 59.9970000  0  4G 3G21G17G23
  21970297.978     6377819.334 6   4969725.40321        15.000           0.469
  22091792.821   -10268761.157 6  -7722556.86021        13.500           0.813
  20346573.579    -4143017.834 7  -3228321.66923        26.250           3.188
  19685753.173   -24502048.668 7 -18907348.48323        26.750           2.625
 91  7  4  4 36 14.9970000  0  4G 3G21G17G23
  21978697.735     6421942.292 6   5004106.90821        14.500           0.531
  22082098.329   -10319697.987 6  -7762247.86821        13.250           0.875
  20349399.923    -4128170.855 7  -3216752.60123        26.500           3.313
  19683507.032   -24513855.595 7 -18916548.68023        27.500           2.719
 91  7  4  4 36 29.9970000  0  4G 3G21G17G23
  21987110.618     6466163.912 6   5038565.28321        14.250           0.563
  22072415.470   -10370564.806 6  -7801884.31621        14.000           0.938
  20352238.478    -4113247.913 7  -3205124.32823        26.500           3.406
  19681282.157   -24525548.351 7 -18925659.91123        26.750           2.625
 91  7  4  4 36 44.9970000  0  4G 3G21G17G23
  21995538.134     6510469.901 6   5073089.40321        14.250           0.531
  22062749.579   -10421375.769 6  -7841477.24321        14.250           0.969
  20355087.853    -4098263.267 7  -3193447.97423        25.750           3.375
  19679075.696   -24537141.156 7 -18934693.26223        26.750           2.563
 91  7  4  4 36 59.9970000  0  4G 3G21G17G23
  22003986.985     6554862.818 6   5107681.26621        13.750           0.500
  22053090.142   -10472127.776 6  -7881024.22521        14.000           1.000
  20357953.103    -4083213.999 7  -3181721.26923        26.250           3.438
  19676888.517   -24548631.310 7 -18943646.62223        27.000           2.531
 91  7  4  4 37 14.9970000  0  4G 3G21G17G23
  22012452.118     6599346.862 6   5142344.11921        13.750           0.375
  22043444.345   -10522816.243 6  -7920521.70121        13.250           0.969
  20360832.032    -4068095.677 7  -3169940.75424        27.000           3.594
  19674724.517   -24560014.372 7 -18952516.53423        27.500           2.531
 91  7  4  4 37 29.9970000  0  4G 3G21G17G23
  22020934.548     6643920.707 6   5177076.96921        14.000           0.375
  22033810.743   -10573442.064 6  -7959970.36421        14.000           1.063
  20363719.782    -4052909.334 7  -3158107.24124        27.000           3.500
  19672576.915   -24571291.364 7 -18961303.79222        26.750           2.469
 91  7  4  4 37 44.9970000  0  4G 3G21G17G23
  22029435.759     6688583.370 6   5211879.00821        14.250           0.531
  22024193.056   -10624006.253 6  -7999371.00021        14.250           1.000
  20366622.118    -4037656.245 7  -3146221.72023        26.750           3.375
  19670450.720   -24582463.675 7 -18970009.48423        26.750           2.531
 91  7  4  4 37 59.9970000  0  4G 3G21G17G23
  22037951.188     6733334.363 6   5246749.88921        14.250           0.438
  22014577.298   -10674508.624 6  -8038723.45921        13.500           0.938
  20369538.595    -4022336.127 7  -3134283.96223        27.250           3.406
  19668345.735   -24593531.213 7 -18978633.53523        27.000           2.531
 91  7  4  4 38 14.9970000  0  4G 3G21G17G23
  22046487.001     6778172.461 6   5281688.63521        13.500           0.563
  22004980.438   -10724950.027 6  -8078028.42721        13.250           0.969
  20372466.212    -4006950.033 7  -3122294.79423        27.750           3.438
  19666258.845   -24604494.930 7 -18987176.68323        26.500           2.531
 91  7  4  4 38 29.9970000  0  4G 3G21G17G23
  22055030.493     6823097.676 6   5316695.27321        12.250           0.469
  21995392.884   -10775330.164 6  -8117285.64921        13.250           1.000
  20375407.626    -3991497.766 7  -3110254.06823        27.750           3.406
  19664192.978   -24615354.712 7 -18995638.85023        26.750           2.594
 91  7  4  4 38 44.9970000  0  4G 3G21G17G23
  22063593.017     6868111.935 6   5351771.29921        12.000           0.438
  21985818.313   -10825646.732 6  -8156493.33421        14.000           0.969
  20378359.743    -3975977.281 7  -3098160.18124        27.500           3.563
  19662145.626   -24626108.536 7 -19004018.44923        26.750           2.563
 91  7  4  4 38 59.9970000  0  4G 3G21G17G23
  22072180.993     6913214.586 6   5386916.20421        13.000           0.375
  21976259.478   -10875899.821 6  -8195651.55521        14.250           1.031
  20381326.134    -3960388.845 7  -3086013.34523        27.000           3.469
  19660120.509   -24636756.884 7 -19012315.85423        26.750           2.500
 91  7  4  4 39 14.9970000  0  4G 3G21G17G23
  22080779.368     6958403.727 6   5422128.48621        12.750           0.469
  21966704.540   -10926090.988 6  -8234761.52621        14.250           1.125
  20384305.681    -3944734.052 7  -3073814.80724        27.250           3.500
  19658113.313   -24647301.516 7 -19020532.44623        26.750           2.656
 91  7  4  4 39 29.9970000  0  4G 3G21G17G23
  22089396.509     7003679.513 6   5457408.31421        13.250           0.406
  21957166.110   -10976220.009 6  -8273823.07021        14.500           1.063
  20387295.704    -3929012.567 7  -3061564.29924        26.750           3.500
  19656126.415   -24657742.317 7 -19028668.13523        26.750           2.500
 91  7  4  4 39 44.9970000  0  4G 3G21G17G23
  22098027.259     7049045.594 6   5492758.46521        13.000           0.438
  21947640.079   -11026282.616 6  -8312832.85321        14.500           1.156
  20390299.978    -3913220.545 7  -3049258.82724        26.500           3.563
  19654160.759   -24668075.318 7 -19036719.81623        26.750           2.563
 91  7  4  4 39 59.9970000  0  4G 3G21G17G23
  22106674.423     7094497.275 6   5528175.33321        12.500           0.406
  21938124.274   -11076283.072 6  -8351794.20821        14.750           1.063
  20393320.454    -3897362.335 7  -3036901.77524        27.250           3.594
  19652213.110   -24678304.882 7 -19044690.90223        26.250           2.656
 91  7  4  4 40 14.9970000  0  4G 3G21G17G23
  22115342.845     7140036.535 6   5563660.45121        13.000           0.375
  21928624.868   -11126219.197 6  -8390705.44621        15.750           1.063
  20396351.438    -3881435.903 7  -3024491.57124        27.000           3.625
  19650286.587   -24688428.912 7 -19052579.75323        26.000           2.563
 91  7  4  4 40 29.9970000  0  4G 3G21G17G23
  22124021.165     7185661.740 6   5599212.53021        12.250           0.406
  21919131.634   -11176092.180 6  -8429567.47021        15.500           1.094
  20399394.220    -3865442.638 7  -3012029.28724        26.750           3.531
  19648380.501   -24698448.921 7 -19060387.54723        26.000           2.531
 91  7  4  4 40 44.9970000  0  4G 3G21G17G23
  22132722.024     7231370.605 6   5634829.81521        12.250           0.469
  21909652.595   -11225903.835 6  -8468381.72121        15.250           1.031
  20402448.931    -3849384.497 7  -2999516.44624        26.750           3.531
  19646492.509   -24708367.025 7 -19068115.94222        25.500           2.469
 91  7  4  4 40 59.9970000  0  4G 3G21G17G23
  22141436.509     7277164.919 6   5670513.68321        12.750           0.406
  21900185.642   -11275652.314 6  -8507146.72621        15.500           1.000
  20405518.384    -3833259.514 7  -2986951.52324        27.000           3.500
  19644625.079   -24718181.425 7 -19075763.52022        25.250           2.469
 91  7  4  4 41 14.9970000  0  4G 3G21G17G23
  22150167.548     7323044.272 6   5706263.80021        13.250           0.438
  21890732.517   -11325337.240 6  -8545862.22221        15.750           1.094
  20408597.735    -3817067.459 7  -2974334.33723        26.250           3.375
  19642776.665   -24727892.107 7 -19083330.27623        25.750           2.563
 91  7  4  4 41 29.9970000  0  4G 3G21G17G23
  22158916.806     7369006.262 6   5742078.30921        13.250           0.344
  21881289.837   -11374960.704 6  -8584529.82721        16.000           1.156
  20411691.798    -3800810.859 7  -2961666.85723        26.250           3.281
  19640948.470   -24737501.415 7 -19090818.05123        25.500           2.531
 91  7  4  4 41 44.9970000  0  4G 3G21G17G23
  22167681.267     7415055.467 6   5777960.78821        12.750           0.313
  21871860.493   -11424517.860 6  -8623145.75421        15.750           1.156
  20414799.540    -3784484.924 7  -2948945.34823        27.000           3.375
  19639141.048   -24747004.474 7 -19098223.02622        25.750           2.469
 91  7  4  4 41 59.9970000  0  4G 3G21G17G23
  22176455.931     7461188.160 6   5813908.31321        12.000           0.406
  21862438.470   -11474012.131 6  -8661712.68821        14.500           1.125
  20417919.142    -3768093.197 7  -2936172.57423        27.250           3.250
  19637351.485   -24756405.146 7 -19105548.22123        26.250           2.563
 91  7  4  4 42 14.9970000  0  4G 3G21G17G23
  22185250.626     7507404.526 5   5849921.04121        11.750           0.438
  21853033.095   -11523442.650 6  -8700229.94121        14.750           1.125
  20421051.454    -3751634.691 7  -2923347.76023        27.500           3.313
  19635583.048   -24765702.790 7 -19112793.13323        26.000           2.531
 91  7  4  4 42 29.9970000  0  4G 3G21G17G23
  22194059.501     7553702.258 6   5885997.17421        12.250           0.313
  21843639.274   -11572811.673 6  -8738699.26221        14.500           1.063
  20424194.868    -3735111.857 7  -2910472.83023        27.500           3.344
  19633830.438   -24774899.733 7 -19119959.57223        25.250           2.500
 91  7  4  4 42 44.9970000  0  4G 3G21G17G23
  22202886.493     7600083.867 6   5922138.68621        12.500           0.375
  21834255.243   -11622116.190 6  -8777118.33121        14.750           1.063
  20427354.204    -3718521.864 7  -2897545.56123        27.250           3.313
  19632101.228   -24783993.365 7 -19127045.52123        26.000           2.656
 91  7  4  4 42 59.9970000  0  4G 3G21G17G23
  22211733.431     7646547.492 6   5958344.07721        13.250           0.406
  21824885.978   -11671357.649 6  -8815488.25821        14.750           1.094
  20430520.837    -3701866.399 7  -2884567.27923        26.250           3.344
  19630390.985   -24792985.120 7 -19134052.07623        26.250           2.563
 91  7  4  4 43 14.9970000  0  4G 3G21G17G23
  22220586.204     7693092.140 6   5994612.64021        12.500           0.625
  21815525.774   -11720536.687 6  -8853809.54821        15.250           1.000
  20433703.712    -3685146.411 7  -2871538.71523        26.500           3.250
  19628698.126   -24801876.016 7 -19140980.03923        25.750           2.531
 91  7  4  4 43 29.9970000  0  4G 3G21G17G23
  22229456.853     7739719.364 6   6030945.50221        12.500           0.531
  21806184.071   -11769651.592 6  -8892080.86821        16.000           1.000
  20436896.204    -3668360.004 7  -2858458.40123        26.000           3.156
  19627026.126   -24810664.402 7 -19147828.12522        26.250           2.469
 91  7  4  4 43 44.9970000  0  4G 3G21G17G23
  22238345.923     7786427.975 6   6067341.79121        12.500           0.469
  21796848.681   -11818702.741 6  -8930302.50021        15.750           1.063
  20440104.228    -3651507.507 7  -2845326.59523        26.000           3.219
  19625373.938   -24819350.909 7 -19154596.82823        26.000           2.563
 91  7  4  4 43 59.9970000  0  4G 3G21G17G23
  22247254.603     7833219.271 6   6103802.52821        13.000           0.406
  21787527.032   -11867688.934 6  -8968473.51421        15.750           1.000
  20443323.970    -3634587.990 7  -2832142.55723        26.500           3.156
  19623738.712   -24827934.614 7 -19161285.42723        25.500           2.594
 91  7  4  4 44 14.9970000  0  4G 3G21G17G23
  22256172.259     7880091.262 6   6140326.11921        13.250           0.375
  21778218.470   -11916611.506 6  -9006594.95321        15.250           1.094
  20446557.376    -3617603.081 7  -2818907.56223        26.500           3.125
  19622126.368   -24836417.162 7 -19167895.19923        25.750           2.594
 91  7  4  4 44 29.9970000  0  4G 3G21G17G23
  22265108.821     7927047.702 6   6176915.53421        14.000           0.438
  21768921.274   -11965466.389 6  -9044663.64921        15.500           1.094
  20449802.079    -3600548.957 7  -2805618.63323        26.250           3.250
  19620531.423   -24844794.328 7 -19174422.85423        25.250           2.625
 91  7  4  4 44 44.9970000  0  4G 3G21G17G23
  22274061.173     7974084.780 6   6213567.76621        14.250           0.563
  21759633.837   -12014256.983 6  -9082682.25321        15.000           1.063
  20453059.673    -3583428.938 7  -2792278.35923        26.500           3.094
  19618955.321   -24853069.990 7 -19180871.41423        24.500           2.625
 91  7  4  4 44 59.9970000  0  4G 3G21G17G23
  22283027.532     8021201.291 6   6250281.91621        13.750           0.438
  21750361.540   -12062983.911 6  -9120651.24821        15.000           1.031
  20456331.110    -3566243.737 7  -2778887.29423        26.250           3.063
  19617400.040   -24861244.957 7 -19187241.51423        25.000           2.719
 91  7  4  4 45 14.9970000  0  4G 3G21G17G23
  22292007.626     8068400.076 6   6287060.15921        14.000           0.469
  21741101.845   -12111644.372 6  -9158568.45521        15.500           1.125
  20459612.165    -3548990.511 7  -2765443.22723        25.500           3.156
  19615863.728   -24869316.494 7 -19193531.02123        25.250           2.594
 91  7  4  4 45 29.9970000  0  4G 3G21G17G23
  22301005.704     8115678.427 6   6323900.40721        14.000           0.406
  21731855.157   -12160240.246 6  -9196435.32721        16.000           1.219
  20462906.853    -3531671.460 7  -2751947.86323        25.500           3.125
  19614346.313   -24877287.076 7 -19199741.86323        25.750           2.719
 91  7  4  4 45 44.9970000  0  4G 3G21G17G23
  22310012.196     8163037.207 6   6360803.31621        13.250           0.438
  21722619.634   -12208770.601 6  -9234251.14321        16.250           1.188
  20466215.048    -3514285.611 7  -2738400.45623        24.500           3.188
  19612851.048   -24885155.662 7 -19205873.22323        26.750           2.563
 91  7  4  4 45 59.9970000  0  4G 3G21G17G23
  22319041.946     8210476.336 6   6397768.85821        13.500           0.313
  21713397.790   -12257235.053 6  -9272015.61121        15.750           1.250
  20469537.876    -3496833.152 7  -2724801.13523        25.250           3.313
  19611372.493   -24892922.198 7 -19211925.06123        26.500           2.563
 91  7  4  4 46 14.9970000  0  4G 3G21G17G23
  22328088.618     8257996.446 6   6434797.47821        13.500           0.469
  21704186.024   -12305632.627 6  -9309727.96221        15.250           1.250
  20472872.478    -3479312.929 7  -2711149.02523        25.500           3.156
  19609914.876   -24900585.838 7 -19217896.72623        26.750           2.781
 91  7  4  4 46 29.9970000  0  4G 3G21G17G23
  22337141.876     8305593.985 6   6471886.44521        12.750           0.313
  21694988.274   -12353966.391 6  -9347390.59721        15.000           1.281
  20476219.048    -3461728.322 7  -2697446.74223        25.750           3.313
  19608473.821   -24908150.109 7 -19223790.95023        26.750           2.688
 91  7  4  4 46 44.9970000  0  4G 3G21G17G23
  22346212.767     8353268.214 6   6509035.17421        12.250           0.500
  21685805.720   -12402236.862 6  -9385003.88821        15.000           1.344
  20479578.517    -3444079.838 7  -2683694.67923        27.000           3.344
  19607055.571   -24915615.448 7 -19229608.09023        27.000           2.625
 91  7  4  4 46 59.9970000  0  4G 3G21G17G23
  22355299.712     8401022.479 6   6546246.26921        12.250           0.375
  21676628.259   -12450440.228 6  -9422564.90821        15.250           1.219
  20482947.032    -3426363.828 7  -2669890.00623        26.500           3.250
  19605653.321   -24922978.319 7 -19235345.38023        26.750           2.594
 91  7  4  4 47 14.9970000  0  4G 3G21G17G23
  22364402.876     8448855.807 5   6583518.95221        11.500           0.438
  21667474.501   -12498577.176 6  -9460074.17721        16.000           1.188
  20486333.626    -3408581.010 7  -2656033.26524        27.500           3.500
  19604269.946   -24930239.752 7 -19241003.62923        26.000           2.531
 91  7  4  4 47 29.9970000  0  4G 3G21G17G23
  22373524.345     8496771.024 5   6620855.46021        11.750           0.438
  21658325.118   -12546644.382 6  -9497529.09721        15.500           1.125
  20489728.587    -3390728.077 7  -2642121.89023        26.750           3.438
  19602909.548   -24937396.587 7 -19246580.37523        26.500           2.563
 91  7  4  4 47 44.9970000  0  4G 3G21G17G23
  22382656.071     8544762.895 5   6658251.68821        11.250           0.375
  21649191.743   -12594646.672 6  -9534933.44421        16.000           1.219
  20493139.524    -3372810.178 7  -2628159.90024        26.750           3.625
  19601566.048   -24944453.902 7 -19252079.57123        26.250           2.594
 91  7  4  4 47 59.9970000  0  4G 3G21G17G23
  22391797.118     8592832.161 5   6695708.23121        10.500           0.469
  21640066.938   -12642582.880 6  -9572286.28221        15.000           1.250
  20496560.329    -3354826.144 7  -2614146.36823        26.500           3.313
  19600242.642   -24951410.659 7 -19257500.41523        27.000           2.500
 91  7  4  4 48 14.9970000  0  4G 3G21G17G23
  22400960.204     8640976.908 5   6733223.58121        10.750           0.438
  21630959.048   -12690454.666 6  -9609588.94221        15.750           1.313
  20499996.407    -3336778.035 7  -2600082.90323        27.000           3.281
  19598937.751   -24958268.762 7 -19262844.38522        26.750           2.469
 91  7  4  4 48 29.9970000  0  4G 3G21G17G23
  22410138.876     8689198.499 5   6770798.81321        10.750           0.281
  21621859.392   -12738260.137 6  -9646839.90721        16.000           1.281
  20503442.759    -3318663.866 7  -2585967.97323        27.000           3.375
  19597652.446   -24965026.583 7 -19268110.21123        26.750           2.656
 91  7  4  4 48 44.9970000  0  4G 3G21G17G23
  22419332.712     8737497.254 5   6808434.17821        11.500           0.406
  21612780.907   -12785998.658 6  -9684038.71921        16.750           1.313
  20506901.970    -3300483.037 7  -2571801.10123        26.000           3.344
  19596385.228   -24971683.602 7 -19273297.49323        26.500           2.563
 91  7  4  4 48 59.9970000  0  4G 3G21G17G23
  22428534.610     8785873.189 5   6846129.67021        10.750           0.375
  21603702.938   -12833669.872 6  -9721185.07721        16.250           1.281
  20510374.556    -3282235.433 7  -2557582.19323        26.750           3.219
  19595135.931   -24978239.807 7 -19278406.21723        26.000           2.500
 91  7  4  4 49 14.9970000  0  4G 3G21G17G23
  22437757.634     8834325.724 5   6883884.86421        10.750           0.406
  21594645.282   -12881273.984 6  -9758279.14721        16.500           1.281
  20513861.181    -3263921.403 7  -2543311.52023        27.000           3.188
  19593908.751   -24984695.292 7 -19283436.46123        26.250           2.625
 91  7  4  4 49 29.9970000  0  4G 3G21G17G23
  22446988.212     8882852.850 5   6921698.15921        10.250           0.281
  21585599.454   -12928812.592 6  -9795322.18521        16.250           1.344
  20517359.688    -3245542.584 7  -2528990.37523        27.750           3.219
  19592698.423   -24991052.122 7 -19288389.83223        25.750           2.594
 91  7  4  4 49 44.9970000  0  4G 3G21G17G23
  22456240.478     8931456.115 5   6959570.82921        10.500           0.406
  21576565.470   -12976283.871 6  -9832312.74621        16.750           1.313
  20520866.610    -3227097.179 7  -2514617.33023        26.500           3.125
  19591510.032   -24997308.556 7 -19293264.97023        26.750           2.500
 91  7  4  4 49 59.9970000  0  4G 3G21G17G23
  22465504.517     8980137.471 5   6997504.30521        10.750           0.250
  21567545.478   -13023685.307 6  -9869248.90321        16.500           1.375
  20524389.767    -3208583.045 7  -2500190.74223        25.750           3.063
  19590337.040   -25003462.665 7 -19298060.36623        26.750           2.531
 91  7  4  4 50 14.9970000  0  4G 3G21G17G23
  22474783.735     9028893.216 5   7035495.76921        11.500           0.313
  21558534.845   -13071020.270 6  -9906133.24121        15.750           1.313
  20527925.298    -3190003.597 7  -2485713.25423        26.000           3.031
  19589185.251   -25009517.685 7 -19302778.56322        26.250           2.469
 91  7  4  4 50 29.9970000  0  4G 3G21G17G23
  22484068.470     9077724.013 5   7073545.69821        10.500           0.219
  21549544.024   -13118287.714 6  -9942964.98222        16.750           1.500
  20531473.493    -3171357.744 7  -2471184.01923        26.000           2.844
  19588050.782   -25015473.081 7 -19307419.12223        26.000           2.625
 91  7  4  4 50 44.9970000  0  4G 3G21G17G23
  22493380.743     9126631.035 5   7111655.06021        10.500           0.281
  21540563.626   -13165486.223 6  -9979743.00421        17.000           1.375
  20535036.767    -3152644.434 7  -2456602.22623        26.500           2.906
  19586937.673   -25021327.306 7 -19311980.85023        26.000           2.531
 91  7  4  4 50 59.9970000  0  4G 3G21G17G23
  22502701.345     9175613.031 5   7149822.80721        10.750           0.250
  21531595.860   -13212616.504 6 -10016467.86221        16.500           1.375
  20538607.962    -3133864.327 7  -2441968.38223        26.000           2.906
  19585842.321   -25027081.373 7 -19316464.52923        26.250           2.500
 91  7  4  4 51 14.9970000  0  4G 3G21G17G23
  22512036.399     9224666.596 5   7188046.34421        10.750           0.250
  21522638.040   -13259681.477 6 -10053141.83221        16.000           1.469
  20542196.517    -3115020.414 7  -2427284.81523        26.500           2.906
  19584767.790   -25032738.713 7 -19320872.84123        26.750           2.531
 91  7  4  4 51 29.9970000  0  4G 3G21G17G23
  22521385.767     9273794.748 5   7226327.97521        11.250           0.250
  21513694.353   -13306677.915 6 -10089762.38722        15.500           1.500
  20545793.954    -3096109.843 7  -2412549.31023        26.250           2.781
  19583707.610   -25038296.205 7 -19325203.34422        26.500           2.438
 91  7  4  4 51 44.9970000  0  4G 3G21G17G23
  22530746.696     9322997.616 5   7264667.84121        10.750           0.281
  21504763.501   -13353605.261 6 -10126329.12721        15.500           1.375
  20549403.563    -3077131.767 7  -2397761.20323        25.750           2.719
  19582670.399   -25043753.212 7 -19329455.55123        26.750           2.531
 91  7  4  4 51 59.9970000  0  4G 3G21G17G23
  22540122.813     9372273.621 5   7303064.70621        10.750           0.219
  21495845.946   -13400464.797 6 -10162843.01221        15.750           1.281
  20553029.056    -3058087.763 7  -2382921.72523        26.250           2.688
  19581650.259   -25049111.413 7 -19333630.76023        26.750           2.563
 91  7  4  4 52 14.9970000  0  4G 3G21G17G23
  22549516.688     9421623.316 5   7341518.97321        11.000           0.344
  21486943.438   -13447255.536 6 -10199303.29321        16.000           1.375
  20556665.931    -3038977.130 7  -2368030.33023        26.250           2.688
  19580648.938   -25054370.079 7 -19337728.41423        26.250           2.531
 91  7  4  4 52 29.9970000  0  4G 3G21G17G23
  22558922.938     9471046.840 5   7380030.77321        10.500           0.344
  21478053.368   -13493976.959 6 -10235709.56321        16.250           1.375
  20560315.134    -3019799.466 7  -2353086.70123        25.750           2.625
  19579668.063   -25059528.860 7 -19341748.23823        26.500           2.656
 91  7  4  4 52 44.9970000  0  4G 3G21G17G23
  22568340.735     9520543.100 5   7418599.25521        10.750           0.375
  21469174.774   -13540629.794 6 -10272062.39321        16.500           1.438
  20563976.126    -3000555.419 7  -2338091.34223        25.250           2.656
  19578704.688   -25064588.577 7 -19345690.86323        26.500           2.656
 91  7  4  4 52 59.9970000  0  4G 3G21G17G23
  22577775.712     9570110.248 5   7457222.98521        10.750           0.438
  21460310.274   -13587215.392 6 -10308362.82621        16.000           1.375
  20567653.353    -2981246.426 7  -2323045.37223        24.250           2.688
  19577760.985   -25069550.910 7 -19349557.61423        27.250           2.625
 91  7  4  4 53 14.9970000  0  4G 3G21G17G23
  22587217.157     9619749.864 5   7495903.16521        10.750           0.313
  21451457.306   -13633731.836 6 -10344609.37221        16.500           1.438
  20571338.118    -2961870.726 7  -2307947.43523        24.750           2.656
  19576835.899   -25074414.251 7 -19353347.21322        27.000           2.469
 91  7  4  4 53 29.9970000  0  4G 3G21G17G23
  22596678.712     9669461.294 5   7534639.33221        11.000           0.375
  21442619.274   -13680179.422 6 -10380802.26921        17.250           1.406
  20575038.345    -2942428.761 7  -2292797.85423        25.500           2.656
  19575927.915   -25079179.222 7 -19357060.17123        26.000           2.531
 91  7  4  4 53 44.9970000  0  4G 3G21G17G23
  22606152.837     9719243.712 5   7573430.78621        11.250           0.344
  21433792.704   -13726558.453 6 -10416941.74421        16.750           1.438
  20578751.212    -2922920.983 7  -2277596.99123        25.750           2.750
  19575041.079   -25083846.167 7 -19360696.75422        26.250           2.469
 91  7  4  4 53 59.9970000  0  4G 3G21G17G23
  22615635.618     9769096.938 5   7612277.43721        10.250           0.406
  21424980.079   -13772868.849 6 -10453027.74021        16.750           1.375
  20582475.095    -2903347.561 7  -2262344.97723        25.250           2.781
  19574170.954   -25088415.286 7 -19364257.10022        26.500           2.469
 91  7  4  4 54 14.9970000  0  4G 3G21G17G23
  22625136.298     9819021.325 5   7651179.52521        10.000           0.219
  21416181.009   -13819109.737 6 -10489059.57121        16.500           1.406
  20586212.251    -2883707.843 7  -2247041.31623        25.500           2.906
  19573320.923   -25092885.827 7 -19367740.62423        26.250           2.500
 91  7  4  4 54 29.9970000  0  4G 3G21G17G23
  22634649.478     9869013.803 5   7690134.68121        10.000           0.281
  21407393.649   -13865284.039 6 -10525039.52221        17.000           1.406
  20589960.993    -2864004.557 7  -2231688.11523        25.250           3.000
  19572487.915   -25097260.883 7 -19371149.75022        26.000           2.469
 91  7  4  4 54 44.9970000  0  4G 3G21G17G23
  22644180.290     9919076.655 5   7729144.65721        10.500           0.281
  21398621.345   -13911389.012 6 -10560965.44421        16.750           1.406
  20593723.282    -2844234.768 7  -2216283.09623        25.750           2.781
  19571673.368   -25101537.992 7 -19374482.55623        26.000           2.594
 91  7  4  4 54 59.9970000  0  4G 3G21G17G23
  22653717.470     9969210.594 5   7768210.02221         9.250           0.281
  21389858.806   -13957423.448 6 -10596836.41221        16.750           1.375
  20597498.313    -2824397.750 7  -2200825.68623        26.000           2.875
  19570879.876   -25105716.131 7 -19377738.25123        27.250           2.563
 91  7  4  4 55 14.9970000  0  4G 3G21G17G23
  22663269.587    10019413.318 5   7807329.01621         9.500           0.250
  21381113.321   -14003389.086 6 -10632653.76321        17.000           1.406
  20601286.142    -2804495.598 7  -2185317.51823        26.000           2.656
  19570101.063   -25109797.460 7 -19380918.50423        26.250           2.500
 91  7  4  4 55 29.9970000  0  4G 3G21G17G23
  22672841.540    10069684.514 5   7846501.33321         9.250           0.281
  21372379.563   -14049286.399 6 -10668417.88021        17.000           1.438
  20605085.001    -2784528.724 7  -2169758.92223        25.750           2.781
  19569345.462   -25113782.549 7 -19384023.75723        26.750           2.594
 91  7  4  4 55 44.9970000  0  4G 3G21G17G23
  22682414.938    10120023.298 5   7885726.31221         8.500           0.188
  21363656.001   -14095115.551 6 -10704128.87921        16.500           1.375
  20608897.938    -2764497.165 7  -2154149.91723        26.250           2.750
  19568603.657   -25117671.728 7 -19387054.27823        26.750           2.531
 91  7  4  4 55 59.9970000  0  4G 3G21G17G23
  22692012.821    10170431.141 5   7925005.11521         9.250           0.250
  21354952.462   -14140874.834 6 -10739785.44621        17.250           1.469
  20612721.376    -2744399.370 7  -2138489.31023        25.750           2.719
  19567882.821   -25121463.408 7 -19390008.82823        26.500           2.563
 91  7  4  4 56 14.9970000  0  4G 3G21G17G23
  22701616.704    10220908.877 5   7964338.36321         9.000           0.156
  21346257.407   -14186563.001 6 -10775386.61521        17.500           1.438
  20616559.353    -2724234.479 7  -2122776.41423        26.000           2.594
  19567180.634   -25125156.605 7 -19392886.64023        27.000           2.563
 91  7  4  4 56 29.9970000  0  4G 3G21G17G23
  22711234.720    10271451.274 5   8003722.01721         9.250           0.219
  21337574.993   -14232184.755 6 -10810936.01021        18.000           1.375
  20620406.063    -2704007.176 7  -2107014.88123        25.500           2.688
  19566494.759   -25128756.268 7 -19395691.56223        27.000           2.500
 91  7  4  4 56 44.9970000  0  4G 3G21G17G23
  22720866.931    10322058.642 5   8043156.29321         9.500           0.219
  21328908.103   -14277739.472 6 -10846433.16321        18.250           1.281
  20624269.688    -2683716.801 7  -2091204.20723        26.000           2.656
  19565827.884   -25132261.984 7 -19398423.28423        26.250           2.594
 91  7  4  4 56 59.9970000  0  4G 3G21G17G23
  22730504.696    10372731.338 5   8082641.50721        10.000           0.156
  21320251.188   -14323226.191 6 -10881877.33321        18.250           1.250
  20628141.438    -2663362.778 7  -2075343.93423        26.000           2.688
  19565179.813   -25135673.233 7 -19401081.39423        26.250           2.750
 91  7  4  4 57 14.9970000  0  4G 3G21G17G23
  22740164.478    10423472.489 5   8122180.02021        10.500           0.250
  21311610.704   -14368641.755 6 -10917266.06421        19.250           1.344
  20632028.681    -2642941.784 7  -2059431.47823        26.250           2.750
  19564547.306   -25138986.830 7 -19403663.41023        25.500           2.563
 91  7  4  4 57 29.9970000  0  4G 3G21G17G23
  22749832.532    10474280.760 5   8161770.82721        11.000           0.219
  21302977.970   -14413986.849 6 -10952599.87421        18.500           1.344
  20635925.806    -2622454.579 7  -2043467.43023        25.250           2.750
  19563935.462   -25142203.725 7 -19406170.07522        26.000           2.438
 91  7  4  4 57 44.9970000  0  4G 3G21G17G23
  22759514.884    10525157.604 5   8201415.08521        10.500           0.313
  21294366.282   -14459259.931 6 -10987877.57821        19.250           1.281
  20639837.532    -2601900.313 7  -2027451.12123        24.750           2.813
  19563343.142   -25145322.671 7 -19408600.41922        26.750           2.438
 91  7  4  4 57 59.9970000  0  4G 3G21G17G23
  22769197.907    10576099.941 5   8241110.38321         9.250           0.313
  21285764.665   -14504463.307 6 -11023100.95821        19.500           1.469
  20643762.071    -2581281.059 7  -2011384.16723        24.500           2.813
  19562766.556   -25148346.199 7 -19410956.40823        27.250           2.500
 91  7  4  4 58 14.9970000  0  4G 3G21G17G23
  22778912.524    10627105.859 5   8280855.22521        10.250           0.438
  21277172.196   -14549598.763 6 -11058271.40821        18.500           1.469
  20647697.235    -2560598.679 7  -1995268.03623        24.500           2.875
  19562208.017   -25151276.245 7 -19413239.55222        27.000           2.438
 91  7  4  4 58 29.9970000  0  4G 3G21G17G23
  22788624.985    10678175.918 5   8320650.02321         9.250           0.219
  21268597.126   -14594665.190 6 -11093388.10122        19.000           1.531
  20651646.821    -2539852.031 7  -1979101.82823        24.500           2.656
  19561670.431   -25154111.863 7 -19415449.12523        27.000           2.500
 91  7  4  4 58 44.9970000  0  4G 3G21G17G23
  22798359.329    10729310.511 5   8360495.15021         9.500           0.281
  21260035.212   -14639661.939 6 -11128450.48321        18.750           1.469
  20655605.462    -2519040.685 7  -1962885.19423        24.250           2.750
  19561148.767   -25156852.617 7 -19417584.77723        27.250           2.500
 91  7  4  4 58 59.9970000  0  4G 3G21G17G23
  22808103.853    10780511.697 5   8400392.13521         9.750           0.188
  21251487.899   -14684586.451 6 -11163456.57022        19.250           1.625
  20659578.673    -2498162.106 7  -1946616.18123        23.750           2.719
  19560645.813   -25159496.210 7 -19419644.71123        27.500           2.500
 91  7  4  4 59 14.9970000  0  5G 3G21G11G17G23
  22817852.985    10831775.499 5   8440337.92321         9.250           0.313
  21242951.556   -14729442.440 6 -11198409.26122        18.750           1.656
  23863944.923      -63053.486 4                         6.750
  20663564.618    -2477220.404 7  -1930297.98223        23.500           2.594
  19560159.024   -25162046.441 7 -19421631.89423        27.750           2.500
 91  7  4  4 59 29.9970000  0  5G 3G21G11G17G23
  22827626.767    10883103.059 5   8480333.40221         9.250           0.250
  21234427.884   -14774228.331 6 -11233307.33722        18.500           1.594
  23851947.196     -126094.211 4                         6.750
  20667561.751    -2456213.859 7  -1913929.24923        23.250           2.688
  19559693.563   -25164502.129 8 -19423545.40923        28.000           2.500
 91  7  4  4 59 44.9970000  0  5G 3G21G11G17G23
  22837407.126    10934494.590 5   8520378.70621         9.250           0.219
  21225917.360   -14818943.565 6 -11268150.36022        18.500           1.594
  23839953.642     -189121.609 4                         7.000
  20671571.829    -2435141.979 7  -1897509.61723        23.500           2.625
  19559243.759   -25166863.106 8 -19425385.12823        28.500           2.531
 91  7  4  4 59 59.9970000  0  5G 3G21G11G17G23
  22847197.446    10985946.305 5   8560470.92421         9.000           0.219
  21217422.735   -14863591.227 6 -11302940.71622        19.250           1.625
  23827962.353     -252138.569 4                         7.000
  20675591.337    -2414008.081 7  -1881041.65523        23.250           2.625
  19558811.548   -25169132.581 8 -19427153.54723        28.250           2.531
 91  7  4  5  0 14.9970000  0  5G 3G21G11G17G23
  22857000.462    11037464.210 5   8600614.72121         8.750           0.156
  21208938.220   -14908165.553 6 -11337673.93722        18.750           1.563
  23815976.438     -315139.118 4        -0.50031         7.000           0.281
  20679627.595    -2392806.702 7  -1864521.10723        23.500           2.594
  19558399.001   -25171304.742 8 -19428846.13423        28.000           2.563
 91  7  4  5  0 29.9970000  0  5G 3G21G11G17G23
  22866817.103    11089045.310 5   8640807.74121         8.500           0.250
  21200473.673   -14952668.795 6 -11372351.74922        19.500           1.594
  23803986.524     -378125.237 4    -49080.51221         7.000           0.313
  20683673.821    -2371539.950 7  -1847949.61923        23.250           2.500
  19558003.712   -25173382.272 7 -19430464.98223        27.500           2.594
 91  7  4  5  0 44.9970000  0  5G 3G21G11G17G23
  22876648.946    11140686.645 5   8681047.73121         9.000           0.156
  21192015.860   -14997103.554 6 -11406976.19522        18.500           1.531
  23792001.337     -441099.266 5    -98151.10021         7.500           0.375
  20687734.946    -2350210.382 7  -1831329.18423        23.750           2.563
  19557624.728   -25175367.950 7 -19432012.25123        27.000           2.500
 91  7  4  5  0 59.9970000  0  5G 3G21G11G17G23
  22886479.845    11192392.696 5   8721338.11621         8.500           0.188
  21183573.423   -15041464.975 6 -11441543.50722        18.750           1.656
  23780022.626     -504056.221 5   -147208.39321         7.750           0.313
  20691805.001    -2328813.380 7  -1814656.20723        23.250           2.531
  19557265.376   -25177257.223 7 -19433484.40523        26.500           2.688
 91  7  4  5  1 14.9970000  0  5G 3G21G11G17G23
  22896331.235    11244160.015 5   8761676.24221         8.250           0.406
  21175146.798   -15085755.943 6 -11476055.91321        19.000           1.469
  23768042.548     -566998.888 5   -196254.55821         7.750           0.406
  20695888.853    -2307352.174 7  -1797933.19823        23.250           2.625
  19556923.540   -25179053.047 7 -19434883.74923        26.750           2.688
 91  7  4  5  1 29.9970000  0  5G 3G21G11G17G23
  22906200.798    11295991.210 5   8802064.17721         8.250           0.313
  21166732.306   -15129973.608 6 -11510511.20522        18.500           1.531
  23756073.103     -629923.822 5   -245286.89821         8.750           0.313
  20699986.353    -2285823.714 7  -1781157.77723        23.250           2.688
  19556600.142   -25180752.669 7 -19436208.12122        27.000           2.469
 91  7  4  5  1 44.9970000  0  5G 3G21G11G17G23
  22916075.259    11347882.108 5   8842498.59821         8.750           0.219
  21158332.306   -15174121.977 6 -11544912.49721        19.000           1.469
  23744098.720     -692834.906 5   -294308.45221         8.250           0.375
  20704095.735    -2264232.164 7  -1764333.20223        23.500           2.656
  19556293.610   -25182360.526 7 -19437460.99523        26.750           2.563
 91  7  4  5  1 59.9970000  0  5G 3G21G11G17G23
  22925961.978    11399833.524 5   8882980.19821         8.750           0.219
  21149943.751   -15218199.563 6 -11579258.63322        18.750           1.594
  23732129.017     -755730.515 5   -343317.96221         8.250           0.281
  20708215.126    -2242576.282 7  -1747458.49223        23.500           2.594
  19556006.970   -25183875.311 7 -19438641.33723        27.250           2.625
 91  7  4  5  2 14.9970000  0  5G 3G21G11G17G23
  22935856.204    11451844.180 5   8923507.95121         8.250           0.281
  21141567.462   -15262207.360 6 -11613550.39822        18.250           1.625
  23720162.360     -818611.370 5   -392315.96421         8.500           0.219
  20712348.548    -2220857.161 7  -1730534.51523        24.000           2.563
  19555735.563   -25185298.121 7 -19439750.01423        27.250           2.531
 91  7  4  5  2 29.9970000  0  5G 3G21G11G17G23
  22945760.985    11503917.959 5   8964084.86521         8.000           0.281
  21133206.821   -15306140.935 6 -11647784.32122        18.000           1.656
  23708200.993     -881472.769 5   -441298.84121         8.250           0.219
  20716496.728    -2199070.463 7  -1713557.87223        25.000           2.563
  19555481.446   -25186624.894 7 -19440783.85723        27.000           2.563
 91  7  4  5  2 44.9970000  0  5G 3G21G11G17G23
  22955681.243    11556051.300 5   9004708.23121         8.000           0.250
  21124859.743   -15350003.752 6 -11681963.09022        17.750           1.563
  23696243.704     -944317.962 5   -490269.04821         8.000           0.250
  20720654.407    -2177219.570 7  -1696531.20823        24.500           2.531
  19555249.149   -25187859.174 7 -19441745.63123        27.750           2.688
 91  7  4  5  2 59.9970000  0  5G 3G21G11G17G23
  22965619.845    11608244.276 5   9045378.02421         8.750           0.219
  21116528.946   -15393795.049 6 -11716086.14722        18.500           1.594
  23684289.938    -1007145.933 4   -539225.84821         7.000           0.250
  20724819.853    -2155303.973 7  -1679454.12922        23.500           2.438
  19555031.220   -25189000.598 7 -19442635.04223        27.750           2.688
 91  7  4  5  3 14.9970000  0  5G 3G21G11G17G23
  22975559.110    11660499.604 5   9086096.44121         8.500           0.188
  21108208.978   -15437511.935 6 -11750151.23922        19.000           1.563
  23672335.845    -1069953.419 4   -588166.65521         6.750           0.250
  20729008.845    -2133320.936 7  -1662324.49222        24.750           2.406
  19554830.157   -25190046.433 7 -19443449.97323        27.000           2.656
 91  7  4  5  3 29.9970000  0  5G 3G21G11G17G23
  22985520.821    11712817.643 5   9126863.71021         8.500           0.156
  21099903.610   -15481153.582 6 -11784157.67922        18.750           1.594
  23660385.923    -1132739.524 4   -637090.82121         6.750           0.250
  20733203.759    -2111269.886 7  -1645141.86623        25.000           2.500
  19554649.165   -25190996.025 7 -19444189.91023        27.000           2.531
 91  7  4  5  3 44.9970000  0  5G 3G21G11G17G23
  22995485.204    11765195.596 5   9167677.67721         7.750           0.219
  21091611.517   -15524722.242 6 -11818107.24222        18.500           1.563
  23648442.353    -1195506.126 4   -685999.80021         7.000           0.219
  20737413.438    -2089153.007 7  -1627907.94023        25.250           2.531
  19554487.735   -25191851.777 7 -19444856.72223        27.000           2.719
 91  7  4  5  3 59.9970000  0  5G 3G21G11G17G23
  23005464.032    11817639.376 5   9208542.94321         7.500           0.188
  21083337.478   -15568211.826 6 -11851995.18122        18.250           1.625
  23636499.392    -1258246.969 5   -734888.72121         7.500           0.156
  20741633.806    -2066964.202 7  -1610617.97223        24.000           2.500
  19554345.274   -25192607.994 7 -19445445.98023        27.750           2.656
 91  7  4  5  4 14.9970000  0  5G 3G21G11G17G23
  23015456.188    11870147.464 5   9249458.30621         7.500           0.188
  21075075.767   -15611623.398 6 -11885822.32122        18.500           1.563
  23624572.493    -1320962.875 5   -783758.24121         8.500           0.188
  20745866.767    -2044704.648 7  -1593272.87422        23.500           2.438
  19554219.142   -25193266.003 7 -19445958.70323        27.500           2.656
 91  7  4  5  4 29.9970000  0  5G 3G21G11G17G23
  23025456.298    11922714.598 4   9290419.65221         6.250           0.156
  21066826.423   -15654961.801 6 -11919592.47322        18.250           1.531
  23612641.603    -1383658.559 5   -832611.96721         8.250           0.219
  20750116.774    -2022379.442 7  -1575876.60822        23.750           2.406
  19554112.618   -25193830.598 7 -19446398.63723        27.250           2.563
 91  7  4  5  4 44.9970000  0  5G 3G21G11G17G23
  23035465.728    11975343.127 3   9331428.89821         6.000           0.125
  21058598.251   -15698224.441 6 -11953303.58622        19.000           1.656
  23600712.407    -1446330.988 5   -881447.57821         8.000           0.188
  20754379.485    -1999986.148 7  -1558427.29523        23.750           2.500
  19554020.978   -25194299.452 7 -19446763.97523        27.750           2.688
 91  7  4  5  4 59.9970000  0  5G 3G21G11G17G23
  23045495.087    12028034.534 3   9372487.08021         5.500           0.156
  21050377.173   -15741409.437 6 -11986954.18822        19.000           1.688
  23588791.056    -1508978.067 5   -930263.44821         8.000           0.188
  20758654.743    -1977522.624 7  -1540923.25523        24.000           2.531
  19553949.173   -25194670.899 7 -19447053.41223        27.750           2.625
 91  7  4  5  5 14.9970000  0  5G 3G21G11G17G23
  23055531.665    12080787.816 3   9413593.54921         5.500           0.188
  21042176.798   -15784517.463 6 -12020544.81322        19.750           1.656
  23576873.837    -1571600.032 5   -979059.75521         8.000           0.156
  20762943.196    -1954989.670 7  -1523365.11123        23.750           2.688
  19553901.696   -25194945.689 7 -19447267.52923        27.500           2.594
 91  7  4  5  5 29.9970000  0  5G 3G21G11G17G23
  23065577.915    12133598.077 3   9454744.37821         5.000           0.250
  21033988.509   -15827552.937 7 -12054078.90922        20.000           1.531
  23564962.259    -1634201.194 5  -1027839.83621         8.500           0.250
  20767243.360    -1932391.925 7  -1505756.47923        24.250           2.719
  19553864.243   -25195128.711 7                        26.750
 91  7  4  5  5 44.9970000  0  5G 3G21G11G17G23
  23075648.587    12186466.224 3   9495940.32321         5.750           0.156
  21025810.478   -15870514.487 6 -12087555.39422        19.750           1.594
  23553054.899    -1696779.929 5  -1076602.40521         9.250           0.250
  20771554.298    -1909728.515 7  -1488096.69323        23.750           2.688
  19553846.798   -25195218.786 7                        26.500
 91  7  4  5  5 59.9970000  0  5G 3G21G11G17G23
  23085721.243    12239393.356 3   9537182.20421         5.750           0.250
  21017649.329   -15913400.520 6 -12120973.03822        19.750           1.625
  23541150.103    -1759334.450 5  -1125346.15721         8.750           0.250
  20775879.173    -1886997.872 7  -1470384.51123        23.250           2.688
  19553846.071   -25195214.526 7                        27.000
 91  7  4  5  6 14.9970000  0  5G 3G21G11G17G23
  23095803.923    12292379.794 4   9578470.30821         6.250           0.125
  21009500.392   -15956210.677 6 -12154331.55922        18.250           1.594
  23529249.735    -1821864.011 5  -1174070.46921         9.000           0.219
  20780219.392    -1864199.219 7  -1452619.32623        23.250           2.500
  19553866.970   -25195115.775 7                        27.750
 91  7  4  5  6 29.9970000  0  5G 3G21G11G17G23
  23105895.024    12345426.555 4   9619805.44021         6.250           0.313
  21001370.759   -15998943.181 6 -12187629.57422        18.750           1.625
  23517355.110    -1884366.680 5  -1222773.77021         8.250           0.250
  20784571.571    -1841331.157 7  -1434800.06623        23.500           2.688
  19553903.204   -25194921.021 7                        27.750
 91  7  4  5  6 44.9970000  0  5G 3G21G11G17G23
  23116004.407    12398528.493 4   9661183.52421         6.500           0.125
  20993252.579   -16041603.050 6 -12220870.98622        19.000           1.656
  23505467.493    -1946847.089 5  -1271459.75721         8.250           0.313
  20788935.884    -1818398.761 7  -1416930.67623        23.500           2.656
  19553959.470   -25194635.448 7                        27.500
 91  7  4  5  6 59.9970000  0  5G 3G21G11G17G23
  23126121.384    12451689.124 4   9702607.37221         6.500           0.219
  20985150.720   -16084186.231 6 -12254052.64322        19.000           1.594
  23493579.954    -2009301.126 5  -1320125.20021         8.000           0.375
  20793311.915    -1795398.214 7  -1399008.17723        23.250           2.563
  19554031.415   -25194255.251 7 -19446729.48623        27.750           2.656
 91  7  4  5  7 14.9970000  0  5G 3G21G11G17G23
  23136248.056    12504907.400 4   9744076.13221         7.000           0.125
  20977061.040   -16126693.509 6 -12287175.16022        19.500           1.625
  23481706.024    -2071729.092 5  -1368770.30921         8.000           0.344
  20797699.259    -1772330.307 7  -1381033.20223        22.500           2.594
  19554121.587   -25193781.287 7 -19446360.15023        27.500           2.625
 91  7  4  5  7 29.9970000  0  5G 3G21G11G17G23
  23146384.204    12558182.173 5   9785588.92621         7.500           0.250
  20968988.228   -16169125.705 7 -12320239.16622        20.000           1.625
  23469829.118    -2134131.639 5  -1417395.60821         7.750           0.500
  20802103.673    -1749195.885 7  -1363006.38123        22.500           2.531
  19554229.712   -25193214.569 7 -19445918.54423        27.000           2.688
 91  7  4  5  7 44.9970000  0  5G 3G21G11G17G23
  23156536.649    12611518.554 5   9827149.71021         8.000           0.344
  20960929.618   -16211477.166 7 -12353240.26422        20.250           1.625
  23457961.204    -2196502.926 5  -1465996.54921         8.250           0.375
  20806517.790    -1725989.386 7  -1344923.40323        22.000           2.500
  19554354.392   -25192549.941 7 -19445400.64623        26.750           2.688
 91  7  4  5  7 59.9970000  0  5G 3G21G11G17G23
  23166698.759    12664911.042 5   9868754.19521         8.500           0.125
  20952882.892   -16253753.107 7 -12386182.51422        20.000           1.750
  23446098.587    -2258847.810 5  -1514576.91521         8.500           0.375
  20810947.384    -1702716.384 7  -1326788.60523        22.750           2.594
  19554498.548   -25191792.601 7 -19444810.51123        27.250           2.750
 91  7  4  5  8 14.9970000  0  5G 3G21G11G17G23
  23176866.321    12718358.788 5   9910401.78121         8.750           0.094
  20944853.798   -16295954.101 7 -12419066.36322        20.500           1.750
  23434242.970    -2321166.589 5  -1563136.94521         9.500           0.344
  20815385.970    -1679377.287 7  -1308602.30122        22.250           2.469
  19554661.438   -25190943.216 7 -19444148.63923        27.250           2.688
 91  7  4  5  8 29.9970000  0  5G 3G21G11G17G23
  23187049.892    12771863.972 5   9952094.12521         8.500           0.250
  20936835.063   -16338077.383 6 -12451889.65122        19.000           1.813
  23422386.345    -2383456.225 5  -1611674.26821         9.000           0.344
  20819842.696    -1655969.371 7  -1290362.36622        22.250           2.438
  19554841.720   -25189999.488 7 -19443413.25923        26.500           2.688
 91  7  4  5  8 44.9970000  0  5G 3G21G11G17G23
  23197240.634    12825419.156 5   9993825.42421         9.000           0.250
  20928833.868   -16380130.276 6 -12484658.10122        19.500           1.844
  23410538.478    -2445723.647 5  -1660194.30421         9.000           0.406
  20824308.704    -1632500.102 7  -1272074.62922        23.000           2.375
  19555036.282   -25188968.651 7 -19442609.99523        25.500           2.656
 91  7  4  5  8 59.9970000  0  5G 3G21G11G17G23
  23207440.063    12879026.440 5  10035597.30721         8.750           0.125
  20920845.087   -16422110.009 6 -12517369.53822        19.500           1.813
  23398693.470    -2507965.940 5  -1708694.74721         8.500           0.406
  20828788.517    -1608967.000 7  -1253737.14522        23.500           2.406
  19555250.712   -25187848.386 7 -19441737.05723        25.750           2.656
 91  7  4  5  9 14.9970000  0  5G 3G21G11G17G23
  23217651.251    12932686.839 5  10077410.57521         8.250           0.156
  20912871.907   -16464015.329 7 -12550023.00022        20.000           1.719
  23386847.767    -2570181.615 5  -1757174.45721         8.000           0.406
  20833276.688    -1585368.805 7  -1235348.94322        23.000           2.438
  19555479.048   -25186637.571 7 -19440793.55923        25.500           2.656
 91  7  4  5  9 29.9970000  0  5G 3G21G11G17G23
  23227869.798    12986401.927 5  10119266.43121         8.500           0.094
  20904911.743   -16505844.129 7 -12582616.83322        20.000           1.719
  23375017.610    -2632368.324 5  -1805631.58821         7.750           0.406
  20837780.188    -1561703.567 7  -1216908.50622        22.750           2.375
  19555729.571   -25185334.409 7 -19439778.09523        25.500           2.594
 91  7  4  5  9 44.9970000  0  5G 3G21G11G17G23
  23238110.290    13040172.879 5  10161165.90321         8.250           0.125
  20896965.798   -16547594.933 7 -12615149.88822        20.000           1.875
  23363188.931    -2694524.340 5  -1854064.79421         8.000           0.375
  20842296.540    -1537970.064 7  -1198414.87422        23.000           2.313
  19555993.657   -25183937.690 7 -19438689.73523        25.250           2.500
 91  7  4  5  9 59.9970000  0  4G21G11G17G23
  20889037.251   -16589268.258 7 -12647622.57222        20.250           1.875
  23351365.243    -2756649.863 5  -1902474.26521         8.250           0.313
  20846828.376    -1514168.721 7  -1179868.37822        23.250           2.375
  19556277.087   -25182448.111 7 -19437529.01522        24.750           2.406
 91  7  4  5 10 14.9970000  0  4G21G11G17G23
  20881120.743   -16630866.781 7 -12680036.96522        20.250           1.969
  23339549.642    -2818747.221 5  -1950861.79321         8.250           0.313
  20851371.290    -1490302.361 7  -1161271.21022        24.250           2.281
  19556578.368   -25180868.437 7 -19436298.09622        24.500           2.438
 91  7  4  5 10 29.9970000  0  4G21G11G17G23
  20873220.142   -16672389.701 7 -12712392.45722        20.500           1.906
  23327736.056    -2880815.356 5  -1999226.53321         8.000           0.438
  20855922.509    -1466370.385 7  -1142622.92222        23.250           2.281
  19556895.368   -25179198.118 7 -19434996.54323        25.000           2.500
 91  7  4  5 10 44.9970000  0  4G21G11G17G23
  20865332.009   -16713838.392 7 -12744690.09622        20.250           1.781
  23315930.501    -2942855.268 5  -2047569.29121         8.500           0.469
  20860488.642    -1442374.023 7  -1123924.46422        23.750           2.188
  19557230.157   -25177438.707 7 -19433625.55622        24.500           2.469
 91  7  4  5 10 59.9970000  0  4G21G11G17G23
  20857457.649   -16755210.546 7 -12776928.10822        20.250           1.781
  23304128.556    -3004864.613 5  -2095888.20621         7.750           0.469
  20865068.743    -1418311.191 7  -1105174.21122        23.500           2.125
  19557581.626   -25175588.422 7 -19432183.76422        24.250           2.438
 91  7  4  5 11 14.9970000  0  4G21G11G17G23
  20849599.938   -16796507.906 7 -12809107.83922        20.500           1.844
  23292338.407    -3066844.638 5  -2144184.28521         8.500           0.531
  20869660.829    -1394183.650 7  -1086373.53222        24.250           2.125
  19557951.298   -25173649.034 7 -19430672.54622        25.250           2.438
 91  7  4  5 11 29.9970000  0  4G21G11G17G23
  20841754.767   -16837730.079 7 -12841228.98822        20.750           1.750
  23280551.782    -3128794.853 5  -2192457.15821         8.500           0.406
  20874263.360    -1369991.251 7  -1067522.31422        23.500           2.188
  19558338.313   -25171620.308 7 -19429091.71523        26.000           2.531
 91  7  4  5 11 44.9970000  0  4G21G11G17G23
  20833926.329   -16878873.748 7 -12873288.95222        21.250           1.813
  23268771.353    -3190711.599 5  -2240703.94621         9.000           0.344
  20878880.173    -1345730.779 7  -1048618.05322        23.500           2.219
  19558741.173   -25169499.059 7 -19427438.78423        25.500           2.563
 91  7  4  5 11 59.9970000  0  4G21G11G17G23
  20826111.103   -16919941.876 7 -12905290.05422        21.250           1.688
  23256993.626    -3252597.497 5  -2288926.69921         9.250           0.375
  20883508.298    -1321405.125 7  -1029662.99622        23.750           2.156
  19559160.767   -25167288.624 7 -19425716.36123        24.750           2.594
 91  7  4  5 12 14.9970000  0  4G21G11G17G23
  20818310.462   -16960934.304 6 -12937232.16922        19.750           1.719
  23245219.071    -3314452.194 5  -2337125.14021         8.250           0.406
  20888152.876    -1297014.152 7  -1010657.04022        25.000           2.125
  19559599.134   -25164988.925 7 -19423924.38123        25.500           2.594
 91  7  4  5 12 29.9970000  0  4G21G11G17G23
  20810524.024   -17001852.956 7 -12969116.81022        20.250           1.844
  23233454.837    -3376277.279 5  -2385300.50021         8.500           0.375
  20892804.821    -1272560.167 7   -991601.99322        24.250           2.094
  19560053.876   -25162602.262 7 -19422064.63123        26.250           2.625
 91  7  4  5 12 44.9970000  0  4G21G11G17G23
  20802751.454   -17042697.361 7 -13000943.57922        20.250           1.906
  23221695.048    -3438071.922 5  -2433452.15621         8.750           0.281
  20897468.423    -1248042.533 7   -972497.34522        23.500           2.156
  19560524.298   -25160128.083 7 -19420136.69323        26.000           2.656
 91  7  4  5 12 59.9970000  0  4G21G11G17G23
  20794994.251   -17083466.837 6 -13032711.97422        19.750           2.000
  23209943.876    -3499835.129 5  -2481579.28121         9.000           0.313
  20902146.188    -1223460.846 7   -953342.78622        23.250           2.063
  19561012.485   -25157566.018 7 -19418140.28223        26.500           2.656
 91  7  4  5 13 14.9970000  0  4G21G11G17G23
  20787247.782   -17124158.217 6 -13064419.51322        19.500           2.094
  23198197.126    -3561563.588 5  -2529679.31021         9.250           0.344
  20906839.079    -1198811.871 7   -934135.79522        23.500           2.000
  19561516.993   -25154913.325 7 -19416073.23623        26.750           2.563
 91  7  4  5 13 29.9970000  0  4G21G11G17G23
  20779521.009   -17164774.820 7 -13096068.78022        20.500           2.094
  23186460.853    -3623260.435 5  -2577754.75821         9.750           0.281
  20911542.118    -1174099.146 7   -914879.13122        23.250           2.094
  19562038.696   -25152173.435 7 -19413938.24923        26.500           2.563
 91  7  4  5 13 44.9970000  0  4G21G11G17G23
  20771804.337   -17205316.088 7 -13127659.35922        20.250           2.000
  23174719.970    -3684924.824 5  -2625804.89121         8.750           0.375
  20916253.032    -1149322.327 7   -895572.52522        22.250           2.094
  19562576.212   -25149345.972 7 -19411735.01523        27.000           2.500
 91  7  4  5 13 59.9970000  0  4G21G11G17G23
  20764107.243   -17245777.575 7 -13159187.76222        20.250           2.094
  23162994.618    -3746551.758 5  -2673825.81921         8.000           0.438
  20920982.767    -1124476.796 7   -876212.38122        23.250           2.063
  19563132.884   -25146426.475 7 -19409460.07522        27.750           2.438
 91  7  4  5 14 14.9970000  0  4G21G11G17G23
  20756421.954   -17286164.473 7 -13190658.04222        20.250           2.094
  23151269.228    -3808146.009 5  -2721821.30921         8.750           0.344
  20925723.657    -1099567.812 7   -856802.78222        23.500           2.125
  19563704.415   -25143420.372 7 -19407117.64822        27.250           2.281
 91  7  4  5 14 29.9970000  0  4G21G11G17G23
  20748750.478   -17326472.354 6 -13222066.75022        19.750           2.000
  23139558.188    -3869703.064 5  -2769787.81121         9.250           0.344
  20930476.423    -1074591.206 7   -837340.49022        22.500           2.094
  19564293.181   -25140323.630 7 -19404704.58422        27.250           2.313
 91  7  4  5 14 44.9970000  0  4G21G11G17G23
  20741096.532   -17366702.014 7 -13253414.51022        20.250           2.031
  23127850.642    -3931223.559 5  -2817725.81921         8.750           0.406
  20935242.813    -1049548.105 7   -817826.38322        22.250           1.938
  19564900.743   -25137137.395 7 -19402221.78922        27.750           2.250
 91  7  4  5 14 59.9970000  0  4G21G11G17G23
  20733453.751   -17406857.431 7 -13284704.40722        20.250           2.094
  23116153.634    -3992711.108 5  -2865638.15921         9.250           0.344
  20940020.118    -1024442.231 7   -798263.36622        22.500           2.031
  19565523.634   -25133865.711 7 -19399672.41622        27.500           2.313
 91  7  4  5 15 14.9970000  0  4G21G11G17G23
  20725826.829   -17446935.728 7 -13315934.22422        20.000           2.031
  23104458.931    -4054162.356 5  -2913522.19921         9.500           0.344
  20944808.610     -999270.821 7   -778649.28622        22.000           2.000
  19566160.790   -25130505.727 7 -19397054.23522        26.750           2.250
 91  7  4  5 15 29.9970000  0  4G21G11G17G23
  20718215.212   -17486938.038 7 -13347104.83622        20.500           2.031
  23092770.470    -4115578.279 5  -2961378.72221        10.250           0.406
  20949612.806     -974035.286 7   -758985.23022        21.750           2.188
  19566817.110   -25127058.939 7 -19394368.42322        27.000           2.344
 91  7  4  5 15 44.9970000  0  4G21G11G17G23
  20710618.126   -17526862.042 7 -13378214.41822        20.750           2.000
  23081088.548    -4176956.273 5  -3009205.69221        10.000           0.406
  20954426.798     -948733.250 7   -739269.37022        21.000           2.094
  19567491.454   -25123523.232 7 -19391613.31122        27.750           2.250
 91  7  4  5 15 59.9970000  0  4G21G11G17G23
  20703033.040   -17566708.848 7 -13409263.85222        20.000           2.156
  23069418.634    -4238297.212 5  -3057003.81121        10.250           0.313
  20959254.485     -923366.134 7   -719502.78922        21.250           2.063
  19568179.970   -25119899.942 7 -19388789.95122        27.750           2.375
 91  7  4  5 16 14.9970000  0  4G21G11G17G23
  20695467.142   -17606480.510 7 -13440254.75722        20.000           2.063
  23057754.095    -4299602.479 5  -3104774.11121        10.250           0.344
  20964092.438     -897935.707 7   -699686.87522        21.250           2.094
  19568886.876   -25116191.171 8 -19385899.99422        28.000           2.469
 91  7  4  5 16 29.9970000  0  4G21G11G17G23
  20687910.290   -17646176.370 7 -13471186.57422        20.000           2.063
  23046091.712    -4360871.449 5  -3152516.13521        10.750           0.344
  20968942.876     -872441.897 7   -679821.56822        20.750           2.219
  19569608.142   -25112396.727 7 -19382943.27322        27.750           2.406
 91  7  4  5 16 44.9970000  0  4G21G11G17G23
  20680374.696   -17685794.223 7 -13502057.60522        20.500           2.156
  23034438.774    -4422101.622 5  -3200227.92921        10.500           0.344
  20973806.735     -846882.220 7   -659904.94222        20.500           2.188
  19570348.157   -25108514.620 7 -19379918.24522        27.750           2.469
 91  7  4  5 16 59.9970000  0  4G21G11G17G23
  20672848.009   -17725338.379 7 -13532871.21422        20.500           2.094
  23022794.954    -4483297.041 5  -3247912.65021        10.750           0.438
  20978682.423     -821261.175 7   -639940.49322        20.750           2.156
  19571101.009   -25104549.232 7 -19376828.32123        27.000           2.531
 91  7  4  5 17 14.9970000  0  4G21G11G17G23
  20665336.251   -17764808.249 7 -13563626.93622        20.250           2.031
  23011156.868    -4544456.828 5  -3295569.59021        10.750           0.438
  20983570.290     -795578.396 7   -619927.93722        20.750           2.219
  19571871.704   -25100500.472 7 -19373673.43923        27.500           2.531
 91  7  4  5 17 29.9970000  0  4G21G11G17G23
  20657842.985   -17804202.538 7 -13594323.77622        21.000           2.000
  22999523.243    -4605579.210 5  -3343197.37921        10.250           0.406
  20988469.728     -769832.645 7   -599866.31622        20.500           2.094
  19572659.415   -25096366.884 7 -19370452.45023        27.500           2.531
 91  7  4  5 17 44.9970000  0  4G21G11G17G23
  20650360.337   -17843520.952 7 -13624961.47222        21.250           2.000
  22987897.071    -4666663.662 5  -3390795.61421        10.750           0.469
  20993380.134     -744023.845 7   -579755.56022        20.500           2.250
  19573460.720   -25092148.596 7 -19367165.46623        26.750           2.625
 91  7  4  5 17 59.9970000  0  4G21G11G17G23
  20642891.274   -17882762.989 7 -13655539.66922        21.000           1.969
  22976283.985    -4727709.382 5  -3438363.65621        11.000           0.469
  20998305.813     -718151.146 7   -559595.02222        21.500           2.188
  19574279.743   -25087845.167 7 -19363812.13423        27.000           2.594
 91  7  4  5 18 14.9960000  0  4G21G11G17G23
  20635439.551   -17921926.780 7 -13686056.90222        22.000           1.969
  22964679.527    -4788712.839 5  -3485898.81421        11.000           0.406
  21003237.324     -692217.363 7   -539386.88822        21.000           2.188
  19575114.949   -25083458.053 7 -19360393.60223        26.250           2.563
 91  7  4  5 18 29.9960000  0  4G21G11G17G23
  20628001.926   -17961016.974 7 -13716516.76622        22.000           2.000
  22953077.215    -4849681.371 5  -3533406.72221        11.000           0.469
  21008186.176     -666218.821 7   -519128.28522        21.750           2.250
  19575965.332   -25078986.220 7 -19356909.04623        25.500           2.500
 91  7  4  5 18 44.9960000  0  4G21G11G17G23
  20620579.051   -18000031.722 7 -13746917.84522        22.250           2.063
  22941481.457    -4910611.187 5  -3580884.45021        11.500           0.406
  21013146.129     -640157.768 7   -498820.97422        21.500           2.313
  19576830.637   -25074430.842 7 -19353359.39523        25.250           2.531
 91  7  4  5 18 59.9960000  0  4G21G11G17G23
  20613165.324   -18038972.610 7 -13777261.38022        21.500           2.094
  22929888.488    -4971503.501 5  -3628332.99121        11.000           0.469
  21018116.457     -614035.986 7   -478466.34722        21.500           2.281
  19577714.871   -25069793.781 7 -19349746.10023        25.750           2.531
 91  7  4  5 19 14.9960000  0  4G21G11G17G23
  20605771.535   -18077836.004 7 -13807544.52222        21.500           2.125
  22918309.457    -5032354.374 5  -3675749.22521        11.000           0.531
  21023101.160     -587849.807 7   -458061.53522        22.000           2.281
  19578613.309   -25065071.389 7 -19346066.30823        25.500           2.500
 91  7  4  5 19 29.9960000  0  4G21G11G17G23
  20598393.020   -18116619.685 7 -13837765.56122        22.250           2.125
  22906740.863    -5093161.244 5  -3723131.17521        11.750           0.531
  21028096.996     -561597.182 7   -437604.95322        21.250           2.188
  19579529.301   -25060261.718 7 -19342318.50223        26.000           2.500
 91  7  4  5 19 44.9960000  0  4G21G11G17G23
  20591022.676   -18155327.687 7 -13867927.61822        20.750           2.063
  22895180.691    -5153927.731 6  -3770481.65121        12.750           0.594
  21033103.848     -535282.130 7   -417099.71622        21.750           2.219
  19580461.387   -25055369.188 7 -19338506.13723        26.250           2.656
 91  7  4  5 19 59.9960000  0  4G21G11G17G23
  20583671.113   -18193955.732 7 -13898027.36822        21.000           2.188
  22883625.254    -5214649.429 6  -3817797.22521        12.750           0.500
  21038124.496     -508900.413 7   -396542.53922        21.750           2.156
  19581406.254   -25050389.702 7 -19334626.01423        25.750           2.688
 91  7  4  5 20 14.9960000  0  4G21G11G17G23
  20576336.152   -18232508.736 7 -13928068.64222        21.750           2.219
  22872080.926    -5275330.921 6  -3865081.47521        12.250           0.438
  21043155.051     -482457.094 7   -375937.36222        21.750           2.063
  19582369.801   -25045328.140 7 -19330681.93823        25.500           2.719
 91  7  4  5 20 29.9960000  0  4G21G11G17G23
  20569014.832   -18270981.872 7 -13958047.69122        21.500           2.125
  22860539.582    -5335967.200 6  -3912330.48821        12.250           0.625
  21048201.371     -455947.748 7   -355280.73322        22.000           2.000
  19583350.762   -25040180.084 7 -19326670.45923        25.750           2.750
 91  7  4  5 20 44.9960000  0  4G21G11G17G23
  20561707.723   -18309379.380 7 -13987967.80322        21.250           2.188
  22849008.738    -5396561.937 6  -3959547.14621        12.250           0.500
  21053259.066     -429376.485 7   -334575.85622        23.250           2.031
  19584345.582   -25034949.902 7 -19322594.98223        25.000           2.656
 91  7  4  5 20 59.9960000  0  4G21G11G17G23
  20554415.762   -18347701.064 7 -14017828.84022        21.250           2.094
  22837486.801    -5457114.664 6  -4006731.04721        12.000           0.500
  21058323.293     -402742.960 7   -313822.46922        22.250           2.125
  19585355.918   -25029637.569 7 -19318455.49323        25.500           2.719
 91  7  4  5 21 14.9960000  0  4G21G11G17G23
  20547139.395   -18385947.905 7 -14047631.55022        21.500           2.063
  22825969.996    -5517625.997 6  -4053882.70521        12.250           0.594
  21063402.512     -376048.504 7   -293021.59722        21.500           2.156
  19586382.715   -25024244.337 7 -19314252.96623        25.750           2.719
 91  7  4  5 21 29.9960000  0  4G21G11G17G23
  20539875.559   -18424115.046 7 -14077372.16022        21.250           2.094
  22814464.504    -5578090.848 6  -4100998.12521        13.000           0.469
  21068498.113     -349288.388 7   -272169.57122        21.500           1.938
  19587425.371   -25018765.564 7 -19309983.78923        25.500           2.656
 91  7  4  5 21 44.9960000  0  4G21G11G17G23
  20532627.996   -18462202.458 7 -14107050.65122        21.000           2.063
  22802966.926    -5638509.084 6  -4148077.26321        13.000           0.594
  21073602.152     -322462.710 7   -251266.44422        21.000           1.906
  19588483.566   -25013201.500 7 -19305648.14623        25.750           2.781
 91  7  4  5 21 59.9960000  0  4G21G11G17G23
  20525396.277   -18500213.293 7 -14136669.47222        21.750           2.156
  22791478.231    -5698883.313 6  -4195122.09821        13.000           0.625
  21078719.145     -295574.657 7   -230314.72922        21.000           1.906
  19589557.371   -25007555.269 7 -19301248.47123        25.500           2.875
 91  7  4  5 22 14.9960000  0  4G21G11G17G23
  20518174.496   -18538145.806 7 -14166227.24322        21.500           2.156
  22779996.254    -5759211.392 6  -4242130.93521        13.500           0.625
  21083843.590     -268622.265 6   -209312.87122        19.500           1.750
  19590649.457   -25001825.290 7 -19296783.54723        26.250           2.906
 91  7  4  5 22 29.9960000  0  4G21G11G17G23
  20510973.309   -18576000.950 7 -14195724.73822        21.500           2.031
  22768526.496    -5819494.145 6  -4289104.47821        14.250           0.594
  21088987.824     -241606.909 7   -188261.94622        20.250           1.906
  19591756.066   -24996013.031 7 -19292254.50323        26.000           3.031
 91  7  4  5 22 44.9960000  0  4G21G11G17G23
  20503783.387   -18613780.894 7 -14225163.63922        22.000           2.156
  22757064.606    -5879733.273 6  -4336044.05521        14.250           0.594
  21094138.535     -214530.942 6   -167163.80722        19.750           1.969
  19592875.824   -24990120.877 7 -19287663.20923        26.000           2.969
 91  7  4  5 22 59.9960000  0  4G21G11G17G23
  20496607.988   -18651481.303 7 -14254540.55822        22.000           2.094
  22745608.863    -5939924.037 6  -4382945.91421        13.750           0.500
  21099305.785     -187389.928 6   -146014.95422        19.750           1.844
  19594012.316   -24984144.481 7 -19283006.26923        25.750           3.125
 91  7  4  5 23 14.9960000  0  4G21G11G17G23
  20489449.277   -18689101.699 7 -14283855.13822        22.250           2.000
  22734164.871    -6000065.784 6  -4429809.57421        14.000           0.656
  21104477.223     -160183.525 6   -124815.17622        18.750           1.844
  19595166.879   -24978083.560 7 -19278283.46623        26.000           3.000
 91  7  4  5 23 29.9960000  0  4G21G11G17G23
  20482305.191   -18726644.375 7 -14313109.15222        22.000           2.063
  22722729.801    -6060160.355 6  -4476636.49121        14.000           0.656
  21109671.121     -132913.917 7   -103566.14422        20.250           1.938
  19596336.387   -24971940.617 7 -19273496.75623        26.000           3.000
 91  7  4  5 23 44.9960000  0  4G21G11G17G23
  20475177.027   -18764107.547 7 -14342301.21122        22.000           1.969
  22711301.520    -6120205.795 6  -4523425.12821        13.000           0.656
  21114874.590     -105579.518 7    -82266.62022        20.750           1.875
  19597519.887   -24965714.215 7 -19268645.00823        26.000           2.969
 91  7  4  5 23 59.9960000  0  4G21G11G17G23
  20468060.504   -18801491.503 7 -14371431.54822        21.000           2.000
  22699885.996    -6180202.044 6  -4570175.41321        12.500           0.563
  21120087.816      -78180.848 7    -60917.01422        21.250           1.781
  19598721.457   -24959404.758 7 -19263728.54123        26.500           3.125
 91  7  4  5 24 14.9960000  0  4G21G11G17G23
  20460963.582   -18838796.246 7 -14400500.15822        21.500           2.188
  22688481.629    -6240148.690 6  -4616887.05421        13.500           0.594
  21125311.387      -50718.017 7    -39517.40522        21.000           1.844
  19599937.832   -24953012.473 7 -19258747.53823        25.750           3.188
 91  7  4  5 24 29.9960000  0  4G21G11G17G23
  20453880.160   -18876022.860 7 -14429507.88222        22.000           2.188
  22677078.402    -6300046.574 6  -4663560.71221        12.500           0.719
  21130551.457      -23192.068 7    -18068.62522        21.250           1.844
  19601169.043   -24946538.466 7 -19253702.85623        25.500           3.188
 91  7  4  5 24 44.9960000  0  4G21G11G17G23
  20446811.027   -18913170.957 7 -14458454.42822        22.000           2.063
  22665689.731    -6359894.982 6  -4710195.81621        12.750           0.688
  21135801.043        4397.217 7      3429.50322        21.250           1.781
  19602416.754   -24939982.637 7 -19248594.41423        25.000           3.188
 91  7  4  5 24 59.9960000  0  4G21G11G17G23
  20439756.918   -18950238.589 7 -14487338.27522        21.750           2.156
  22654310.137    -6419691.447 6  -4756790.44521        12.750           0.625
  21141063.301       32051.804 7     24978.52722        20.750           1.906
  19603681.059   -24933343.319 7 -19243420.91523        25.750           3.188
 91  7  4  5 25 14.9960000  0  4G21G11G17G23
  20432717.566   -18987234.923 7 -14516166.56422        22.500           2.188
  22642941.910    -6479444.972 6  -4803351.61821        12.500           0.594
  21146336.973       59762.385 7     46571.17422        20.500           1.813
  19604957.145   -24926629.903 7 -19238189.67523        25.500           3.031
 91  7  4  5 25 29.9960000  0  4G21G11G17G23
  20425692.551   -19024153.616 7 -14544934.36622        22.500           2.219
  22631579.277    -6539148.874 6  -4849874.12021        13.000           0.625
  21151620.191       87535.136 7     68212.27122        21.000           1.844
  19606251.348   -24919836.273 7 -19232895.93023        25.250           3.094
 91  7  4  5 25 44.9960000  0  4G21G11G17G23
  20418682.207   -19060993.965 7 -14573641.11322        22.250           2.188
  22620229.520    -6598802.139 6  -4896357.17021        13.250           0.719
  21156918.863      115370.690 7     89902.30622        21.750           1.813
  19607558.965   -24912961.896 7 -19227539.26423        25.750           3.000
 91  7  4  5 25 59.9960000  0  4G21G11G17G23
  20411685.957   -19097755.861 7 -14602286.73022        21.750           2.125
  22608885.746    -6658404.305 6  -4942800.39221        13.250           0.656
  21162226.660      143269.142 7    111641.35822        21.000           1.750
  19608881.496   -24906006.829 7 -19222119.72323        25.500           3.063
 91  7  4  5 26 14.9960000  0  4G21G11G17G23
  20404705.371   -19134438.266 7 -14630870.39622        21.750           2.188
  22597553.434    -6717953.935 6  -4989202.68921        13.500           0.625
  21167548.809      171231.442 7    133430.16422        21.750           1.781
  19610221.262   -24898970.282 7 -19216636.68323        25.000           3.125
 91  7  4  5 26 29.9960000  0  4G21G11G17G23
  20397741.863   -19171042.561 7 -14659393.20022        22.250           2.344
  22586229.941    -6777452.251 6  -5035564.99821        13.250           0.625
  21172881.496      199255.971 7    155267.44322        21.250           1.844
  19611573.645   -24891853.756 7 -19211091.33023        25.000           3.094
 91  7  4  5 26 44.9960000  0  4G21G11G17G23
  20390788.113   -19207569.266 7 -14687855.53822        22.500           2.188
  22574916.418    -6836899.240 6  -5081887.30221        13.250           0.594
  21178224.793      227342.235 7    177152.83722        21.000           1.813
  19612945.098   -24884657.983 7 -19205484.23323        25.250           3.063
 91  7  4  5 26 59.9960000  0  4G21G11G17G23
  20383850.738   -19244019.886 7 -14716258.59222        22.250           2.250
  22563613.918    -6896296.159 6  -5128170.59921        13.000           0.625
  21183583.731      255488.586 7    199085.04822        21.500           1.719
  19614328.270   -24877384.628 7 -19199816.68123        25.250           3.000
 91  7  4  5 27 14.9960000  0  4G21G11G17G23
  20376931.199   -19280393.805 7 -14744601.88722        22.500           2.219
  22552324.637    -6955642.015 6  -5174414.10521        13.250           0.719
  21188948.613      283695.649 7    221064.57022        20.250           1.750
  19615727.941   -24870033.231 7 -19194088.31123        25.000           3.219
